[[{"header":{"parameterUnit":"m.s-1","parameterCategory":1,"la1":31.0,"la2":29.5877,"lo1":-88.7671,"lo2":-86.6584,"dy":0.0162,"dx":0.0185,"nx":115,"ny":88,"refTime":"2024-02-24T06:00:00:Z","depth":0,"parameterNumber":2,"parameterNumberName":"U-component_of_WINDS"},"data":[0.0,0.0,0.0,0.0,0.0,0.0,0.0,0.0,0.0,0.0,0.0,0.0,0.0,0.0,0.0,0.0,0.0,0.0,0.0,0.0,0.0,0.0,0.0,0.0,0.0,0.0,0.0,0.0,0.0,0.0,0.0,0.0,0.0,0.0,0.0,0.0,0.0,0.0,0.0,0.0,0.0,0.0,0.0,0.0,0.0,0.0,0.0,0.0,0.0,0.0,0.0,0.0,0.0,0.0,0.0,0.0,0.0,0.0,0.0,0.0,0.0,0.0,0.0,0.0,0.0,0.0,0.0,0.0,0.0,0.0,0.0,0.0,0.0,0.0,0.0,0.0,0.0,0.0,0.0,0.0,0.0,0.0,0.0,0.0,0.0,0.0,0.0,0.0,0.0,0.0,0.0,0.0,0.0,0.0,0.0,0.0,0.0,0.0,0.0,0.0,0.0,0.0,0.0,0.0,0.0,0.0,0.0,0.0,0.0,0.0,0.0,0.0,0.0,0.0,0.0,0.0,0.0,0.0,0.0,0.0,0.0,0.0,0.0,0.0,0.0,0.0,0.0,0.0,0.0,0.0,0.0,0.0,0.0,0.0,0.0,0.0,0.0,0.0,0.0,0.0,0.0,0.0,0.0,0.0,0.0,0.0,0.0,0.0,0.0,0.0,0.0,0.0,0.0,0.0,0.0,0.0,0.0,0.0,0.0,0.0,0.0,0.0,0.0,0.0,0.0,0.0,0.0,0.0,0.0,0.0,0.0,0.0,0.0,0.0,0.0,0.0,0.0,0.0,0.0,0.0,0.0,0.0,0.0,0.0,0.0,0.0,0.0,0.0,0.0,0.0,0.0,0.0,0.0,0.0,0.0,0.0,0.0,0.0,0.0,0.0,0.0,0.0,0.0,0.0,0.0,0.0,0.0,0.0,0.0,0.0,0.0,0.0,0.0,0.0,0.0,0.0,0.0,0.0,0.0,0.0,0.0,0.0,0.0,0.0,0.0,0.0,0.0,0.0,0.0,0.0,0.0,0.0,0.0,0.0,0.0,0.0,0.0,0.0,0.0,0.0,0.0,0.0,0.0,0.0,0.0,0.0,0.0,0.0,0.0,0.0,0.0,0.0,0.0,0.0,0.0,0.0,0.0,0.0,0.0,0.0,0.0,0.0,0.0,0.0,0.0,0.0,0.0,0.0,0.0,0.0,0.0,0.0,0.0,0.0,0.0,0.0,0.0,0.0,0.0,0.0,0.0,0.0,0.0,0.0,0.0,0.0,0.0,0.0,0.0,0.0,0.0,0.0,0.0,0.0,0.0,0.0,0.0,0.0,0.0,0.0,0.0,0.0,0.0,0.0,0.0,0.0,0.0,0.0,0.0,0.0,0.0,0.0,0.0,0.0,0.0,0.0,0.0,0.0,0.0,0.0,0.0,0.0,0.0,0.0,0.0,0.0,0.0,0.0,0.0,0.0,0.0,0.0,0.0,0.0,0.0,0.0,0.0,0.0,0.0,0.0,0.0,0.0,0.0,0.0,0.0,0.0,0.0,0.0,0.0,0.0,0.0,0.0,0.0,0.0,0.0,0.0,0.0,0.0,0.0,0.0,0.0,0.0,0.0,0.0,0.0,0.0,0.0,0.0,0.0,0.0,0.0,0.0,0.0,0.0,0.0,0.0,0.0,0.0,0.0,0.0,0.0,0.0,0.0,0.0,0.0,0.0,0.0,0.0,0.0,0.0,0.0,0.0,0.0,0.0,0.0,0.0,0.0,0.0,0.0,0.0,0.0,0.0,0.0,0.0,0.0,0.0,0.0,0.0,0.0,0.0,0.0,0.0,0.0,0.0,0.0,0.0,0.0,0.0,0.0,0.0,0.0,0.0,0.0,0.0,0.0,0.0,0.0,0.0,0.0,0.0,0.0,0.0,0.0,0.0,0.0,0.0,0.0,0.0,0.0,0.0,0.0,0.0,0.0,0.0,0.0,0.0,0.0,0.0,0.0,0.0,0.0,0.0,0.0,0.0,0.0,0.0,0.0,0.0,0.0,0.0,0.0,0.0,0.0,0.0,0.0,0.0,0.0,0.0,0.0,0.0,0.0,0.0,0.0,0.0,0.0,0.0,0.0,0.0,0.0,0.0,0.0,0.0,0.0,0.0,0.0,0.0,0.0,0.0,0.0,0.0,0.0,0.0,0.0,0.0,0.0,0.0,0.0,0.0,0.0,0.0,0.0,0.0,0.0,0.0,0.0,0.0,0.0,0.0,0.0,0.0,0.0,0.0,0.0,0.0,0.0,0.0,0.0,0.0,0.0,0.0,0.0,0.0,0.0,0.0,0.0,0.0,0.0,0.0,0.0,0.0,0.0,0.0,0.0,0.0,0.0,0.0,0.0,0.0,0.0,0.0,0.0,0.0,0.0,0.0,0.0,0.0,0.0,0.0,0.0,0.0,0.0,0.0,0.0,0.0,0.0,0.0,0.0,0.0,0.0,0.0,0.0,0.0,0.0,0.0,0.0,0.0,0.0,0.0,0.0,0.0,0.0,0.0,0.0,0.0,0.0,0.0,0.0,0.0,0.0,0.0,0.0,0.0,0.0,0.0,0.0,0.0,0.0,0.0,0.0,0.0,0.0,0.0,0.0,0.0,0.0,0.0,0.0,0.0,0.0,0.0,0.0,0.0,0.0,0.0,0.0,0.0,0.0,0.0,0.0,0.0,0.0,0.0,0.0,0.0,0.0,0.0,0.0,0.0,0.0,0.0,0.0,0.0,0.0,0.0,0.0,0.0,0.0,0.0,0.0,0.0,0.0,0.0,0.0,0.0,0.0,0.0,0.0,0.0,0.0,0.0,0.0,0.0,0.0,0.0,0.0,0.0,0.0,0.0,0.0,0.0,0.0,0.0,0.0,0.0,0.0,0.0,0.0,0.0,0.0,0.0,0.0,0.0,0.0,0.0,0.0,0.0,0.0,0.0,0.0,0.0,0.0,0.0,0.0,0.0,0.0,0.0,0.0,0.0,0.0,0.0,0.0,0.0,0.0,0.0,0.0,0.0,0.0,0.0,0.0,0.0,0.0,0.0,0.0,0.0,0.0,0.0,0.0,0.0,0.0,0.0,0.0,0.0,0.0,0.0,0.0,0.0,0.0,0.0,0.0,0.0,0.0,0.0,0.0,0.0,0.0,0.0,0.0,0.0,0.0,0.0,0.0,0.0,0.0,0.0,0.0,0.0,0.0,0.0,0.0,0.0,0.0,0.0,0.0,0.0,0.0,0.0,0.0,0.0,0.0,0.0,0.0,0.0,0.0,0.0,0.0,0.0,0.0,0.0,0.0,0.0,0.0,0.0,0.0,0.0,0.0,0.0,0.0,0.0,0.0,0.0,0.0,0.0,0.0,0.0,0.0,0.0,0.0,0.0,0.0,0.0,0.0,0.0,0.0,0.0,0.0,0.0,0.0,0.0,0.0,0.0,0.0,0.0,0.0,0.0,0.0,0.0,0.0,0.0,0.0,0.0,0.0,0.0,0.0,0.0,0.0,0.0,0.0,0.0,0.0,0.0,0.0,0.0,0.0,0.0,0.0,0.0,0.0,0.0,0.0,0.0,0.0,0.0,0.0,0.0,0.0,0.0,0.0,0.0,0.0,0.0,0.0,0.0,0.0,0.0,0.0,0.0,0.0,0.0,0.0,0.0,0.0,0.0,0.0,0.0,0.0,0.0,0.0,0.0,0.0,0.0,0.0,0.0,0.0,0.0,0.0,0.0,0.0,0.0,0.0,0.0,0.0,0.0,0.0,0.0,0.0,0.0,0.0,0.0,0.0,0.0,0.0,0.0,0.0,0.0,0.0,0.0,0.0,0.0,0.0,0.0,0.0,0.0,0.0,0.0,0.0,0.0,0.0,0.0,0.0,0.0,0.0,0.0,0.0,0.0,0.0,0.0,0.0,0.0,0.0,0.0,0.0,0.0,0.0,0.0,0.0,0.0,0.0,0.0,0.0,0.0,0.0,0.0,0.0,0.0,0.0,0.0,0.0,0.0,0.0,0.0,0.0,0.0,0.0,0.0,0.0,0.0,0.0,0.0,0.0,0.0,0.0,0.0,0.0,0.0,0.0,0.0,0.0,0.0,0.0,0.0,0.0,0.0,0.0,0.0,0.0,0.0,0.0,0.0,0.0,0.0,0.0,0.0,0.0,0.0,0.0,0.0,0.0,0.0,0.0,0.0,0.0,0.0,0.0,0.0,0.0,0.0,0.0,0.0,0.0,0.0,0.0,0.0,0.0,0.0,0.0,0.0,-4.8604,0.0,0.0,0.0,0.0,0.0,0.0,0.0,0.0,0.0,0.0,0.0,0.0,0.0,0.0,0.0,0.0,0.0,0.0,0.0,0.0,0.0,0.0,0.0,0.0,0.0,0.0,0.0,0.0,0.0,0.0,0.0,0.0,0.0,0.0,0.0,0.0,0.0,0.0,0.0,0.0,0.0,0.0,0.0,0.0,0.0,0.0,0.0,0.0,0.0,0.0,0.0,0.0,0.0,0.0,0.0,0.0,0.0,0.0,0.0,0.0,0.0,0.0,0.0,0.0,0.0,0.0,0.0,0.0,0.0,0.0,0.0,0.0,0.0,0.0,0.0,0.0,0.0,0.0,0.0,0.0,0.0,0.0,0.0,0.0,0.0,0.0,0.0,0.0,0.0,0.0,0.0,0.0,0.0,0.0,0.0,0.0,0.0,0.0,0.0,0.0,0.0,0.0,0.0,0.0,0.0,0.0,0.0,0.0,0.0,0.0,-4.8091,-4.8286,-4.8495,-4.8604,-4.8604,0.0,0.0,0.0,0.0,0.0,0.0,0.0,0.0,0.0,0.0,0.0,0.0,0.0,0.0,0.0,0.0,0.0,0.0,0.0,0.0,0.0,0.0,0.0,0.0,0.0,0.0,0.0,0.0,0.0,0.0,0.0,0.0,0.0,0.0,0.0,0.0,0.0,0.0,0.0,0.0,0.0,0.0,0.0,0.0,0.0,0.0,0.0,0.0,0.0,0.0,0.0,0.0,0.0,0.0,0.0,0.0,0.0,0.0,0.0,0.0,0.0,0.0,0.0,0.0,0.0,0.0,0.0,0.0,0.0,0.0,0.0,0.0,0.0,0.0,0.0,0.0,0.0,0.0,0.0,0.0,0.0,0.0,0.0,0.0,0.0,0.0,0.0,0.0,0.0,0.0,0.0,0.0,0.0,0.0,0.0,0.0,0.0,0.0,0.0,0.0,0.0,0.0,0.0,0.0,0.0,0.0,0.0,0.0,0.0,0.0,0.0,0.0,-4.8521,-4.8604,-4.8604,0.0,0.0,0.0,0.0,0.0,0.0,0.0,0.0,0.0,0.0,0.0,0.0,0.0,0.0,0.0,0.0,0.0,0.0,0.0,0.0,0.0,0.0,0.0,0.0,0.0,0.0,0.0,0.0,0.0,0.0,0.0,0.0,0.0,0.0,0.0,0.0,0.0,0.0,0.0,0.0,0.0,0.0,0.0,0.0,0.0,0.0,0.0,0.0,0.0,0.0,0.0,0.0,0.0,0.0,0.0,0.0,0.0,0.0,0.0,0.0,0.0,0.0,0.0,0.0,0.0,0.0,0.0,0.0,0.0,0.0,0.0,0.0,0.0,0.0,0.0,0.0,0.0,0.0,0.0,0.0,0.0,0.0,0.0,0.0,0.0,0.0,0.0,0.0,0.0,0.0,0.0,0.0,0.0,0.0,0.0,0.0,0.0,0.0,0.0,0.0,0.0,0.0,0.0,0.0,0.0,0.0,0.0,0.0,0.0,0.0,-4.837,-4.8578,-4.8578,0.0,-4.8604,0.0,0.0,0.0,0.0,0.0,0.0,0.0,0.0,0.0,0.0,0.0,0.0,0.0,0.0,0.0,0.0,0.0,0.0,0.0,0.0,0.0,0.0,0.0,0.0,0.0,0.0,0.0,0.0,0.0,0.0,0.0,0.0,0.0,0.0,0.0,0.0,0.0,0.0,0.0,0.0,0.0,0.0,0.0,0.0,0.0,0.0,0.0,0.0,0.0,0.0,0.0,0.0,0.0,0.0,0.0,0.0,0.0,0.0,0.0,0.0,0.0,0.0,0.0,0.0,0.0,0.0,0.0,0.0,0.0,0.0,0.0,0.0,0.0,0.0,0.0,0.0,0.0,0.0,0.0,0.0,0.0,0.0,0.0,0.0,0.0,0.0,0.0,0.0,0.0,0.0,0.0,0.0,0.0,0.0,0.0,0.0,0.0,0.0,0.0,0.0,0.0,0.0,0.0,0.0,0.0,0.0,0.0,0.0,0.0,0.0,-4.8412,-4.8563,-4.8604,-4.8604,0.0,0.0,0.0,0.0,0.0,0.0,0.0,0.0,0.0,0.0,0.0,0.0,0.0,0.0,0.0,0.0,0.0,0.0,0.0,0.0,0.0,0.0,0.0,0.0,0.0,0.0,0.0,0.0,0.0,0.0,0.0,0.0,0.0,0.0,0.0,0.0,0.0,0.0,0.0,0.0,0.0,0.0,0.0,0.0,0.0,0.0,0.0,0.0,0.0,0.0,0.0,0.0,0.0,0.0,0.0,0.0,0.0,0.0,0.0,0.0,0.0,0.0,0.0,0.0,0.0,0.0,0.0,0.0,0.0,0.0,0.0,0.0,0.0,0.0,0.0,0.0,0.0,0.0,0.0,0.0,0.0,0.0,0.0,0.0,0.0,0.0,0.0,0.0,0.0,0.0,0.0,0.0,0.0,0.0,0.0,0.0,0.0,0.0,0.0,0.0,0.0,0.0,0.0,0.0,0.0,0.0,0.0,0.0,0.0,0.0,-4.826,-4.8453,-4.8578,-4.8604,-4.8604,-4.8604,0.0,0.0,0.0,0.0,0.0,0.0,0.0,0.0,0.0,0.0,0.0,0.0,0.0,0.0,0.0,0.0,0.0,0.0,0.0,0.0,0.0,0.0,0.0,0.0,0.0,0.0,0.0,0.0,0.0,0.0,0.0,0.0,0.0,0.0,0.0,0.0,0.0,0.0,0.0,0.0,0.0,0.0,0.0,0.0,0.0,0.0,0.0,0.0,0.0,0.0,0.0,0.0,0.0,0.0,0.0,0.0,0.0,0.0,0.0,0.0,0.0,0.0,0.0,0.0,0.0,0.0,0.0,0.0,0.0,0.0,0.0,0.0,0.0,0.0,0.0,0.0,0.0,0.0,0.0,0.0,0.0,0.0,0.0,0.0,0.0,0.0,0.0,0.0,0.0,0.0,0.0,0.0,0.0,0.0,0.0,0.0,0.0,0.0,0.0,0.0,0.0,0.0,0.0,0.0,0.0,0.0,0.0,0.0,-4.8007,-4.837,-4.8563,-4.8604,-4.8604,-4.8604,0.0,0.0,0.0,0.0,0.0,0.0,0.0,0.0,0.0,0.0,0.0,0.0,0.0,0.0,0.0,0.0,0.0,0.0,0.0,0.0,0.0,0.0,0.0,0.0,0.0,0.0,0.0,0.0,0.0,0.0,0.0,0.0,0.0,0.0,0.0,0.0,0.0,0.0,0.0,0.0,0.0,0.0,0.0,0.0,0.0,0.0,0.0,0.0,0.0,0.0,0.0,0.0,0.0,0.0,0.0,0.0,0.0,0.0,0.0,0.0,0.0,0.0,0.0,0.0,0.0,0.0,0.0,0.0,0.0,0.0,0.0,0.0,0.0,0.0,0.0,0.0,0.0,0.0,0.0,0.0,0.0,0.0,0.0,0.0,0.0,0.0,0.0,0.0,0.0,0.0,0.0,0.0,0.0,0.0,0.0,0.0,0.0,0.0,0.0,0.0,0.0,0.0,0.0,0.0,0.0,0.0,0.0,0.0,0.0,-4.8007,-4.8412,-4.8604,-4.8604,-4.8604,-4.8604,0.0,0.0,0.0,0.0,0.0,0.0,0.0,0.0,0.0,0.0,0.0,0.0,0.0,0.0,0.0,0.0,0.0,0.0,0.0,0.0,0.0,0.0,0.0,0.0,0.0,0.0,0.0,0.0,0.0,0.0,0.0,0.0,0.0,0.0,0.0,0.0,0.0,0.0,0.0,0.0,0.0,0.0,0.0,0.0,0.0,0.0,0.0,0.0,0.0,0.0,0.0,0.0,0.0,0.0,0.0,0.0,0.0,0.0,0.0,0.0,0.0,0.0,0.0,0.0,0.0,0.0,0.0,0.0,0.0,0.0,0.0,0.0,0.0,0.0,0.0,0.0,0.0,0.0,0.0,0.0,0.0,0.0,0.0,0.0,0.0,0.0,0.0,0.0,0.0,0.0,0.0,0.0,0.0,0.0,0.0,0.0,0.0,0.0,0.0,0.0,0.0,0.0,0.0,0.0,0.0,0.0,0.0,0.0,0.0,-4.8202,0.0,-4.8604,-4.8604,-4.8604,-4.8604,0.0,0.0,0.0,0.0,0.0,0.0,0.0,0.0,0.0,0.0,0.0,0.0,0.0,0.0,0.0,0.0,0.0,0.0,0.0,0.0,0.0,0.0,0.0,0.0,0.0,0.0,0.0,0.0,0.0,0.0,0.0,0.0,0.0,0.0,0.0,0.0,0.0,0.0,0.0,0.0,0.0,0.0,0.0,0.0,0.0,0.0,0.0,0.0,0.0,0.0,0.0,0.0,0.0,0.0,0.0,0.0,0.0,0.0,0.0,0.0,0.0,0.0,0.0,0.0,0.0,0.0,0.0,0.0,0.0,0.0,0.0,0.0,0.0,0.0,0.0,0.0,0.0,0.0,0.0,0.0,0.0,0.0,0.0,0.0,0.0,0.0,0.0,0.0,0.0,0.0,0.0,0.0,0.0,0.0,0.0,0.0,0.0,0.0,0.0,0.0,0.0,0.0,0.0,0.0,0.0,0.0,0.0,0.0,-4.8218,-4.8593,-4.865,-4.8666,-4.862,-4.865,-4.8635,0.0,0.0,0.0,0.0,0.0,0.0,0.0,0.0,0.0,0.0,0.0,0.0,0.0,0.0,0.0,0.0,0.0,0.0,0.0,0.0,0.0,0.0,0.0,0.0,0.0,0.0,0.0,0.0,0.0,0.0,0.0,0.0,0.0,0.0,0.0,0.0,0.0,0.0,0.0,0.0,0.0,0.0,0.0,0.0,0.0,0.0,0.0,0.0,0.0,0.0,0.0,0.0,0.0,0.0,0.0,0.0,0.0,0.0,0.0,0.0,0.0,0.0,0.0,0.0,0.0,0.0,0.0,0.0,0.0,0.0,0.0,0.0,0.0,0.0,0.0,0.0,0.0,0.0,0.0,0.0,0.0,0.0,0.0,0.0,0.0,0.0,0.0,0.0,0.0,0.0,0.0,0.0,0.0,0.0,0.0,0.0,0.0,0.0,0.0,0.0,0.0,0.0,0.0,0.0,0.0,0.0,0.0,0.0,0.0,-4.9358,-4.9358,-4.9358,-4.9358,-4.9343,-4.9127,0.0,0.0,0.0,0.0,0.0,0.0,0.0,0.0,0.0,0.0,0.0,0.0,0.0,0.0,0.0,0.0,0.0,0.0,0.0,0.0,0.0,0.0,0.0,0.0,0.0,0.0,0.0,0.0,0.0,0.0,0.0,0.0,0.0,0.0,0.0,0.0,0.0,0.0,0.0,0.0,0.0,0.0,0.0,0.0,0.0,0.0,0.0,0.0,0.0,0.0,0.0,0.0,0.0,0.0,0.0,0.0,0.0,0.0,0.0,0.0,0.0,0.0,0.0,0.0,0.0,0.0,0.0,0.0,0.0,0.0,0.0,0.0,0.0,0.0,0.0,0.0,0.0,0.0,0.0,0.0,0.0,0.0,0.0,0.0,0.0,0.0,0.0,0.0,0.0,0.0,0.0,0.0,0.0,0.0,0.0,0.0,0.0,0.0,0.0,0.0,0.0,0.0,0.0,0.0,0.0,0.0,0.0,0.0,0.0,-5.0405,-5.0205,-5.0066,-5.0066,-4.982,-4.9466,-4.9035,0.0,0.0,0.0,0.0,0.0,0.0,0.0,0.0,0.0,0.0,0.0,0.0,0.0,0.0,0.0,0.0,0.0,0.0,0.0,0.0,0.0,0.0,0.0,0.0,0.0,0.0,0.0,0.0,0.0,0.0,0.0,0.0,0.0,0.0,0.0,0.0,0.0,0.0,0.0,0.0,0.0,0.0,0.0,0.0,0.0,0.0,0.0,0.0,0.0,0.0,0.0,0.0,0.0,0.0,0.0,0.0,0.0,0.0,0.0,0.0,0.0,0.0,0.0,0.0,0.0,0.0,0.0,0.0,0.0,0.0,0.0,0.0,0.0,0.0,0.0,0.0,0.0,0.0,0.0,0.0,0.0,0.0,0.0,0.0,0.0,0.0,0.0,0.0,0.0,0.0,0.0,0.0,0.0,0.0,0.0,0.0,0.0,0.0,0.0,0.0,0.0,0.0,0.0,0.0,0.0,0.0,0.0,0.0,-5.1744,-5.1174,-5.0836,-5.0743,-5.0143,-4.9758,0.0,0.0,0.0,0.0,0.0,0.0,0.0,0.0,0.0,0.0,0.0,0.0,0.0,0.0,0.0,0.0,0.0,0.0,0.0,0.0,0.0,0.0,0.0,0.0,0.0,0.0,0.0,0.0,0.0,0.0,0.0,0.0,0.0,0.0,0.0,0.0,0.0,0.0,0.0,0.0,0.0,0.0,0.0,0.0,0.0,0.0,0.0,0.0,0.0,0.0,0.0,0.0,0.0,0.0,0.0,0.0,0.0,0.0,0.0,0.0,0.0,0.0,0.0,0.0,0.0,0.0,0.0,0.0,0.0,0.0,0.0,0.0,0.0,0.0,0.0,0.0,0.0,0.0,0.0,0.0,0.0,0.0,0.0,0.0,0.0,0.0,0.0,0.0,0.0,0.0,0.0,0.0,0.0,0.0,0.0,0.0,0.0,0.0,0.0,0.0,0.0,0.0,0.0,0.0,0.0,0.0,0.0,0.0,0.0,-5.2375,-5.276,-5.2436,-5.1482,-5.1251,-5.0713,0.0,0.0,0.0,0.0,0.0,0.0,0.0,0.0,0.0,0.0,0.0,0.0,0.0,0.0,0.0,0.0,0.0,0.0,0.0,0.0,0.0,0.0,0.0,0.0,0.0,0.0,0.0,0.0,0.0,0.0,0.0,0.0,0.0,0.0,0.0,0.0,0.0,0.0,0.0,0.0,0.0,0.0,0.0,0.0,0.0,0.0,0.0,0.0,0.0,0.0,0.0,0.0,0.0,0.0,0.0,0.0,0.0,0.0,0.0,0.0,0.0,0.0,0.0,0.0,0.0,0.0,0.0,0.0,0.0,0.0,0.0,0.0,0.0,0.0,0.0,0.0,0.0,0.0,0.0,0.0,0.0,0.0,0.0,0.0,0.0,0.0,0.0,0.0,0.0,0.0,0.0,0.0,0.0,0.0,0.0,0.0,0.0,0.0,0.0,0.0,0.0,0.0,0.0,0.0,0.0,0.0,0.0,0.0,-5.1754,-5.3068,-5.3806,-5.3591,-5.259,-5.2283,-5.1498,0.0,0.0,0.0,0.0,0.0,0.0,0.0,0.0,0.0,0.0,0.0,0.0,0.0,0.0,0.0,0.0,0.0,0.0,0.0,0.0,0.0,0.0,0.0,0.0,0.0,0.0,0.0,0.0,0.0,0.0,0.0,0.0,0.0,0.0,0.0,0.0,0.0,0.0,0.0,0.0,0.0,0.0,0.0,0.0,0.0,0.0,0.0,0.0,0.0,0.0,0.0,0.0,0.0,0.0,0.0,0.0,0.0,0.0,0.0,0.0,0.0,0.0,0.0,0.0,0.0,0.0,0.0,0.0,0.0,0.0,0.0,0.0,0.0,0.0,0.0,0.0,0.0,0.0,0.0,0.0,0.0,0.0,0.0,0.0,0.0,0.0,0.0,0.0,0.0,0.0,0.0,0.0,0.0,0.0,0.0,0.0,0.0,0.0,0.0,0.0,0.0,0.0,0.0,0.0,0.0,0.0,0.0,0.0,-5.2764,-5.3776,-5.4437,-5.4483,-5.3929,-5.3206,-5.2144,0.0,0.0,0.0,0.0,0.0,0.0,0.0,0.0,0.0,0.0,0.0,0.0,0.0,0.0,0.0,0.0,0.0,0.0,0.0,0.0,0.0,0.0,0.0,0.0,0.0,0.0,0.0,0.0,0.0,0.0,0.0,0.0,0.0,0.0,0.0,0.0,0.0,0.0,0.0,0.0,0.0,0.0,0.0,0.0,0.0,0.0,0.0,0.0,0.0,0.0,0.0,0.0,0.0,0.0,0.0,0.0,0.0,0.0,0.0,0.0,0.0,0.0,0.0,0.0,0.0,0.0,0.0,0.0,0.0,0.0,0.0,0.0,0.0,0.0,0.0,0.0,0.0,0.0,0.0,0.0,0.0,0.0,0.0,0.0,0.0,0.0,0.0,0.0,0.0,0.0,0.0,0.0,0.0,0.0,0.0,0.0,0.0,0.0,0.0,0.0,0.0,0.0,0.0,0.0,0.0,0.0,0.0,0.0,-5.2764,-5.4219,-5.5051,-5.5407,-5.5268,-5.4129,-5.2637,0.0,0.0,0.0,0.0,0.0,0.0,0.0,0.0,0.0,0.0,0.0,0.0,0.0,0.0,0.0,0.0,0.0,0.0,0.0,0.0,0.0,0.0,0.0,0.0,0.0,0.0,0.0,0.0,0.0,0.0,0.0,0.0,0.0,0.0,0.0,0.0,0.0,0.0,0.0,0.0,0.0,0.0,0.0,0.0,0.0,0.0,0.0,0.0,-5.9567,0.0,0.0,0.0,0.0,0.0,0.0,0.0,0.0,0.0,0.0,0.0,0.0,0.0,0.0,0.0,0.0,0.0,0.0,0.0,0.0,0.0,0.0,0.0,0.0,0.0,0.0,0.0,0.0,0.0,0.0,0.0,0.0,0.0,0.0,0.0,0.0,0.0,0.0,0.0,0.0,0.0,0.0,0.0,0.0,0.0,0.0,0.0,0.0,0.0,0.0,0.0,0.0,0.0,0.0,0.0,0.0,0.0,0.0,0.0,-5.3309,-5.4417,-5.5446,-5.5789,-5.5238,-5.456,-5.3252,0.0,0.0,0.0,0.0,0.0,0.0,0.0,0.0,0.0,0.0,0.0,0.0,0.0,0.0,0.0,0.0,0.0,0.0,0.0,0.0,0.0,0.0,0.0,0.0,0.0,0.0,0.0,0.0,0.0,0.0,0.0,0.0,0.0,0.0,0.0,0.0,0.0,0.0,0.0,0.0,0.0,0.0,0.0,0.0,0.0,0.0,0.0,0.0,0.0,0.0,0.0,0.0,0.0,0.0,0.0,0.0,0.0,0.0,0.0,0.0,0.0,0.0,0.0,0.0,0.0,0.0,0.0,0.0,0.0,0.0,0.0,0.0,0.0,0.0,0.0,0.0,0.0,0.0,0.0,0.0,0.0,0.0,0.0,0.0,0.0,0.0,0.0,0.0,0.0,0.0,0.0,0.0,0.0,0.0,0.0,0.0,0.0,0.0,0.0,0.0,0.0,0.0,0.0,0.0,0.0,0.0,0.0,-5.2062,-5.3784,-5.4368,-5.5684,-5.5906,-5.4883,-5.4729,-5.3791,-5.179,0.0,0.0,0.0,0.0,0.0,0.0,0.0,0.0,0.0,0.0,0.0,0.0,0.0,0.0,0.0,0.0,0.0,0.0,0.0,0.0,0.0,0.0,0.0,0.0,0.0,0.0,0.0,0.0,0.0,0.0,0.0,0.0,0.0,0.0,0.0,0.0,0.0,0.0,-5.518,-5.633,0.0,0.0,0.0,0.0,0.0,0.0,0.0,0.0,-6.0818,0.0,0.0,0.0,0.0,0.0,0.0,0.0,0.0,0.0,0.0,0.0,0.0,0.0,0.0,0.0,0.0,0.0,0.0,0.0,0.0,0.0,0.0,0.0,0.0,0.0,0.0,0.0,0.0,0.0,0.0,0.0,0.0,0.0,0.0,0.0,0.0,0.0,0.0,0.0,0.0,0.0,0.0,0.0,0.0,0.0,0.0,0.0,0.0,0.0,0.0,0.0,0.0,0.0,0.0,0.0,0.0,-4.8387,-5.159,-5.3543,-5.4053,-5.5572,-5.6135,-5.5561,-5.5007,-5.3775,-5.1821,0.0,0.0,0.0,0.0,0.0,0.0,0.0,0.0,0.0,0.0,0.0,0.0,0.0,0.0,0.0,0.0,0.0,0.0,0.0,0.0,0.0,0.0,0.0,0.0,0.0,0.0,0.0,0.0,0.0,0.0,0.0,0.0,0.0,0.0,0.0,0.0,0.0,0.0,0.0,-5.6796,-5.7497,0.0,0.0,0.0,0.0,0.0,0.0,0.0,0.0,-6.1419,0.0,0.0,0.0,0.0,0.0,0.0,0.0,0.0,0.0,0.0,0.0,0.0,0.0,0.0,0.0,0.0,0.0,0.0,0.0,0.0,0.0,0.0,0.0,0.0,0.0,0.0,0.0,0.0,0.0,0.0,0.0,0.0,0.0,0.0,0.0,0.0,0.0,0.0,0.0,0.0,0.0,0.0,0.0,0.0,0.0,0.0,0.0,0.0,0.0,0.0,0.0,0.0,0.0,0.0,0.0,-4.8132,-5.1317,-5.3189,-5.3607,-5.528,-5.5819,-5.5018,-5.4452,-5.3207,0.0,0.0,0.0,0.0,0.0,0.0,0.0,0.0,0.0,0.0,0.0,0.0,0.0,0.0,0.0,0.0,0.0,0.0,0.0,0.0,0.0,0.0,0.0,0.0,0.0,0.0,0.0,0.0,0.0,0.0,0.0,0.0,0.0,0.0,0.0,0.0,0.0,0.0,0.0,0.0,-5.7443,-5.8101,-5.8789,0.0,0.0,0.0,0.0,0.0,0.0,-6.1804,-6.2033,0.0,0.0,0.0,0.0,0.0,0.0,0.0,0.0,0.0,0.0,0.0,0.0,0.0,0.0,0.0,0.0,0.0,0.0,0.0,0.0,0.0,0.0,0.0,0.0,0.0,0.0,0.0,0.0,0.0,0.0,0.0,0.0,0.0,0.0,0.0,0.0,0.0,0.0,0.0,0.0,0.0,0.0,0.0,0.0,0.0,0.0,0.0,0.0,0.0,0.0,0.0,0.0,0.0,0.0,0.0,-4.7807,-5.0881,-5.2798,-5.3234,-5.4786,-5.5238,-5.4339,-5.3745,-5.2576,0.0,0.0,0.0,0.0,0.0,0.0,0.0,0.0,0.0,0.0,0.0,0.0,0.0,0.0,0.0,0.0,0.0,0.0,0.0,0.0,0.0,0.0,0.0,0.0,0.0,0.0,0.0,0.0,0.0,0.0,0.0,0.0,0.0,0.0,0.0,0.0,0.0,0.0,0.0,0.0,0.0,-5.8702,-5.9351,-6.0008,0.0,0.0,0.0,0.0,-6.2005,-6.2326,0.0,0.0,0.0,0.0,0.0,0.0,0.0,0.0,0.0,0.0,0.0,0.0,0.0,0.0,0.0,0.0,0.0,0.0,0.0,0.0,0.0,0.0,0.0,0.0,0.0,0.0,0.0,0.0,0.0,0.0,0.0,0.0,0.0,0.0,0.0,0.0,0.0,0.0,0.0,0.0,0.0,0.0,0.0,0.0,0.0,0.0,0.0,0.0,0.0,0.0,0.0,0.0,0.0,0.0,0.0,0.0,-4.7538,-5.0278,-5.2223,-5.3155,-5.3972,-5.4394,-5.4261,-5.3132,-5.1906,0.0,0.0,0.0,0.0,0.0,0.0,0.0,0.0,0.0,0.0,0.0,0.0,0.0,0.0,0.0,0.0,0.0,0.0,0.0,0.0,0.0,0.0,0.0,0.0,0.0,0.0,0.0,0.0,0.0,0.0,0.0,0.0,0.0,0.0,0.0,0.0,0.0,0.0,0.0,0.0,0.0,-5.8961,-5.9794,-6.0384,-6.0921,0.0,0.0,-6.1859,-6.229,-6.2688,0.0,0.0,0.0,0.0,0.0,0.0,0.0,0.0,0.0,0.0,0.0,0.0,0.0,0.0,0.0,0.0,0.0,0.0,0.0,0.0,0.0,0.0,0.0,0.0,0.0,0.0,0.0,0.0,0.0,0.0,0.0,0.0,0.0,0.0,0.0,0.0,0.0,0.0,0.0,0.0,0.0,0.0,0.0,0.0,0.0,0.0,0.0,0.0,0.0,0.0,0.0,0.0,0.0,0.0,0.0,-4.6432,-4.6889,-4.96,-5.1362,-5.2019,-5.3083,-5.3552,-5.3366,-5.2307,-5.1327,0.0,0.0,0.0,0.0,0.0,0.0,0.0,0.0,0.0,0.0,0.0,0.0,0.0,0.0,0.0,0.0,0.0,0.0,0.0,0.0,0.0,0.0,0.0,0.0,0.0,0.0,0.0,0.0,0.0,0.0,0.0,0.0,0.0,0.0,0.0,0.0,0.0,0.0,0.0,0.0,0.0,0.0,-6.0156,-6.0843,0.0,0.0,0.0,-6.2343,-6.2775,0.0,0.0,0.0,0.0,0.0,0.0,0.0,0.0,0.0,0.0,0.0,0.0,0.0,0.0,0.0,0.0,0.0,0.0,0.0,0.0,0.0,0.0,0.0,0.0,0.0,0.0,0.0,0.0,0.0,0.0,0.0,0.0,0.0,0.0,0.0,0.0,0.0,0.0,0.0,0.0,0.0,0.0,0.0,0.0,0.0,0.0,0.0,0.0,0.0,0.0,0.0,0.0,0.0,0.0,0.0,0.0,0.0,-4.6363,-4.8886,-5.0496,-5.1002,-5.2146,-5.2662,-5.2517,-5.1455,0.0,0.0,0.0,0.0,0.0,0.0,0.0,0.0,0.0,0.0,0.0,0.0,0.0,0.0,0.0,0.0,0.0,0.0,0.0,0.0,0.0,0.0,0.0,0.0,0.0,0.0,0.0,-4.9739,0.0,0.0,0.0,0.0,0.0,0.0,0.0,0.0,0.0,0.0,0.0,0.0,0.0,0.0,-5.9057,-6.0337,-6.1189,-6.1841,0.0,0.0,-6.2765,-6.3021,-6.255,-6.215,0.0,0.0,0.0,0.0,0.0,0.0,0.0,0.0,0.0,0.0,0.0,0.0,0.0,0.0,0.0,0.0,0.0,0.0,0.0,0.0,0.0,0.0,0.0,0.0,0.0,0.0,0.0,0.0,0.0,0.0,0.0,0.0,0.0,0.0,0.0,0.0,0.0,0.0,0.0,0.0,0.0,0.0,0.0,0.0,0.0,0.0,0.0,0.0,0.0,0.0,0.0,0.0,0.0,0.0,-4.5226,-4.6314,-4.8098,-4.9552,-5.0691,-5.1229,-5.175,-5.2172,-5.0607,-4.9792,0.0,0.0,0.0,0.0,0.0,0.0,0.0,0.0,0.0,0.0,0.0,0.0,0.0,0.0,0.0,0.0,0.0,0.0,0.0,0.0,0.0,0.0,0.0,0.0,0.0,0.0,0.0,0.0,0.0,0.0,0.0,0.0,0.0,0.0,0.0,0.0,0.0,0.0,0.0,0.0,0.0,-5.9352,-6.0203,-6.1371,-6.2344,0.0,-6.2854,-6.2784,-6.2729,-6.2479,-6.1958,-6.109,0.0,0.0,0.0,0.0,0.0,0.0,0.0,0.0,0.0,0.0,0.0,0.0,0.0,0.0,0.0,0.0,0.0,0.0,0.0,0.0,0.0,0.0,0.0,0.0,0.0,0.0,0.0,0.0,0.0,0.0,0.0,0.0,0.0,0.0,0.0,0.0,0.0,0.0,0.0,0.0,0.0,0.0,0.0,0.0,0.0,0.0,0.0,0.0,0.0,0.0,0.0,0.0,0.0,-4.447,-4.5783,-4.7179,-4.8475,-4.98,-5.0193,-5.0665,-5.1336,-5.0077,-4.9479,0.0,0.0,0.0,0.0,0.0,0.0,0.0,0.0,0.0,0.0,0.0,0.0,0.0,0.0,0.0,0.0,0.0,0.0,0.0,0.0,0.0,0.0,0.0,0.0,0.0,0.0,0.0,0.0,-4.9589,-4.9843,-4.9915,0.0,0.0,0.0,0.0,0.0,0.0,0.0,0.0,0.0,0.0,-5.8531,-5.9637,-6.0485,0.0,0.0,-6.2287,-6.2528,-6.2295,-6.1631,-6.1117,-6.1112,-6.0836,0.0,0.0,0.0,0.0,0.0,0.0,0.0,0.0,0.0,0.0,0.0,0.0,0.0,0.0,0.0,0.0,0.0,0.0,0.0,0.0,0.0,0.0,0.0,0.0,0.0,0.0,0.0,0.0,0.0,0.0,0.0,0.0,0.0,0.0,0.0,0.0,0.0,0.0,0.0,0.0,0.0,0.0,0.0,0.0,0.0,0.0,0.0,0.0,0.0,0.0,0.0,0.0,-4.3815,-4.5387,-4.6426,-4.7575,-4.893,-4.9424,-4.996,-5.0397,-4.9768,-4.9418,0.0,0.0,0.0,0.0,0.0,0.0,0.0,0.0,0.0,0.0,0.0,0.0,0.0,0.0,0.0,0.0,0.0,0.0,0.0,0.0,0.0,0.0,0.0,0.0,0.0,0.0,0.0,0.0,-4.9013,-4.9235,-4.9889,0.0,0.0,0.0,0.0,0.0,0.0,0.0,0.0,0.0,0.0,-5.8125,-5.9227,-6.006,-6.0738,-6.1204,-6.1782,-6.2052,-6.1834,-6.1007,-6.0563,-6.1018,0.0,0.0,0.0,0.0,0.0,0.0,0.0,0.0,0.0,0.0,0.0,0.0,0.0,0.0,0.0,0.0,0.0,0.0,0.0,0.0,0.0,0.0,0.0,0.0,0.0,0.0,0.0,-4.6535,0.0,0.0,-4.3353,0.0,0.0,0.0,0.0,0.0,0.0,0.0,0.0,0.0,0.0,0.0,0.0,0.0,0.0,0.0,0.0,0.0,0.0,0.0,0.0,0.0,0.0,-4.3321,-4.5075,-4.5923,-4.6905,-4.8137,-4.9128,-4.9683,-4.9752,-4.9823,-4.956,-4.8921,0.0,0.0,0.0,0.0,0.0,0.0,0.0,0.0,0.0,0.0,0.0,0.0,0.0,0.0,0.0,0.0,0.0,0.0,0.0,0.0,0.0,0.0,0.0,0.0,0.0,0.0,-4.9259,-4.9072,-4.9222,0.0,0.0,0.0,0.0,0.0,0.0,0.0,0.0,0.0,-5.5897,-5.7299,-5.8391,-5.9022,-6.0207,-6.1148,-6.1577,-6.1449,-6.1321,-6.1311,-6.0855,-6.0518,0.0,0.0,0.0,0.0,0.0,0.0,0.0,0.0,0.0,0.0,0.0,0.0,0.0,0.0,0.0,0.0,0.0,0.0,0.0,0.0,0.0,0.0,0.0,0.0,0.0,0.0,0.0,-4.6727,-4.6506,0.0,0.0,0.0,0.0,0.0,0.0,0.0,0.0,0.0,0.0,0.0,-4.36,-4.3519,0.0,0.0,0.0,0.0,0.0,0.0,0.0,0.0,0.0,0.0,0.0,0.0,-4.2719,-4.4979,-4.5352,-4.6345,-4.8035,-4.8481,-4.8966,-4.9654,-4.9299,-4.8843,-4.8268,0.0,0.0,0.0,0.0,0.0,0.0,0.0,0.0,0.0,0.0,0.0,0.0,0.0,0.0,0.0,0.0,0.0,0.0,0.0,0.0,0.0,0.0,0.0,0.0,0.0,-4.9159,0.0,0.0,0.0,0.0,0.0,0.0,0.0,0.0,0.0,0.0,0.0,-5.4743,-5.6177,-5.7201,-5.8032,-5.8618,-5.9271,-5.9847,0.0,0.0,0.0,0.0,0.0,0.0,0.0,0.0,0.0,0.0,0.0,0.0,0.0,0.0,-6.2729,-6.2181,-6.2527,-6.3053,-6.3437,0.0,0.0,0.0,0.0,0.0,0.0,0.0,0.0,0.0,0.0,0.0,0.0,0.0,0.0,-4.68,0.0,-4.5638,0.0,0.0,0.0,0.0,0.0,0.0,0.0,0.0,-4.4408,-4.4567,-4.4682,-4.4572,-4.4283,0.0,-4.3273,-4.2433,0.0,0.0,0.0,0.0,0.0,0.0,0.0,0.0,-4.2181,-4.4543,-4.4957,-4.5834,-4.7322,-4.7864,-4.8431,-4.9114,-4.8635,-4.8313,-4.8283,-4.7137,-4.6646,0.0,0.0,0.0,0.0,0.0,0.0,0.0,0.0,0.0,0.0,0.0,0.0,0.0,0.0,0.0,0.0,0.0,0.0,0.0,0.0,0.0,0.0,0.0,-4.9726,0.0,0.0,0.0,0.0,0.0,0.0,0.0,0.0,0.0,-5.3011,-5.3868,-5.4945,-5.6597,-5.737,-5.7987,-5.8598,0.0,0.0,0.0,0.0,0.0,0.0,0.0,-6.0842,-6.0962,-6.1022,-6.1231,-6.1656,-6.2488,-6.3132,-6.3176,0.0,0.0,-6.3286,-6.3579,-6.4079,-6.4429,-6.4724,-6.505,-6.5387,-6.5757,-6.6187,0.0,0.0,0.0,0.0,0.0,0.0,0.0,0.0,-4.7108,-4.6903,0.0,-4.6208,0.0,0.0,0.0,0.0,-4.3656,-4.4464,0.0,0.0,-4.5983,-4.631,-4.6645,-4.6403,-4.5845,-4.5038,-4.4456,-4.3595,-4.2424,-4.0713,0.0,0.0,0.0,0.0,0.0,0.0,-4.1727,-4.3742,-4.4625,-4.534,-4.6048,-4.735,-4.805,-4.81,-4.7831,-4.808,-4.8771,-4.757,-4.6937,-4.7027,-4.6299,0.0,0.0,0.0,0.0,0.0,0.0,0.0,0.0,0.0,0.0,0.0,0.0,0.0,0.0,0.0,0.0,0.0,0.0,0.0,0.0,-5.0496,0.0,0.0,0.0,0.0,0.0,0.0,0.0,0.0,0.0,0.0,-5.318,-5.3753,-5.4912,-5.7139,0.0,0.0,0.0,0.0,-5.9715,-6.0053,-6.0266,-6.0493,-6.0757,-6.08,-6.088,-6.106,0.0,0.0,-6.2575,-6.3514,-6.414,-6.4155,-6.4866,-6.5163,-6.442,-6.436,-6.461,-6.5356,-6.622,-6.7017,-6.784,-6.8499,-6.915,-4.9299,0.0,0.0,0.0,0.0,-4.8701,-4.8701,-4.8701,-4.8641,-4.8462,-4.8193,-4.7434,0.0,0.0,0.0,0.0,0.0,0.0,-4.5884,-4.6705,-4.6781,-4.6771,-4.6687,-4.6639,-4.6264,-4.5623,-4.4872,-4.4228,-4.3601,-4.2107,-4.0729,-3.9514,0.0,0.0,0.0,0.0,-4.144,-4.3363,-4.3746,-4.4579,-4.597,-4.6417,-4.7101,-4.805,-4.7831,-4.7925,-4.8311,-4.7392,-4.706,-4.7395,-4.6475,0.0,0.0,0.0,0.0,0.0,0.0,0.0,0.0,0.0,0.0,0.0,0.0,0.0,0.0,0.0,0.0,0.0,0.0,0.0,-5.0509,-5.0934,-5.0983,0.0,0.0,0.0,0.0,0.0,0.0,0.0,0.0,0.0,-5.5035,-5.5321,-5.6018,0.0,0.0,-5.8646,-5.9197,-5.9559,-5.9877,-6.0237,-6.048,0.0,-6.0834,-6.0971,-6.1079,-6.1283,-6.1887,-6.2632,-6.3539,-6.4481,-6.5095,-6.5106,-6.5831,-6.649,-6.6891,-6.6949,-6.7032,-6.7329,-6.8023,-6.8674,-6.8945,-6.9223,-6.9412,-5.0391,-4.9987,-4.9539,-4.9299,-4.9299,-4.9299,-4.9299,-4.9299,-4.9299,-4.9164,-4.8847,-4.8249,-4.7768,-4.7296,-4.6596,0.0,0.0,0.0,-4.6733,-4.7458,-4.7539,-4.7572,-4.7557,-4.7474,-4.7052,-4.6384,-4.5676,-4.4974,-4.4345,-4.3244,-4.1862,-4.0234,0.0,0.0,-4.0298,-4.0455,-4.1271,-4.282,-4.3115,-4.3785,-4.4942,-4.5403,-4.6183,-4.7305,-4.7104,-4.7142,-4.7546,-4.708,-4.6899,-4.7061,-4.6331,-4.588,0.0,0.0,0.0,0.0,0.0,0.0,0.0,0.0,0.0,0.0,0.0,-4.5092,-4.5294,0.0,0.0,0.0,-4.9054,-5.0169,-5.1005,-5.1429,0.0,0.0,0.0,0.0,0.0,0.0,0.0,-5.3309,-5.4144,-5.5083,-5.6025,-5.6593,-5.7235,-5.8076,-5.8542,-5.8968,-5.9452,0.0,-6.0049,-6.0412,-6.061,-6.0804,-6.0951,-6.136,-6.1832,-6.2393,-6.3239,-6.3955,-6.4544,-6.5405,-6.5991,-6.6069,-6.6443,-6.7074,-6.7927,-6.8379,-6.8629,-6.8626,-6.9316,-6.9884,-6.9912,-7.0195,-7.0425,-5.1229,-5.1109,-4.9927,-4.9479,-4.9464,-4.9464,-4.9464,-4.9464,-4.9464,-4.9328,-4.9025,-4.8691,-4.8385,-4.8077,-4.7579,0.0,-4.6807,-4.7239,-4.763,-4.8087,-4.8267,-4.8505,-4.8845,-4.8581,-4.8062,-4.7227,-4.6684,-4.581,-4.4746,-4.4105,-4.2968,-4.1359,-4.0726,-4.0529,-4.0764,-4.0777,-4.1214,-4.2079,-4.2588,-4.3032,-4.3399,-4.4502,-4.5451,-4.6188,-4.5853,-4.6001,-4.6732,-4.6562,-4.6416,-4.6264,-4.5992,-4.5652,-4.5306,0.0,0.0,0.0,0.0,0.0,0.0,0.0,0.0,0.0,0.0,0.0,0.0,0.0,0.0,-4.8216,-5.0113,0.0,-5.1459,-5.202,0.0,0.0,0.0,-5.2663,-5.2473,-5.2956,-5.3513,-5.3976,0.0,0.0,-5.6585,-5.7765,-5.8637,-5.8851,-5.9022,-5.929,-5.9679,-6.0051,-6.0346,-6.0731,-6.0914,-6.1095,-6.1457,-6.2108,-6.299,-6.3959,-6.489,-6.5363,-6.5585,-6.6186,-6.6755,-6.6753,-6.6795,-6.7077,-6.7941,-6.8765,-6.941,-6.9479,-7.0203,-7.0799,-7.0801,-7.1343,-7.1836,-5.1229,-5.1199,-5.0885,-5.0765,-5.075,-5.075,-5.075,-5.075,-5.075,-5.0596,-5.0317,-4.9548,-4.867,-4.7575,-4.7248,-4.73,-4.7612,-4.7578,-4.7968,-4.8666,-4.8716,-4.8702,-4.8595,-4.8531,-4.8173,-4.7577,-4.6777,-4.6151,-4.5619,-4.4416,-4.3386,-4.2595,-4.1959,-4.1263,-4.0533,-4.0471,-4.0907,-4.1782,-4.1941,-4.2482,-4.3372,-4.4302,-4.508,-4.5676,-4.5517,-4.5751,-4.6425,-4.587,-4.5697,-4.6051,-4.5529,-4.5181,-4.5069,-4.4764,0.0,0.0,0.0,0.0,0.0,0.0,0.0,0.0,0.0,-4.6343,-4.6676,0.0,-4.8232,0.0,-5.0728,-5.1712,-5.204,-5.2501,0.0,0.0,-5.3688,-5.4094,-5.4448,-5.5049,-5.5567,-5.6035,-5.7264,-5.8276,-5.8804,-5.9953,-6.0872,-6.1187,-6.0227,-5.9631,-5.996,-6.079,-6.1431,-6.1728,-6.2386,-6.2962,-6.3061,-6.3433,-6.402,-6.4943,-6.5324,-6.5706,-6.6365,-6.6626,-6.6811,-6.6807,-6.6812,-6.7149,-6.7943,-6.8797,-6.9605,-7.0271,-7.1093,-7.1679,-7.163,-7.1831,-7.1982,-5.1229,-5.1229,-5.1229,-5.1229,-5.1229,-5.1229,-5.1229,-5.1182,-5.1058,-5.0917,-5.073,-4.9978,-4.9116,-4.822,-4.7998,-4.7975,-4.8141,-4.8169,-4.8368,-4.8731,-4.8745,-4.8581,-4.833,-4.8193,-4.7903,-4.7494,-4.6905,-4.6411,-4.5956,-4.4674,-4.3691,-4.2984,-4.2286,-4.1525,-4.0827,-4.0814,-4.1034,-4.1498,-4.1647,-4.204,-4.277,-4.3404,-4.3854,-4.4083,-4.4266,-4.4462,-4.4824,-4.4806,-4.4847,-4.4951,-4.498,-4.4853,-4.4589,-4.4611,-4.461,0.0,0.0,0.0,0.0,0.0,0.0,0.0,0.0,0.0,0.0,0.0,-4.9175,-5.0396,-5.1467,-5.2387,-5.3128,-5.3598,-5.4211,-5.5085,-5.5522,-5.6024,-5.6605,-5.7175,-5.7648,-5.8075,-5.9017,-5.9751,-6.0178,-6.1004,-6.1671,-6.2051,-6.1434,-6.1029,-6.1317,-6.1936,-6.2426,-6.2687,-6.3248,-6.3855,-6.4297,-6.4571,-6.4966,-6.5791,-6.6037,-6.6264,-6.671,-6.6798,-6.6807,-6.6815,-6.68,-6.708,-6.7931,-6.8471,-6.9199,-7.0387,-7.1086,-7.1511,-7.1865,-7.1933,-7.1885,-5.1229,-5.1229,-5.1229,-5.1182,-5.112,-5.1152,-5.1167,-5.1105,-5.0902,-5.076,-5.0618,-4.996,-4.9502,-4.9157,-4.8909,-4.8645,-4.8395,-4.8595,-4.8595,-4.8344,-4.8344,-4.8243,-4.7976,-4.7736,-4.7494,-4.725,-4.6991,-4.6561,-4.599,-4.4918,-4.3919,-4.3054,-4.2219,-4.1626,-4.1311,-4.1311,-4.1311,-4.1311,-4.1498,-4.1782,-4.2079,-4.2271,-4.2342,-4.2397,-4.2768,-4.2922,-4.2927,-4.3705,-4.4013,-4.3749,-4.4474,-4.4664,-4.4194,-4.4481,-4.4795,0.0,-4.5403,0.0,0.0,0.0,0.0,0.0,0.0,0.0,0.0,-4.9116,-5.0145,-5.1557,-5.2387,-5.3322,-5.4393,-5.5026,-5.5816,-5.6908,-5.7409,-5.7872,-5.8472,-5.8974,-5.9411,-5.9794,-6.0384,-6.0877,-6.1192,-6.1653,-6.2108,-6.2538,-6.2829,-6.3028,-6.3207,-6.3286,-6.3393,-6.3629,-6.3912,-6.4584,-6.5289,-6.5534,-6.5806,-6.6516,-6.6689,-6.6811,-6.6798,-6.6807,-6.6798,-6.68,-6.6807,-6.707,-6.7802,-6.8007,-6.8611,-6.996,-7.0467,-7.1,-7.1716,-7.1885,-7.1797,-5.1229,-5.1229,-5.1229,-5.1073,-5.0855,-5.087,-5.087,-5.0855,-5.0793,-5.0475,-4.9912,-4.9537,-4.9093,-4.8645,-4.838,-4.8078,-4.7852,-4.7699,-4.7596,-4.7545,-4.7545,-4.7494,-4.7442,-4.7405,-4.725,-4.6991,-4.6939,-4.661,-4.599,-4.5306,-4.4418,-4.3396,-4.2763,-4.2047,-4.1337,0.0,0.0,0.0,-4.1361,-4.1597,-4.2065,-4.1661,-4.1766,-4.2369,-4.2155,0.0,-4.2885,-4.3099,-4.339,-4.3691,-4.3998,0.0,0.0,0.0,0.0,0.0,0.0,0.0,0.0,0.0,0.0,0.0,-4.9376,-4.9687,-4.9319,-5.0594,-5.19,-5.299,-5.379,-5.4633,-5.5603,-5.6281,-5.6839,-5.736,-5.795,-5.8472,-5.888,-5.9295,-5.9665,-6.0096,-6.1071,-6.1896,-6.2351,-6.3288,-6.403,-6.4299,-6.4696,-6.4942,-6.5085,-6.4635,-6.4388,-6.4552,-6.5265,-6.6003,-6.6386,-6.6413,-6.6459,-6.6748,-6.6798,-6.6798,-6.6809,-6.6812,-6.68,-6.6807,-6.6811,-6.6839,-6.7108,-6.7655,-6.8172,-6.8559,-6.9642,-7.0795,-7.1653,-7.1813,-7.1775,-5.1105,-5.1026,-5.1011,-5.0885,0.0,-5.0662,-5.0489,-5.025,-5.0394,-5.012,-4.9502,-4.9044,-4.8695,-4.828,-4.8041,-4.775,-4.7507,-4.7353,-4.7301,-4.7301,-4.7301,-4.725,-4.7095,-4.7095,-4.6873,-4.6442,-4.6442,-4.6231,-4.5781,-4.5062,-4.4267,-4.3516,-4.2769,-4.2051,-4.1337,-4.1311,-4.1311,-4.1311,-4.1311,-4.156,-4.2065,-4.1786,-4.1697,-4.1772,-4.1768,0.0,0.0,0.0,0.0,0.0,0.0,0.0,0.0,-4.5714,0.0,-4.6573,-4.6911,-4.7296,-4.7723,-4.8402,-4.9015,-4.9582,-5.0646,-5.1173,-5.0918,-5.2347,-5.3549,-5.4259,-5.4951,-5.5826,-5.6833,-5.7552,-5.8255,-5.895,-5.9496,-5.9967,-6.042,-6.0782,-6.1131,-6.1569,-6.235,-6.3037,-6.3341,-6.4066,-6.4687,-6.5004,-6.5283,-6.5523,-6.5691,-6.5492,-6.5376,-6.5586,-6.6101,-6.6562,-6.6694,-6.6746,-6.6759,-6.6814,-6.6814,-6.6807,-6.6815,-6.6798,-6.68,-6.6811,-6.6799,-6.6829,-6.6914,-6.722,-6.7568,-6.7985,-6.8693,-6.9677,-7.081,-7.1433,-7.1725,-5.0964,-5.0728,-5.0775,-5.06,-5.0357,-5.0357,-5.0038,-4.9522,0.0,0.0,0.0,-4.8645,-4.8243,-4.7925,-4.7699,-4.7456,-4.725,-4.7133,-4.7081,-4.7081,-4.7029,-4.6887,-4.6665,-4.6678,-4.6389,-4.5954,-4.5914,-4.5808,-4.5529,-4.4666,-4.4006,-4.34,-4.2615,-4.1924,-4.135,-4.1361,-4.1361,-4.1361,-4.1361,-4.1647,-4.2128,-4.207,-4.1756,-4.1253,-4.1626,-4.1543,-4.1067,-4.1851,-4.2546,-4.3027,-4.4414,-4.5202,-4.5378,-4.6242,-4.6834,-4.6973,-4.7465,-4.8007,-4.844,-4.9088,-4.9833,-5.0667,-5.1965,-5.2692,-5.2655,-5.3848,-5.4839,-5.5336,-5.6079,-5.6969,-5.8061,-5.8806,-5.9624,-6.0582,-6.1004,-6.1408,-6.1942,-6.2291,-6.2537,-6.3051,-6.346,-6.3891,-6.4106,-6.4483,-6.4849,-6.5104,-6.539,-6.563,-6.5839,-6.5944,-6.6098,-6.6345,-6.6509,-6.6606,-6.6687,-6.6755,-6.681,-6.6808,-6.6807,-6.6795,-6.6798,-6.6798,-6.6802,-6.6832,-6.6808,-6.6835,-6.6855,-6.6859,-6.7016,-6.7637,-6.7882,-6.8368,-6.9628,-7.0732,-7.1416,-5.0728,-5.0548,-5.0548,-5.0231,-4.9829,-4.9829,-4.9389,-4.8681,-4.8945,-4.8795,-4.828,-4.8179,-4.7875,-4.7391,-4.7133,-4.6991,-4.6939,-4.6442,-4.6179,-4.6179,-4.5967,-4.5808,-4.5755,-4.5768,-4.5768,-4.5649,-4.5649,-4.5502,-4.5221,-4.4626,-4.3888,-4.3062,-4.2499,-4.1886,-4.1363,-4.1498,-4.1647,-4.1647,-4.1647,-4.1908,-4.2387,-4.1925,-4.1746,-4.1869,-4.1818,-4.1977,-4.2245,-4.3127,-4.3831,-4.4339,-4.5316,-4.6082,-4.6685,-4.716,-4.7711,-4.8266,-4.8419,-4.8671,-4.915,-4.9774,-5.08,-5.2285,-5.3582,-5.426,-5.3999,-5.4575,-5.5456,-5.644,-5.721,-5.8096,-5.9172,-5.9765,-6.034,-6.0938,-6.1415,-6.184,-6.215,-6.25,-6.288,-6.3284,-6.3676,-6.4021,-6.4326,-6.4688,-6.5025,-6.5255,-6.5523,-6.5801,-6.6112,-6.6245,-6.632,-6.6485,-6.6575,-6.6618,-6.6693,-6.6767,-6.6791,-6.6808,-6.6807,-6.6798,-6.6798,-6.6805,-6.6813,-6.6881,-6.6872,-6.6855,-6.6844,-6.682,-6.6856,-6.7033,-6.7401,-6.7982,-6.8356,-6.95,-7.0732,-5.0423,-5.0086,-5.0086,-4.9732,-4.9242,-4.898,-4.8531,-4.8092,-4.8055,-4.8004,-4.7889,-4.7736,-4.7442,-4.7095,-4.6939,-4.6717,-4.6403,-4.6126,-4.5914,-4.5755,-4.5649,-4.5595,-4.5595,-4.5595,-4.5502,-4.5368,-4.505,-4.4745,-4.4439,-4.3901,-4.3271,-4.2552,-4.2143,-4.181,-4.1574,-4.1796,-4.1993,-4.2155,-4.1993,-4.2092,-4.2449,-4.2229,-4.2125,-4.2194,-4.2268,-4.2425,-4.2721,-4.3501,-4.4108,-4.4577,-4.5842,-4.67,-4.6989,-4.7711,-4.8281,-4.8573,-4.8604,-4.8939,-4.9764,-5.0929,-5.2129,-5.3359,-5.4321,-5.5121,-5.5686,-5.6157,-5.6749,-5.7484,-5.8221,-5.8919,-5.9613,-6.0195,-6.0757,-6.1164,-6.1626,-6.2014,-6.231,-6.2654,-6.3026,-6.3377,-6.3746,-6.4106,-6.4425,-6.4779,-6.5106,-6.536,-6.5684,-6.6024,-6.6264,-6.6357,-6.6422,-6.6542,-6.662,-6.6663,-6.6739,-6.6787,-6.6805,-6.6804,-6.6812,-6.6798,-6.6802,-6.6809,-6.682,-6.689,-6.6875,-6.6832,-6.6811,-6.6756,-6.6724,-6.6687,-6.6892,-6.7281,-6.7779,-6.9037,-7.0389,-4.999,-4.9537,-4.9424,-4.9143,-4.8595,-4.8142,-4.7736,-4.7507,-4.7236,-4.7184,-4.7288,-4.7236,-4.7043,-4.6717,-4.6717,-4.6403,-4.5967,-4.5861,-4.5622,-4.5342,-4.5236,-4.5169,-4.4997,-4.4997,-4.4891,-4.4691,-4.4204,-4.3888,-4.3611,-4.3101,-4.2578,-4.2092,-4.1821,-4.1746,-4.1796,-4.2029,-4.2289,-4.2462,-4.2338,-4.2387,-4.2595,-4.2609,-4.2608,-4.2629,-4.281,-4.3041,-4.3352,-4.3932,-4.4501,-4.5076,-4.6359,-4.7149,-4.7262,-4.8079,-4.8604,-4.8604,-4.8604,-4.9078,-5.0242,-5.1611,-5.2885,-5.3802,-5.4407,-5.5243,-5.6366,-5.6915,-5.7507,-5.8246,-5.8927,-5.9518,-5.9893,-6.0415,-6.095,-6.1357,-6.1766,-6.215,-6.2441,-6.2787,-6.3147,-6.347,-6.3851,-6.4228,-6.4521,-6.4832,-6.5172,-6.5532,-6.5876,-6.6134,-6.6293,-6.6426,-6.6507,-6.6595,-6.6655,-6.6707,-6.6795,-6.6798,-6.6798,-6.6815,-6.6798,-6.6805,-6.6811,-6.6815,-6.6826,-6.6874,-6.6834,-6.6805,-6.6798,-6.6748,-6.6693,-6.6616,-6.6672,-6.6876,-6.7579,-6.8528,-6.9827,-4.9438,-4.893,-4.8745,-4.8294,-4.7815,-4.7507,-4.7236,-4.6911,-4.6585,-4.6376,-4.6216,-4.6717,-4.6585,-4.6126,-4.6046,-4.5847,-4.5595,-4.5381,-4.497,-4.4441,-4.415,-4.3782,-4.3376,-4.331,-4.3245,-4.3271,-4.3193,-4.3154,-4.3062,-4.2513,-4.2104,-4.1792,-4.171,-4.1845,-4.2079,-4.2338,-4.2449,-4.2511,-4.2706,-4.2838,-4.2852,-4.2887,-4.3005,-4.3191,-4.3388,-4.3895,-4.4542,-4.5118,-4.5677,-4.6373,-4.7071,-4.7646,-4.7916,-4.8339,-4.8604,-4.8604,-4.862,-4.9135,-5.0227,-5.1167,-5.2164,-5.3028,-5.3691,-5.4338,-5.5035,-5.56,-5.6673,-5.8186,-5.9165,-5.9628,-6.0199,-6.0498,-6.0838,-6.1286,-6.1742,-6.2283,-6.2497,-6.2929,-6.3331,-6.3732,-6.3981,-6.429,-6.4633,-6.4991,-6.5333,-6.5697,-6.5947,-6.6165,-6.6358,-6.6446,-6.6542,-6.6588,-6.6655,-6.6712,-6.6795,-6.6801,-6.6801,-6.6795,-6.6805,-6.6811,-6.6797,-6.6845,-6.6892,-6.6875,-6.6849,-6.6811,-6.6778,-6.6728,-6.6682,-6.6606,-6.6633,-6.6803,-6.7409,-6.7832,-6.8558,-4.8781,-4.8395,-4.8142,-4.7699,-4.7198,-4.6925,-4.6408,-4.5849,-4.5535,-4.5138,-4.4791,-4.505,-4.5173,-4.5194,-4.4925,-4.4622,-4.4374,-4.4269,-4.398,-4.3533,-4.3428,-4.3245,-4.3036,-4.3023,-4.3023,-4.2984,-4.2683,-4.2513,-4.2473,-4.2128,-4.1821,-4.1773,-4.1993,-4.2253,-4.2351,-4.2595,-4.2755,-4.2755,-4.2852,-4.29,-4.29,-4.29,-4.3067,-4.3423,-4.3566,-4.3993,-4.4737,-4.523,-4.5776,-4.6358,-4.7033,-4.7596,-4.7964,-4.826,-4.8453,-4.8635,-4.9238,-4.9786,-5.0289,-5.15,-5.2485,-5.2989,-5.3561,-5.4173,-5.4769,-5.5347,-5.6215,-5.7209,-5.7901,-5.8421,-5.8924,-5.9271,-5.9637,-6.0128,-6.0548,-6.108,-6.1835,-6.226,-6.2762,-6.3531,-6.3986,-6.4349,-6.4779,-6.5191,-6.5537,-6.5826,-6.6027,-6.6215,-6.6375,-6.6485,-6.6575,-6.6655,-6.6722,-6.6759,-6.6803,-6.6811,-6.6809,-6.6802,-6.6809,-6.6813,-6.6846,-6.6872,-6.6894,-6.6892,-6.6839,-6.6795,-6.6801,-6.6746,-6.6674,-6.6601,-6.6504,-6.6581,-6.6831,-6.7242,-6.8015,-4.8156,-4.7838,-4.7494,-4.6998,-4.6433,-4.6079,-4.5546,-4.4868,-4.4528,-4.4133,-4.3761,-4.355,-4.3631,-4.3936,-4.3854,-4.3658,-4.3413,-4.3361,-4.3152,-4.2801,-4.2775,-4.2709,-4.2579,-4.2552,-4.2552,-4.2487,-4.2121,-4.1989,-4.2025,-4.1821,-4.1746,-4.1944,-4.2302,-4.256,-4.2595,-4.279,-4.29,-4.29,-4.29,-4.29,-4.29,-4.29,-4.3115,-4.3566,-4.3614,-4.3993,-4.4737,-4.5184,-4.5625,-4.6135,-4.68,-4.7381,-4.781,-4.8133,-4.8412,-4.865,-4.9414,-4.9983,-5.0024,-5.1269,-5.2133,-5.2425,-5.2975,-5.3564,-5.4153,-5.4725,-5.5298,-5.5837,-5.6376,-5.6986,-5.7938,-5.8314,-5.8692,-5.9158,-5.9552,-6.0187,-6.1025,-6.1479,-6.2127,-6.3072,-6.3559,-6.4219,-6.4863,-6.536,-6.5684,-6.5876,-6.6091,-6.6274,-6.6389,-6.6507,-6.6626,-6.6682,-6.6755,-6.6803,-6.6814,-6.6798,-6.68,-6.6809,-6.6813,-6.6862,-6.6892,-6.6894,-6.6873,-6.6863,-6.6824,-6.6775,-6.6752,-6.6707,-6.6639,-6.6568,-6.6474,-6.6413,-6.6502,-6.6893,-6.7433,-4.7559,-4.7222,-4.669,-4.5998,-4.5279,-4.4965,-4.4462,-4.3955,-4.3646,-4.3516,-4.3306,-4.264,-4.2328,-4.2407,-4.3097,-4.3322,-4.3036,-4.2931,-4.2709,-4.2239,-4.2251,-4.1912,-4.1415,-4.1389,-4.1415,-4.1546,-4.1494,-4.1516,-4.1713,-4.1723,-4.1944,-4.2462,-4.2498,-4.2644,-4.2852,-4.29,-4.29,-4.29,-4.29,-4.29,-4.29,-4.29,-4.3115,-4.3519,-4.3614,-4.3946,-4.469,-4.5,-4.5367,-4.588,-4.658,-4.7062,-4.7337,-4.7964,-4.837,-4.8578,-4.8888,-4.9181,-4.9394,-5.0034,-5.0632,-5.1057,-5.1685,-5.2165,-5.2819,-5.3413,-5.3956,-5.4327,-5.5008,-5.599,-5.7502,-5.7983,-5.846,-5.8978,-5.9462,-5.9866,-6.0371,-6.0762,-6.1381,-6.2151,-6.2912,-6.3858,-6.5079,-6.5523,-6.5724,-6.5912,-6.6134,-6.6321,-6.6398,-6.6514,-6.6606,-6.6687,-6.6755,-6.681,-6.6808,-6.6807,-6.6802,-6.6813,-6.6862,-6.6888,-6.6894,-6.6893,-6.6865,-6.6828,-6.6807,-6.6752,-6.6712,-6.6649,-6.6581,-6.6519,-6.6461,-6.6413,-6.6387,-6.6274,-6.6776,-4.6354,-4.5651,-4.5429,-4.4937,-4.4365,-4.4067,-4.3618,-4.3037,-4.2782,-4.2431,-4.2104,-4.1753,-4.1625,-4.1638,-4.1935,-4.204,-4.1938,-4.1925,-4.1821,-4.1625,-4.1625,-4.1507,-4.1337,-4.1311,-4.1311,-4.1311,-4.1311,-4.1461,-4.1696,-4.2056,-4.2302,-4.2498,-4.2693,-4.279,-4.2887,-4.29,-4.29,-4.29,-4.29,-4.29,-4.29,-4.29,-4.3067,-4.3389,-4.3505,-4.3818,-4.427,-4.4801,-4.5261,-4.5654,-4.6314,-4.6902,-4.7294,-4.7922,-4.837,-4.8578,-4.8857,-4.9078,-4.9316,-4.9741,-5.0207,-5.0689,-5.1275,-5.1835,-5.2378,-5.3025,-5.36,-5.4044,-5.4634,-5.5445,-5.5992,-5.6576,-5.7064,-5.7577,-5.7991,-5.859,-5.9436,-5.9954,-6.0472,-6.1315,-6.2428,-6.3862,-6.4927,-6.5566,-6.5763,-6.5936,-6.6155,-6.633,-6.645,-6.6548,-6.6638,-6.6736,-6.6771,-6.6814,-6.6807,-6.68,-6.6811,-6.686,-6.6889,-6.6894,-6.6894,-6.6865,-6.6826,-6.6812,-6.6788,-6.6724,-6.6682,-6.6639,-6.6548,-6.6454,-6.6411,-6.6396,-6.634,-6.6254,-6.664,-4.5417,-4.4728,-4.4451,-4.3987,-4.3444,-4.3212,-4.2729,-4.2216,-4.1987,-4.1677,-4.135,-4.1311,-4.1311,-4.1311,-4.1311,-4.1311,-4.1311,-4.1324,-4.1311,-4.1311,-4.1311,-4.1311,-4.1311,-4.1311,-4.1311,-4.1311,-4.1411,-4.1597,-4.1957,-4.2302,-4.2547,-4.2658,-4.2838,-4.29,-4.29,-4.29,-4.29,-4.29,-4.29,-4.29,-4.29,-4.29,-4.2984,-4.3163,-4.3389,-4.3675,-4.3988,-4.4676,-4.5124,-4.5398,-4.6015,-4.6639,-4.7251,-4.7864,-4.8301,-4.851,-4.8718,-4.9021,-4.9275,-4.9613,-5.005,-5.0573,-5.1146,-5.1741,-5.2272,-5.2922,-5.3483,-5.3996,-5.454,-5.4974,-5.5229,-5.5631,-5.6126,-5.6662,-5.7028,-5.7612,-5.8647,-5.915,-5.9838,-6.0881,-6.2407,-6.3826,-6.4795,-6.5383,-6.5769,-6.5971,-6.6175,-6.6357,-6.6474,-6.6561,-6.6649,-6.6783,-6.6799,-6.6801,-6.6809,-6.6826,-6.6836,-6.6884,-6.6892,-6.6894,-6.6868,-6.683,-6.679,-6.6772,-6.674,-6.6712,-6.6649,-6.6601,-6.6531,-6.6434,-6.6392,-6.6367,-6.6322,-6.6245,-6.6544,-4.4676,-4.4464,-4.3831,-4.3095,-4.2594,-4.2313,-4.1897,-4.1428,-4.1363,-4.1363,-4.1311,-4.1311,-4.1311,-4.1311,-4.1311,-4.1311,-4.1311,-4.1311,-4.1311,-4.1311,-4.1311,-4.1311,-4.1311,-4.1311,-4.1361,-4.1411,-4.1597,-4.2007,-4.24,-4.2511,-4.2658,-4.2838,-4.29,-4.29,-4.29,-4.29,-4.29,-4.29,-4.29,-4.2887,-4.2887,-4.2887,-4.2887,-4.2935,-4.3177,-4.3512,-4.394,-4.4504,-4.4876,-4.5138,-4.564,-4.6328,-4.7222,-4.7767,-4.8076,-4.8286,-4.8495,-4.8826,-4.9235,-4.9477,-4.9892,-5.0534,-5.1146,-5.1704,-5.2288,-5.2868,-5.345,-5.3948,-5.4428,-5.4817,-5.5199,-5.5613,-5.607,-5.6546,-5.6977,-5.7485,-5.8005,-5.848,-5.9278,-6.0772,-6.2392,-6.3625,-6.4233,-6.5118,-6.582,-6.6013,-6.6225,-6.6403,-6.6474,-6.6554,-6.6655,-6.6755,-6.6803,-6.6801,-6.6809,-6.6832,-6.686,-6.6906,-6.6894,-6.6893,-6.6841,-6.6798,-6.6772,-6.6748,-6.6702,-6.6666,-6.6633,-6.6579,-6.6508,-6.6426,-6.6403,-6.6358,-6.6283,-6.6225,-6.6215,-4.386,-4.3006,-4.2719,-4.2261,-4.1762,-4.1636,-4.1455,-4.1324,-4.1311,-4.1311,-4.1311,-4.1311,-4.1311,-4.1311,-4.1311,-4.1311,-4.1311,-4.1311,-4.1311,-4.1311,-4.1311,-4.1311,-4.1311,-4.1511,-4.1696,-4.1845,-4.2105,-4.2302,-4.2511,-4.2706,-4.2838,-4.2887,-4.29,-4.29,-4.29,-4.29,-4.29,-4.29,-4.29,-4.2838,-4.2644,-4.279,-4.279,-4.2706,-4.308,-4.3355,-4.3546,-4.4176,-4.4597,-4.4876,-4.5518,-4.6328,-4.7164,-4.7596,-4.7907,-4.8244,-4.8495,-4.8811,-4.9235,-4.9396,-4.9773,-5.0496,-5.1016,-5.1545,-5.2236,-5.2868,-5.3416,-5.3948,-5.4414,-5.4803,-5.5096,-5.5555,-5.6088,-5.6546,-5.6951,-5.7431,-5.8001,-5.8598,-5.957,-6.0732,-6.2048,-6.3109,-6.4042,-6.5074,-6.5774,-6.5994,-6.6235,-6.6411,-6.6481,-6.6561,-6.6649,-6.6783,-6.6799,-6.6801,-6.6817,-6.6838,-6.6885,-6.6892,-6.6894,-6.6888,-6.683,-6.6807,-6.6775,-6.6707,-6.6677,-6.662,-6.66,-6.655,-6.6485,-6.6437,-6.6413,-6.634,-6.6254,-6.6225,-6.6205,-4.3021,-4.2224,-4.1938,-4.1651,-4.1324,-4.1311,-4.1311,-4.1311,-4.1311,-4.1311,-4.1311,-4.1311,-4.1311,-4.1311,-4.1311,-4.1311,-4.1311,-4.1311,-4.1311,-4.1311,-4.1311,-4.1361,-4.1461,-4.1696,-4.1993,-4.2239,-4.24,-4.2547,-4.2644,-4.2803,-4.29,-4.29,-4.29,-4.29,-4.29,-4.29,-4.29,-4.2887,-4.279,-4.2706,-4.256,-4.2533,-4.2582,-4.2547,-4.2838,-4.3067,-4.3321,-4.3832,-4.4256,-4.4737,-4.5427,-4.6284,-4.699,-4.7337,-4.7709,-4.8118,-4.8412,-4.8744,-4.9194,-4.9316,-4.9693,-5.0441,-5.0908,-5.1455,-5.22,-5.2834,-5.3315,-5.3948,-5.4399,-5.471,-5.5005,-5.5525,-5.606,-5.6492,-5.6925,-5.7486,-5.8142,-5.8843,-5.9478,-6.0389,-6.1401,-6.2493,-6.3541,-6.4613,-6.5536,-6.59,-6.6245,-6.6428,-6.6489,-6.6568,-6.6666,-6.675,-6.6799,-6.6811,-6.6805,-6.6841,-6.689,-6.6875,-6.6872,-6.6859,-6.6837,-6.6811,-6.6779,-6.6692,-6.6645,-6.6581,-6.6565,-6.6524,-6.6493,-6.6437,-6.6396,-6.6331,-6.6254,-6.6215,-6.6205,-4.2211,-4.2107,-4.1546,-4.135,-4.1311,-4.1311,-4.1311,-4.1311,-4.1311,-4.1311,-4.1311,-4.1311,-4.1311,-4.1311,-4.1311,-4.1311,-4.1311,-4.1311,-4.1311,-4.1361,-4.1361,-4.1511,-4.1796,-4.2029,-4.2239,-4.2498,-4.2547,-4.2658,-4.2852,-4.29,-4.29,-4.29,-4.29,-4.29,-4.29,-4.29,-4.29,-4.2803,-4.2644,-4.2498,-4.24,-4.2239,-4.219,-4.2413,-4.2498,-4.2741,-4.3177,-4.3533,-4.3912,-4.4457,-4.5336,-4.6015,-4.655,-4.7005,-4.7467,-4.788,-4.8175,-4.862,-4.9113,-4.9275,-4.9693,-5.0496,-5.0908,-5.1438,-5.22,-5.2712,-5.3247,-5.3915,-5.4303,-5.462,-5.5005,-5.5514,-5.6032,-5.6465,-5.701,-5.7684,-5.8572,-5.9042,-5.9439,-5.9804,-6.0657,-6.1797,-6.2911,-6.3993,-6.5009,-6.5848,-6.6284,-6.6409,-6.6492,-6.6569,-6.6661,-6.6736,-6.6799,-6.6817,-6.6828,-6.6859,-6.689,-6.6874,-6.6866,-6.6828,-6.6817,-6.6806,-6.675,-6.6674,-6.6607,-6.656,-6.6531,-6.6516,-6.6477,-6.6431,-6.6387,-6.6331,-6.6284,-6.6225,-6.6205,-4.1912,-4.152,-4.1376,-4.1311,-4.1311,-4.1311,-4.1311,-4.1311,-4.1311,-4.1311,-4.1311,-4.1311,-4.1311,-4.1311,-4.1311,-4.1311,-4.1311,-4.1311,-4.1411,-4.156,-4.161,-4.1845,-4.2204,-4.2351,-4.2533,-4.2741,-4.2803,-4.2852,-4.29,-4.29,-4.29,-4.29,-4.29,-4.29,-4.29,-4.29,-4.2803,-4.2644,-4.2547,-4.2302,-4.2007,-4.2029,-4.2029,-4.1957,-4.2315,-4.256,-4.279,-4.3293,-4.3946,-4.4644,-4.5046,-4.5549,-4.6105,-4.6668,-4.7149,-4.751,-4.8007,-4.851,-4.8965,-4.9194,-4.9693,-5.0496,-5.0924,-5.1455,-5.2236,-5.2677,-5.323,-5.3832,-5.419,-5.4491,-5.4944,-5.5455,-5.6088,-5.6881,-5.7388,-5.796,-5.8574,-5.9062,-5.9383,-5.9691,-6.0657,-6.1705,-6.2806,-6.3821,-6.4925,-6.5829,-6.6264,-6.6437,-6.6507,-6.6569,-6.6649,-6.6746,-6.681,-6.6846,-6.6867,-6.6878,-6.6891,-6.6872,-6.6857,-6.682,-6.6798,-6.6765,-6.6702,-6.6613,-6.6594,-6.6546,-6.6524,-6.6508,-6.6453,-6.6422,-6.6396,-6.6369,-6.6254,-6.6205,-6.6205,-4.1611,-4.1311,-4.1311,-4.1311,-4.1311,-4.1311,-4.1311,-4.1311,-4.1311,-4.1311,-4.1311,-4.1311,-4.1311,-4.1311,-4.1311,-4.1361,-4.1461,-4.1461,-4.161,-4.1832,-4.1993,-4.2204,-4.2449,-4.2595,-4.2741,-4.2887,-4.29,-4.29,-4.29,-4.29,-4.29,-4.29,-4.29,-4.29,-4.29,-4.29,-4.2741,-4.2547,-4.24,-4.2092,-4.1759,-4.1746,-4.1746,-4.1759,-4.2155,-4.2449,-4.2825,-4.3328,-4.3946,-4.4537,-4.4862,-4.523,-4.5835,-4.6239,-4.6712,-4.7222,-4.7767,-4.826,-4.8759,-4.9113,-4.9622,-5.0331,-5.0816,-5.1434,-5.2092,-5.2607,-5.3213,-5.3766,-5.4027,-5.446,-5.4974,-5.559,-5.6338,-5.7061,-5.7607,-5.8092,-5.8572,-5.8965,-5.929,-5.9694,-6.0338,-6.1416,-6.2682,-6.361,-6.4674,-6.5735,-6.6274,-6.6426,-6.6528,-6.6588,-6.6643,-6.6746,-6.681,-6.684,-6.6867,-6.6901,-6.6893,-6.6869,-6.6841,-6.6801,-6.676,-6.6731,-6.6669,-6.6601,-6.6574,-6.6558,-6.6524,-6.6501,-6.6461,-6.642,-6.6422,-6.6369,-6.6254,-6.6205,-6.6205,-4.1311,-4.1311,-4.1311,-4.1311,-4.1311,-4.1311,-4.1311,-4.1311,-4.1311,-4.1311,-4.1311,-4.1311,-4.1311,-4.1311,-4.1411,-4.1498,-4.1746,-4.1746,-4.1895,-4.2141,-4.2351,-4.256,-4.2595,-4.2741,-4.2838,-4.29,-4.29,-4.29,-4.29,-4.29,-4.29,-4.29,-4.29,-4.29,-4.29,-4.2852,-4.2706,-4.2449,-4.219,-4.1931,-4.1647,-4.1448,-4.1461,-4.166,-4.198,-4.2484,-4.3018,-4.3485,-4.3851,-4.4256,-4.4612,-4.5106,-4.57,-4.5835,-4.6328,-4.7033,-4.7467,-4.788,-4.8495,-4.899,-4.9541,-5.0159,-5.0778,-5.1343,-5.1964,-5.2553,-5.3144,-5.3667,-5.3979,-5.4428,-5.5096,-5.5861,-5.6528,-5.7112,-5.7553,-5.7978,-5.8446,-5.8847,-5.9197,-5.9493,-5.9869,-6.0948,-6.2271,-6.3283,-6.4024,-6.5863,-6.6302,-6.6422,-6.6548,-6.6627,-6.6691,-6.6787,-6.6817,-6.6834,-6.6863,-6.6902,-6.6875,-6.6866,-6.6829,-6.6791,-6.6735,-6.6677,-6.6632,-6.6588,-6.6567,-6.6538,-6.6516,-6.6485,-6.6442,-6.642,-6.6396,-6.6322,-6.6254,-6.6215,-6.6205,-4.1311,-4.1311,-4.1311,-4.1311,-4.1311,-4.1311,-4.1311,-4.1311,-4.1311,-4.1311,-4.1311,-4.1311,-4.1461,-4.1597,-4.1647,-4.1733,-4.198,-4.2029,-4.2141,-4.2449,-4.2693,-4.2803,-4.279,-4.2887,-4.2887,-4.29,-4.29,-4.29,-4.29,-4.29,-4.29,-4.29,-4.29,-4.29,-4.29,-4.2693,-4.2435,-4.219,-4.1931,-4.1647,-4.1461,-4.1311,-4.1324,-4.1511,-4.1881,-4.2387,-4.2922,-4.3375,-4.3648,-4.3885,-4.4397,-4.4922,-4.5276,-4.5654,-4.6164,-4.6639,-4.7164,-4.7666,-4.8286,-4.88,-4.9396,-5.012,-5.0739,-5.1359,-5.1964,-5.2553,-5.311,-5.3617,-5.3948,-5.4428,-5.5277,-5.5993,-5.6626,-5.7105,-5.748,-5.7862,-5.8356,-5.8782,-5.912,-5.9474,-5.9857,-6.0746,-6.2586,-6.3111,-6.4159,-6.5768,-6.6311,-6.6446,-6.6554,-6.6639,-6.6712,-6.6795,-6.6814,-6.6834,-6.6871,-6.689,-6.6874,-6.686,-6.6823,-6.6791,-6.6707,-6.6666,-6.66,-6.6581,-6.654,-6.6512,-6.6508,-6.6458,-6.6426,-6.6394,-6.6369,-6.6303,-6.6254,-6.6215,-6.6205,-4.1311,-4.1311,-4.1311,-4.1311,-4.1311,-4.1311,-4.1311,-4.1311,-4.1311,-4.1361,-4.1461,-4.1511,-4.1647,-4.1881,-4.1881,-4.2043,-4.2289,-4.2422,-4.2533,-4.2693,-4.2852,-4.29,-4.29,-4.29,-4.29,-4.29,-4.29,-4.29,-4.29,-4.29,-4.29,-4.29,-4.29,-4.279,-4.2755,-4.2547,-4.2302,-4.1944,-4.1647,-4.1398,-4.1147,-4.111,-4.1398,-4.161,-4.198,-4.2373,-4.2887,-4.3259,-4.3471,-4.3709,-4.4115,-4.4597,-4.4954,-4.5321,-4.579,-4.6239,-4.68,-4.7322,-4.7907,-4.865,-4.9306,-5.0018,-5.0701,-5.1306,-5.1891,-5.2518,-5.3059,-5.3483,-5.3898,-5.4414,-5.5383,-5.6049,-5.6609,-5.7105,-5.7455,-5.7815,-5.829,-5.87,-5.9043,-5.9383,-5.977,-6.1,-6.2161,-6.3053,-6.4274,-6.5845,-6.63,-6.6446,-6.6555,-6.6643,-6.6722,-6.6787,-6.6791,-6.682,-6.6878,-6.6893,-6.687,-6.685,-6.6814,-6.6767,-6.6722,-6.6655,-6.6588,-6.6575,-6.6548,-6.6512,-6.6481,-6.645,-6.6409,-6.6394,-6.6349,-6.6293,-6.6254,-6.6215,-6.6205,-4.1311,-4.1311,-4.1311,-4.1311,-4.1311,-4.1311,-4.1311,-4.1361,-4.1374,-4.1547,-4.1746,-4.1746,-4.1895,-4.2128,-4.219,-4.2338,-4.2533,-4.2741,-4.2852,-4.29,-4.29,-4.29,-4.29,-4.29,-4.29,-4.29,-4.29,-4.29,-4.29,-4.29,-4.29,-4.29,-4.29,-4.279,-4.256,-4.2413,-4.2155,-4.1696,-4.1348,-4.111,-4.0896,-4.0896,-4.1285,-4.1881,-4.2079,-4.2373,-4.2838,-4.3177,-4.3389,-4.36,-4.3818,-4.4223,-4.4644,-4.5014,-4.5367,-4.588,-4.6535,-4.7106,-4.7709,-4.8442,-4.9169,-4.9821,-5.0624,-5.1268,-5.1818,-5.2447,-5.3008,-5.3466,-5.3896,-5.4572,-5.5396,-5.6049,-5.6626,-5.7105,-5.7455,-5.7834,-5.8308,-5.8638,-5.8925,-5.9328,-6.0002,-6.1197,-6.2357,-6.3399,-6.464,-6.571,-6.6126,-6.6454,-6.6555,-6.6641,-6.6736,-6.6791,-6.6794,-6.6843,-6.6878,-6.6894,-6.6866,-6.6828,-6.6814,-6.6767,-6.6717,-6.6649,-6.6601,-6.6569,-6.6554,-6.6512,-6.6493,-6.6453,-6.642,-6.6385,-6.6331,-6.6264,-6.6215,-6.6205,-6.6205,-4.1311,-4.1311,-4.1311,-4.1311,-4.1311,-4.1311,-4.1411,-4.1597,-4.161,-4.1796,-4.2029,-4.2029,-4.219,-4.24,-4.2462,-4.2595,-4.279,-4.2887,-4.29,-4.29,-4.29,-4.29,-4.29,-4.29,-4.29,-4.29,-4.29,-4.29,-4.29,-4.29,-4.29,-4.29,-4.29,-4.2741,-4.2498,-4.2239,-4.1895,-4.1398,-4.1047,-4.0795,-4.0643,-4.0795,-4.1272,-4.198,-4.2079,-4.2387,-4.2838,-4.3177,-4.3403,-4.3614,-4.3879,-4.4115,-4.4504,-4.4862,-4.5321,-4.5821,-4.6373,-4.6931,-4.7553,-4.826,-4.9031,-4.9821,-5.064,-5.1285,-5.1835,-5.2483,-5.3025,-5.3566,-5.4252,-5.5005,-5.5425,-5.6049,-5.6626,-5.7061,-5.7437,-5.7815,-5.8286,-5.8614,-5.8885,-5.929,-6.025,-6.1318,-6.2476,-6.3648,-6.4794,-6.572,-6.623,-6.647,-6.6569,-6.6652,-6.6731,-6.6779,-6.6798,-6.6854,-6.69,-6.6875,-6.6863,-6.683,-6.6801,-6.6767,-6.6722,-6.6643,-6.6607,-6.6581,-6.6548,-6.6497,-6.6477,-6.6437,-6.6422,-6.6387,-6.6312,-6.6225,-6.6215,-6.6205,-6.6205,-4.1311,-4.1311,-4.1311,-4.1311,-4.1311,-4.1448,-4.1547,-4.1696,-4.1845,-4.2029,-4.2239,-4.2338,-4.2435,-4.2644,-4.2693,-4.2803,-4.29,-4.29,-4.29,-4.29,-4.29,-4.29,-4.29,-4.29,-4.29,-4.29,-4.29,-4.29,-4.29,-4.29,-4.29,-4.29,-4.2887,-4.2693,-4.2338,-4.2043,-4.1584,-4.1147,-4.0744,-4.0427,-4.0338,-4.0593,-4.1134,-4.1832,-4.2128,-4.2387,-4.2825,-4.3177,-4.3389,-4.3614,-4.3865,-4.4129,-4.4457,-4.4815,-4.5216,-4.558,-4.6165,-4.6844,-4.7467,-4.8175,-4.8975,-4.9836,-5.0624,-5.1306,-5.1891,-5.2518,-5.3144,-5.3766,-5.4397,-5.5144,-5.5472,-5.6049,-5.6609,-5.7087,-5.7437,-5.7815,-5.8268,-5.8596,-5.8964,-5.9421,-6.0437,-6.1543,-6.2686,-6.3821,-6.4949,-6.572,-6.6286,-6.6485,-6.6575,-6.6682,-6.6767,-6.6771,-6.6811,-6.6841,-6.6883,-6.6875,-6.6866,-6.6832,-6.6784,-6.6756,-6.6702,-6.6649,-6.662,-6.6588,-6.6546,-6.6508,-6.6461,-6.642,-6.6385,-6.6369,-6.6284,-6.6215,-6.6205,-6.6205,-6.6205,-4.1311,-4.1311,-4.1311,-4.1311,-4.1411,-4.1597,-4.1746,-4.1895,-4.2092,-4.2338,-4.2547,-4.2595,-4.2693,-4.2838,-4.29,-4.29,-4.29,-4.29,-4.29,-4.29,-4.29,-4.29,-4.29,-4.29,-4.29,-4.29,-4.29,-4.29,-4.29,-4.29,-4.29,-4.2887,-4.2838,-4.2582,-4.2141,-4.1796,-4.1348,-4.0833,-4.0377,-4.0121,-4.0236,-4.0389,-4.0997,-4.198,-4.2079,-4.2324,-4.2838,-4.3163,-4.3389,-4.3614,-4.3851,-4.4115,-4.4457,-4.4847,-4.5124,-4.5398,-4.6165,-4.68,-4.7424,-4.8218,-4.9072,-4.9836,-5.064,-5.1306,-5.202,-5.2677,-5.3349,-5.398,-5.4589,-5.5144,-5.5502,-5.6049,-5.6609,-5.7087,-5.7461,-5.7815,-5.8294,-5.8716,-5.9192,-5.9833,-6.0736,-6.1764,-6.2902,-6.4269,-6.5446,-6.5817,-6.6355,-6.6485,-6.6601,-6.6727,-6.6783,-6.6785,-6.6809,-6.6848,-6.6866,-6.6874,-6.6871,-6.6859,-6.6812,-6.6764,-6.6712,-6.6649,-6.6633,-6.6581,-6.6538,-6.6501,-6.6434,-6.6392,-6.6376,-6.6331,-6.6264,-6.6215,-6.6205,-6.6205,-6.6205,-4.1311,-4.1311,-4.1311,-4.1461,-4.1647,-4.1696,-4.2007,-4.2364,-4.24,-4.2609,-4.2838,-4.2838,-4.2838,-4.2887,-4.29,-4.29,-4.29,-4.29,-4.29,-4.29,-4.29,-4.29,-4.29,-4.29,-4.29,-4.29,-4.29,-4.29,-4.29,-4.29,-4.29,-4.2887,-4.2693,-4.24,-4.2092,-4.161,-4.111,-4.0605,-4.0236,-4.0185,-4.0402,-4.0504,-4.1147,-4.1782,-4.2128,-4.2387,-4.2887,-4.3211,-4.3451,-4.3614,-4.3865,-4.4223,-4.469,-4.494,-4.5353,-4.5821,-4.6447,-4.7077,-4.7624,-4.8385,-4.921,-4.9916,-5.0663,-5.1343,-5.2128,-5.2973,-5.3667,-5.3948,-5.4603,-5.5096,-5.5514,-5.6049,-5.6609,-5.7036,-5.7437,-5.7867,-5.8341,-5.8739,-5.925,-6.0411,-6.1361,-6.2178,-6.3145,-6.4584,-6.5874,-6.6127,-6.6346,-6.6477,-6.6607,-6.6732,-6.6798,-6.6798,-6.6812,-6.685,-6.6863,-6.6873,-6.6874,-6.6865,-6.6817,-6.6771,-6.6722,-6.6661,-6.662,-6.6574,-6.6538,-6.6474,-6.6434,-6.6392,-6.6367,-6.6312,-6.6235,-6.6215,-6.6205,-6.6205,-6.6205,-4.1311,-4.1324,-4.1461,-4.1597,-4.1746,-4.2007,-4.2253,-4.2498,-4.2658,-4.279,-4.29,-4.29,-4.29,-4.29,-4.29,-4.29,-4.29,-4.29,-4.29,-4.29,-4.29,-4.29,-4.29,-4.29,-4.29,-4.29,-4.29,-4.29,-4.29,-4.29,-4.29,-4.2852,-4.2609,-4.24,-4.1993,-4.1398,-4.0946,-4.0542,-4.0287,-4.0236,-4.0504,-4.0808,-4.1298,-4.2092,-4.2239,-4.2595,-4.3018,-4.3341,-4.358,-4.3818,-4.4082,-4.4364,-4.4797,-4.5138,-4.5549,-4.609,-4.6844,-4.7437,-4.7807,-4.8552,-4.9291,-5.0018,-5.0723,-5.1508,-5.2414,-5.3298,-5.3865,-5.398,-5.4603,-5.5096,-5.5514,-5.6049,-5.6555,-5.6984,-5.7388,-5.7849,-5.8319,-5.8762,-5.9402,-6.0707,-6.1983,-6.2837,-6.368,-6.4859,-6.5894,-6.6136,-6.6346,-6.6512,-6.662,-6.6727,-6.6771,-6.6809,-6.682,-6.6848,-6.6862,-6.6872,-6.6875,-6.6867,-6.682,-6.6778,-6.6711,-6.6657,-6.662,-6.6581,-6.6538,-6.6474,-6.6434,-6.6392,-6.6367,-6.6312,-6.6225,-6.6225,-6.6225,-6.6215,-6.6225,-4.1361,-4.1411,-4.161,-4.1746,-4.1845,-4.2302,-4.256,-4.2658,-4.279,-4.2887,-4.29,-4.29,-4.29,-4.29,-4.29,-4.29,-4.29,-4.29,-4.29,-4.29,-4.29,-4.29,-4.29,-4.29,-4.29,-4.29,-4.29,-4.29,-4.29,-4.2887,-4.2887,-4.279,-4.2498,-4.219,-4.1796,-4.1198,-4.0593,-4.0249,-4.0134,-4.0236,-4.0555,-4.1023,-4.1547,-4.2043,-4.24,-4.2755,-4.3211,-4.3485,-4.3709,-4.3974,-4.4317,-4.4644,-4.4922,-4.5336,-4.5866,-4.6403,-4.7149,-4.7794,-4.8244,-4.8883,-4.9477,-5.0159,-5.1027,-5.1911,-5.2712,-5.3551,-5.398,-5.398,-5.462,-5.5113,-5.5484,-5.6021,-5.6501,-5.6951,-5.7356,-5.7779,-5.829,-5.8944,-5.9908,-6.1309,-6.255,-6.3626,-6.4468,-6.5314,-6.5905,-6.6156,-6.6346,-6.6519,-6.6632,-6.6736,-6.6783,-6.6807,-6.6817,-6.6824,-6.6838,-6.685,-6.6855,-6.685,-6.6826,-6.6792,-6.6748,-6.6692,-6.6638,-6.6601,-6.6553,-6.6481,-6.6422,-6.64,-6.6376,-6.634,-6.6303,-6.6284,-6.6274,-6.6245,-6.6254,-4.1461,-4.1696,-4.1696,-4.1832,-4.2079,-4.2387,-4.2644,-4.2852,-4.29,-4.29,-4.29,-4.29,-4.29,-4.29,-4.29,-4.29,-4.29,-4.29,-4.29,-4.29,-4.29,-4.29,-4.29,-4.29,-4.29,-4.29,-4.29,-4.29,-4.29,-4.29,-4.2741,-4.2498,-4.2275,-4.1845,-4.1411,-4.0846,-4.0287,-4.0044,-4.0032,-4.0287,-4.0605,-4.106,-4.1597,-4.2029,-4.24,-4.2755,-4.3259,-4.3533,-4.377,-4.4021,-4.4457,-4.4769,-4.5046,-4.5549,-4.609,-4.6712,-4.7351,-4.8007,-4.865,-4.9169,-4.9717,-5.0432,-5.1327,-5.2272,-5.2868,-5.3584,-5.3915,-5.4045,-5.462,-5.5113,-5.5502,-5.5936,-5.6437,-5.6873,-5.7289,-5.7708,-5.8393,-5.9427,-6.0452,-6.1893,-6.3047,-6.4031,-6.4846,-6.5551,-6.5913,-6.6175,-6.6378,-6.6561,-6.6635,-6.6731,-6.6779,-6.6811,-6.6807,-6.68,-6.6811,-6.6826,-6.6873,-6.6854,-6.6839,-6.6809,-6.6791,-6.6741,-6.6669,-6.6633,-6.6588,-6.6512,-6.6439,-6.6458,-6.6442,-6.6422,-6.6387,-6.634,-6.634,-6.634,-6.6358,-4.1461,-4.1696,-4.1881,-4.2092,-4.2351,-4.2644,-4.2803,-4.29,-4.29,-4.29,-4.29,-4.29,-4.29,-4.29,-4.29,-4.29,-4.29,-4.29,-4.29,-4.29,-4.29,-4.29,-4.29,-4.29,-4.29,-4.29,-4.29,-4.29,-4.29,-4.29,-4.2595,-4.2338,-4.2128,-4.1796,-4.1248,-4.0605,-4.0083,-3.9942,-4.0083,-4.0504,-4.0833,-4.1448,-4.1993,-4.2302,-4.2582,-4.297,-4.3423,-4.3566,-4.3865,-4.4209,-4.4612,-4.4876,-4.517,-4.573,-4.6358,-4.6931,-4.7566,-4.8301,-4.8914,-4.9452,-4.9995,-5.0962,-5.1802,-5.2449,-5.2903,-5.3584,-5.3915,-5.4207,-5.4603,-5.5113,-5.5472,-5.5925,-5.6401,-5.6794,-5.7213,-5.7637,-5.8492,-5.9587,-6.0824,-6.2181,-6.3247,-6.4237,-6.4982,-6.5692,-6.5959,-6.6175,-6.6387,-6.6575,-6.6657,-6.6711,-6.6756,-6.6801,-6.6798,-6.6815,-6.6807,-6.6841,-6.6889,-6.6875,-6.6828,-6.6826,-6.6811,-6.675,-6.6691,-6.6657,-6.6633,-6.6568,-6.6528,-6.6521,-6.6504,-6.6461,-6.6431,-6.6396,-6.6405,-6.642,-6.6437,-4.1597,-4.1845,-4.2092,-4.2338,-4.2547,-4.279,-4.29,-4.29,-4.29,-4.29,-4.29,-4.29,-4.29,-4.29,-4.29,-4.29,-4.29,-4.29,-4.29,-4.29,-4.29,-4.29,-4.29,-4.29,-4.29,-4.29,-4.29,-4.29,-4.29,-4.2852,-4.2547,-4.2177,-4.1881,-4.1498,-4.0997,-4.0402,-3.9878,-3.989,-4.0198,-4.0555,-4.0833,-4.1634,-4.2141,-4.2435,-4.2728,-4.3149,-4.3519,-4.3709,-4.3974,-4.435,-4.469,-4.5,-4.5398,-4.5896,-4.6521,-4.7178,-4.7822,-4.851,-4.9047,-4.9693,-5.0386,-5.1392,-5.1964,-5.2483,-5.2972,-5.3534,-5.3948,-5.4045,-5.4589,-5.5113,-5.5443,-5.5822,-5.6245,-5.6671,-5.7105,-5.7565,-5.8731,-5.9854,-6.1139,-6.2428,-6.3486,-6.4632,-6.5111,-6.5756,-6.6039,-6.6225,-6.6398,-6.6568,-6.6674,-6.6727,-6.6739,-6.6787,-6.6808,-6.6807,-6.6805,-6.6836,-6.6865,-6.6854,-6.6834,-6.6839,-6.6809,-6.676,-6.6722,-6.6691,-6.6663,-6.6626,-6.6607,-6.6581,-6.6533,-6.6501,-6.6477,-6.6477,-6.6493,-6.6504,-6.6504,-4.1845,-4.2141,-4.2351,-4.2511,-4.256,-4.279,-4.29,-4.29,-4.29,-4.29,-4.29,-4.29,-4.29,-4.29,-4.29,-4.29,-4.29,-4.29,-4.29,-4.29,-4.29,-4.29,-4.29,-4.29,-4.29,-4.29,-4.29,-4.29,-4.29,-4.2706,-4.24,-4.1993,-4.1597,-4.106,-4.0491,-3.9993,-3.9749,-3.98,-4.0249,-4.0504,-4.0795,-4.1584,-4.2079,-4.2387,-4.2873,-4.3355,-4.3566,-4.3818,-4.4082,-4.4457,-4.4862,-4.517,-4.5549,-4.618,-4.6844,-4.7495,-4.8034,-4.8661,-4.9316,-5.0089,-5.0864,-5.1614,-5.2109,-5.2466,-5.2938,-5.3517,-5.398,-5.4045,-5.462,-5.5005,-5.5319,-5.5642,-5.6098,-5.6564,-5.6984,-5.7734,-5.8887,-6.0122,-6.1375,-6.2617,-6.3965,-6.5101,-6.5446,-6.5807,-6.6104,-6.6301,-6.6414,-6.654,-6.6665,-6.6716,-6.6732,-6.6763,-6.6791,-6.6814,-6.6812,-6.6807,-6.682,-6.6831,-6.6836,-6.6849,-6.6832,-6.6784,-6.6764,-6.6732,-6.6712,-6.6702,-6.6649,-6.6613,-6.6601,-6.6601,-6.6562,-6.6562,-6.6588,-6.6595,-6.6575,-4.1832,-4.2128,-4.24,-4.2609,-4.2755,-4.2838,-4.29,-4.29,-4.29,-4.29,-4.29,-4.29,-4.29,-4.29,-4.29,-4.29,-4.29,-4.29,-4.29,-4.29,-4.29,-4.29,-4.29,-4.29,-4.29,-4.29,-4.29,-4.29,-4.29,-4.2609,-4.2351,-4.1993,-4.1198,-4.0605,-4.0236,-3.989,-3.9697,-3.9788,-4.0198,-4.0605,-4.0846,-4.1584,-4.2177,-4.2338,-4.2984,-4.3389,-4.36,-4.3879,-4.4223,-4.4612,-4.4954,-4.5307,-4.5776,-4.6417,-4.7019,-4.7666,-4.826,-4.921,-4.9892,-5.0573,-5.0956,-5.1614,-5.2109,-5.2449,-5.2903,-5.3567,-5.3882,-5.4143,-5.462,-5.5005,-5.5259,-5.5642,-5.6098,-5.6555,-5.7093,-5.7892,-5.8988,-6.0259,-6.1573,-6.2802,-6.4084,-6.4984,-6.5532,-6.575,-6.5997,-6.6225,-6.6338,-6.6458,-6.6574,-6.6651,-6.6702,-6.6732,-6.6763,-6.6794,-6.6798,-6.6815,-6.6828,-6.6844,-6.6854,-6.6853,-6.6845,-6.683,-6.6787,-6.6764,-6.6771,-6.6774,-6.6732,-6.6712,-6.6732,-6.6736,-6.6678,-6.6647,-6.6661,-6.6686,-6.6671,-4.1931,-4.2128,-4.2498,-4.2755,-4.29,-4.29,-4.29,-4.29,-4.29,-4.29,-4.29,-4.29,-4.29,-4.29,-4.29,-4.29,-4.29,-4.29,-4.29,-4.29,-4.29,-4.29,-4.29,-4.29,-4.29,-4.2887,-4.2887,-4.29,-4.2741,-4.2498,-4.2007,-4.1398,-4.0694,-4.0134,-3.9826,-3.9685,-3.9645,-3.9736,-4.0032,-4.044,-4.0896,-4.1435,-4.2092,-4.2435,-4.2957,-4.3471,-4.3662,-4.396,-4.4317,-4.4737,-4.5046,-4.5398,-4.6001,-4.658,-4.7134,-4.7794,-4.8593,-4.9533,-5.0301,-5.0534,-5.0994,-5.1704,-5.2109,-5.2466,-5.2938,-5.3584,-5.3882,-5.4175,-5.4652,-5.493,-5.5187,-5.5584,-5.6077,-5.6546,-5.7347,-5.8176,-5.9491,-6.0806,-6.2031,-6.3231,-6.4067,-6.4875,-6.5504,-6.5678,-6.5881,-6.6072,-6.6245,-6.6355,-6.6485,-6.6581,-6.6657,-6.6696,-6.6732,-6.6767,-6.6798,-6.6801,-6.682,-6.6854,-6.6868,-6.6875,-6.6873,-6.6866,-6.683,-6.6809,-6.6795,-6.6798,-6.6806,-6.6803,-6.6791,-6.6775,-6.6732,-6.6728,-6.6746,-6.6746,-6.675,-4.2141,-4.2177,-4.2693,-4.2887,-4.29,-4.29,-4.29,-4.29,-4.29,-4.29,-4.29,-4.29,-4.29,-4.29,-4.29,-4.29,-4.29,-4.29,-4.29,-4.29,-4.29,-4.29,-4.29,-4.29,-4.29,-4.2887,-4.2838,-4.2706,-4.2498,-4.2155,-4.1498,-4.0694,-4.0096,-3.962,-3.9465,-3.9413,-3.9426,-3.9517,-3.9826,-4.0236,-4.0694,-4.1298,-4.1782,-4.2324,-4.2895,-4.3375,-4.3709,-4.4007,-4.4457,-4.4769,-4.4986,-4.5549,-4.609,-4.6668,-4.7307,-4.8034,-4.8893,-4.9677,-5.0418,-5.0589,-5.1048,-5.1704,-5.2109,-5.2466,-5.2956,-5.3551,-5.3882,-5.4207,-5.4589,-5.4838,-5.5066,-5.559,-5.6103,-5.6831,-5.7629,-5.8798,-6.0176,-6.1445,-6.2659,-6.362,-6.4294,-6.4934,-6.5341,-6.5589,-6.575,-6.5893,-6.6082,-6.6235,-6.6346,-6.6501,-6.6568,-6.6638,-6.6677,-6.6736,-6.6767,-6.6778,-6.6807,-6.6844,-6.6854,-6.6868,-6.6874,-6.6893,-6.6866,-6.6834,-6.6822,-6.6812,-6.6826,-6.6843,-6.6823,-6.6807,-6.6792,-6.6787,-6.6808,-6.6801,-6.6805,-4.2177,-4.2387,-4.2741,-4.29,-4.29,-4.29,-4.29,-4.29,-4.29,-4.29,-4.29,-4.29,-4.29,-4.29,-4.29,-4.29,-4.29,-4.29,-4.29,-4.29,-4.29,-4.29,-4.29,-4.29,-4.29,-4.2838,-4.2693,-4.256,-4.2302,-4.1908,-4.0959,-4.0044,-3.9685,-3.9258,-3.8998,-3.8945,-3.9114,-3.9322,-3.962,-3.9993,-4.0504,-4.111,-4.1597,-4.2177,-4.2763,-4.3245,-4.3662,-4.3912,-4.435,-4.4954,-4.5032,-4.5535,-4.6462,-4.6975,-4.7581,-4.8785,-4.9275,-4.9677,-5.0418,-5.0589,-5.0956,-5.1668,-5.2109,-5.2466,-5.2956,-5.3484,-5.3948,-5.4207,-5.4589,-5.4882,-5.5196,-5.5637,-5.6266,-5.7023,-5.7972,-5.925,-6.0603,-6.1729,-6.2918,-6.3786,-6.4464,-6.4886,-6.5267,-6.5435,-6.5594,-6.575,-6.5912,-6.6072,-6.6225,-6.6355,-6.6516,-6.6575,-6.6632,-6.6671,-6.6732,-6.6767,-6.6785,-6.6812,-6.6824,-6.6856,-6.687,-6.6875,-6.6893,-6.6888,-6.6859,-6.6856,-6.6873,-6.6871,-6.685,-6.6873,-6.6856,-6.6854,-6.6871,-6.6844,-6.6859,-4.2338,-4.2498,-4.279,-4.29,-4.29,-4.29,-4.29,-4.29,-4.29,-4.29,-4.29,-4.29,-4.29,-4.29,-4.29,-4.29,-4.29,-4.29,-4.29,-4.29,-4.29,-4.29,-4.29,-4.279,-4.2741,-4.2644,-4.2435,-4.219,-4.1845,-4.1097,-4.0198,-3.9788,-3.9478,-3.8945,-3.8566,-3.8526,-3.8619,-3.8945,-3.931,-3.9736,-4.0249,-4.0808,-4.1398,-4.1944,-4.2533,-4.3101,-4.3553,-4.3865,-4.4397,-4.4986,-4.5124,-4.558,-4.6535,-4.7193,-4.7992,-4.9031,-4.9275,-4.9773,-5.0418,-5.0589,-5.107,-5.1614,-5.2109,-5.2466,-5.299,-5.3517,-5.3816,-5.411,-5.4603,-5.5053,-5.5387,-5.5736,-5.6475,-5.7228,-5.8428,-5.9654,-6.0792,-6.1912,-6.2899,-6.3834,-6.4425,-6.485,-6.5142,-6.5286,-6.544,-6.558,-6.5724,-6.59,-6.605,-6.6215,-6.6373,-6.6512,-6.6568,-6.6613,-6.6661,-6.6722,-6.6739,-6.6759,-6.679,-6.6826,-6.6842,-6.687,-6.6894,-6.6894,-6.6889,-6.6906,-6.6905,-6.6906,-6.6885,-6.6889,-6.689,-6.689,-6.6888,-6.6881,-6.688,-4.2498,-4.256,-4.279,-4.29,-4.29,-4.29,-4.29,-4.29,-4.29,-4.29,-4.29,-4.29,-4.29,-4.29,-4.29,-4.29,-4.29,-4.29,-4.29,-4.29,-4.29,-4.29,-4.2741,-4.2644,-4.2547,-4.24,-4.2092,-4.1647,-4.101,-4.0351,-3.989,-3.9581,-3.8893,-3.8461,-3.8356,-3.8198,-3.825,-3.8514,-3.8945,-3.9362,-3.989,-4.0491,-4.1147,-4.1746,-4.2387,-4.3018,-4.3471,-4.3912,-4.4303,-4.4847,-4.5261,-4.5671,-4.6653,-4.7523,-4.8412,-4.899,-4.9316,-4.9852,-5.034,-5.0589,-5.107,-5.1577,-5.2073,-5.2466,-5.2956,-5.3584,-5.3915,-5.411,-5.4557,-5.49,-5.5213,-5.5957,-5.677,-5.7721,-5.889,-6.0052,-6.1169,-6.2223,-6.3173,-6.3958,-6.4327,-6.4744,-6.4993,-6.5161,-6.5305,-6.542,-6.5547,-6.5711,-6.5888,-6.605,-6.6206,-6.6389,-6.6508,-6.656,-6.6588,-6.6638,-6.6677,-6.6702,-6.6752,-6.6784,-6.6822,-6.6857,-6.6888,-6.6893,-6.6894,-6.6892,-6.6891,-6.6893,-6.6894,-6.6894,-6.6894,-6.6894,-6.6894,-6.6893,-6.6892,-4.2609,-4.279,-4.2887,-4.29,-4.29,-4.29,-4.29,-4.29,-4.29,-4.29,-4.29,-4.29,-4.29,-4.29,-4.29,-4.29,-4.29,-4.29,-4.29,-4.29,-4.29,-4.2755,-4.2609,-4.2449,-4.2351,-4.2105,-4.1647,-4.0997,-4.03,-3.9788,-3.931,-3.8788,-3.8356,-3.8303,-3.8133,-3.7974,-3.808,-3.8198,-3.8514,-3.905,-3.9633,-4.0236,-4.0896,-4.1547,-4.2177,-4.2811,-4.328,-4.3648,-4.4275,-4.4894,-4.5261,-4.6076,-4.7279,-4.7907,-4.8537,-4.9153,-4.9437,-4.9931,-5.034,-5.0666,-5.1032,-5.1557,-5.2017,-5.2395,-5.2921,-5.36,-5.4013,-5.4192,-5.4448,-5.4745,-5.5297,-5.6177,-5.714,-5.8231,-5.932,-6.0434,-6.1552,-6.2503,-6.3442,-6.3888,-6.4245,-6.4539,-6.4799,-6.5012,-6.5161,-6.5286,-6.5394,-6.5537,-6.5724,-6.5888,-6.6016,-6.6196,-6.6431,-6.6497,-6.6531,-6.6554,-6.6601,-6.6655,-6.6693,-6.6736,-6.6792,-6.6822,-6.6859,-6.6884,-6.689,-6.6893,-6.6894,-6.6892,-6.689,-6.6892,-6.6892,-6.6891,-6.689,-6.6872,-6.6893,-4.2741,-4.29,-4.29,-4.29,-4.29,-4.29,-4.29,-4.29,-4.29,-4.29,-4.29,-4.29,-4.29,-4.29,-4.29,-4.29,-4.29,-4.29,-4.29,-4.29,-4.2755,-4.2658,-4.2462,-4.2155,-4.1908,-4.161,-4.0896,-4.0198,-3.9633,-3.9154,-3.8724,-3.8409,-3.8303,-3.8145,-3.7974,-3.7974,-3.7974,-3.8027,-3.825,-3.8736,-3.9362,-3.9981,-4.0593,-4.1235,-4.1868,-4.2555,-4.3136,-4.3553,-4.4228,-4.5032,-4.5625,-4.6432,-4.7409,-4.7992,-4.862,-4.9153,-4.9517,-4.9892,-5.0379,-5.0705,-5.0956,-5.152,-5.1908,-5.2288,-5.2817,-5.3433,-5.3799,-5.4013,-5.4512,-5.4873,-5.574,-5.6628,-5.764,-5.8696,-5.9787,-6.0873,-6.1824,-6.2713,-6.3331,-6.3691,-6.4061,-6.4365,-6.4634,-6.4872,-6.501,-6.5111,-6.5207,-6.5379,-6.5566,-6.573,-6.5851,-6.5994,-6.6205,-6.6369,-6.6392,-6.6458,-6.6519,-6.6581,-6.6618,-6.6683,-6.6732,-6.6784,-6.6809,-6.6852,-6.6878,-6.6905,-6.6905,-6.69,-6.6902,-6.6888,-6.6906,-6.6904,-6.688,-6.6854,-6.6856,-4.2887,-4.29,-4.29,-4.29,-4.29,-4.29,-4.29,-4.29,-4.29,-4.29,-4.29,-4.29,-4.29,-4.29,-4.29,-4.29,-4.29,-4.29,-4.29,-4.2755,-4.2609,-4.2364,-4.2007,-4.171,-4.1361,-4.0858,-4.0147,-3.9788,-3.9362,-3.8881,-3.8514,-3.8356,-3.8198,-3.7974,-3.7974,-3.7974,-3.7974,-3.8039,-3.8262,-3.8461,-3.905,-3.962,-4.0275,-4.0984,-4.162,-4.2484,-4.3053,-4.3614,-4.4181,-4.5018,-4.5986,-4.6829,-4.7538,-4.8118,-4.8661,-4.9194,-4.9573,-5.001,-5.0418,-5.0628,-5.107,-5.154,-5.1818,-5.2217,-5.2764,-5.3296,-5.3669,-5.4153,-5.4623,-5.5247,-5.6147,-5.7102,-5.8118,-5.9056,-6.0118,-6.1145,-6.1978,-6.278,-6.3123,-6.3488,-6.3826,-6.4143,-6.4443,-6.4671,-6.4799,-6.4906,-6.5078,-6.5239,-6.5409,-6.5537,-6.5676,-6.5788,-6.5967,-6.6102,-6.6245,-6.6311,-6.6389,-6.647,-6.6516,-6.6599,-6.6668,-6.674,-6.6772,-6.6812,-6.6841,-6.6846,-6.687,-6.6865,-6.6871,-6.6875,-6.6867,-6.6861,-6.6839,-6.6832,-6.6801,-4.29,-4.29,-4.29,-4.29,-4.29,-4.29,-4.29,-4.29,-4.29,-4.29,-4.29,-4.29,-4.29,-4.29,-4.29,-4.2887,-4.2887,-4.2887,-4.2755,-4.256,-4.2413,-4.2056,-4.161,-4.1211,-4.0757,-4.0147,-3.953,-3.9154,-3.8945,-3.8579,-3.8303,-3.808,-3.808,-3.7974,-3.7974,-3.7974,-3.8027,-3.8039,-3.8092,-3.8303,-3.8841,-3.9465,-4.0134,-4.0782,-4.1435,-4.2324,-4.3053,-4.3471,-4.4167,-4.5064,-4.6031,-4.6975,-4.7666,-4.826,-4.8744,-4.9194,-4.9573,-5.001,-5.0379,-5.055,-5.0994,-5.1445,-5.1741,-5.2066,-5.2698,-5.3541,-5.3989,-5.4568,-5.5055,-5.5548,-5.6396,-5.7488,-5.8509,-5.9231,-6.0187,-6.1066,-6.1924,-6.2378,-6.2755,-6.3165,-6.3534,-6.387,-6.4244,-6.4443,-6.4577,-6.4689,-6.4852,-6.5042,-6.5258,-6.5379,-6.5479,-6.5608,-6.5743,-6.5919,-6.6091,-6.6146,-6.6235,-6.6327,-6.6427,-6.6555,-6.6624,-6.6687,-6.6731,-6.6744,-6.6778,-6.6805,-6.6811,-6.6837,-6.6831,-6.6811,-6.6824,-6.6817,-6.6798,-6.6775,-6.674]},{"header":{"parameterUnit":"m.s-1","parameterCategory":1,"la1":31.0,"la2":29.5877,"lo1":-88.7671,"lo2":-86.6584,"dy":0.0162,"dx":0.0185,"nx":115,"ny":88,"refTime":"2024-02-24T06:00:00:Z","depth":0,"parameterNumber":3,"parameterNumberName":"V-component_of_WINDS"},"data":[0.0,0.0,0.0,0.0,0.0,0.0,0.0,0.0,0.0,0.0,0.0,0.0,0.0,0.0,0.0,0.0,0.0,0.0,0.0,0.0,0.0,0.0,0.0,0.0,0.0,0.0,0.0,0.0,0.0,0.0,0.0,0.0,0.0,0.0,0.0,0.0,0.0,0.0,0.0,0.0,0.0,0.0,0.0,0.0,0.0,0.0,0.0,0.0,0.0,0.0,0.0,0.0,0.0,0.0,0.0,0.0,0.0,0.0,0.0,0.0,0.0,0.0,0.0,0.0,0.0,0.0,0.0,0.0,0.0,0.0,0.0,0.0,0.0,0.0,0.0,0.0,0.0,0.0,0.0,0.0,0.0,0.0,0.0,0.0,0.0,0.0,0.0,0.0,0.0,0.0,0.0,0.0,0.0,0.0,0.0,0.0,0.0,0.0,0.0,0.0,0.0,0.0,0.0,0.0,0.0,0.0,0.0,0.0,0.0,0.0,0.0,0.0,0.0,0.0,0.0,0.0,0.0,0.0,0.0,0.0,0.0,0.0,0.0,0.0,0.0,0.0,0.0,0.0,0.0,0.0,0.0,0.0,0.0,0.0,0.0,0.0,0.0,0.0,0.0,0.0,0.0,0.0,0.0,0.0,0.0,0.0,0.0,0.0,0.0,0.0,0.0,0.0,0.0,0.0,0.0,0.0,0.0,0.0,0.0,0.0,0.0,0.0,0.0,0.0,0.0,0.0,0.0,0.0,0.0,0.0,0.0,0.0,0.0,0.0,0.0,0.0,0.0,0.0,0.0,0.0,0.0,0.0,0.0,0.0,0.0,0.0,0.0,0.0,0.0,0.0,0.0,0.0,0.0,0.0,0.0,0.0,0.0,0.0,0.0,0.0,0.0,0.0,0.0,0.0,0.0,0.0,0.0,0.0,0.0,0.0,0.0,0.0,0.0,0.0,0.0,0.0,0.0,0.0,0.0,0.0,0.0,0.0,0.0,0.0,0.0,0.0,0.0,0.0,0.0,0.0,0.0,0.0,0.0,0.0,0.0,0.0,0.0,0.0,0.0,0.0,0.0,0.0,0.0,0.0,0.0,0.0,0.0,0.0,0.0,0.0,0.0,0.0,0.0,0.0,0.0,0.0,0.0,0.0,0.0,0.0,0.0,0.0,0.0,0.0,0.0,0.0,0.0,0.0,0.0,0.0,0.0,0.0,0.0,0.0,0.0,0.0,0.0,0.0,0.0,0.0,0.0,0.0,0.0,0.0,0.0,0.0,0.0,0.0,0.0,0.0,0.0,0.0,0.0,0.0,0.0,0.0,0.0,0.0,0.0,0.0,0.0,0.0,0.0,0.0,0.0,0.0,0.0,0.0,0.0,0.0,0.0,0.0,0.0,0.0,0.0,0.0,0.0,0.0,0.0,0.0,0.0,0.0,0.0,0.0,0.0,0.0,0.0,0.0,0.0,0.0,0.0,0.0,0.0,0.0,0.0,0.0,0.0,0.0,0.0,0.0,0.0,0.0,0.0,0.0,0.0,0.0,0.0,0.0,0.0,0.0,0.0,0.0,0.0,0.0,0.0,0.0,0.0,0.0,0.0,0.0,0.0,0.0,0.0,0.0,0.0,0.0,0.0,0.0,0.0,0.0,0.0,0.0,0.0,0.0,0.0,0.0,0.0,0.0,0.0,0.0,0.0,0.0,0.0,0.0,0.0,0.0,0.0,0.0,0.0,0.0,0.0,0.0,0.0,0.0,0.0,0.0,0.0,0.0,0.0,0.0,0.0,0.0,0.0,0.0,0.0,0.0,0.0,0.0,0.0,0.0,0.0,0.0,0.0,0.0,0.0,0.0,0.0,0.0,0.0,0.0,0.0,0.0,0.0,0.0,0.0,0.0,0.0,0.0,0.0,0.0,0.0,0.0,0.0,0.0,0.0,0.0,0.0,0.0,0.0,0.0,0.0,0.0,0.0,0.0,0.0,0.0,0.0,0.0,0.0,0.0,0.0,0.0,0.0,0.0,0.0,0.0,0.0,0.0,0.0,0.0,0.0,0.0,0.0,0.0,0.0,0.0,0.0,0.0,0.0,0.0,0.0,0.0,0.0,0.0,0.0,0.0,0.0,0.0,0.0,0.0,0.0,0.0,0.0,0.0,0.0,0.0,0.0,0.0,0.0,0.0,0.0,0.0,0.0,0.0,0.0,0.0,0.0,0.0,0.0,0.0,0.0,0.0,0.0,0.0,0.0,0.0,0.0,0.0,0.0,0.0,0.0,0.0,0.0,0.0,0.0,0.0,0.0,0.0,0.0,0.0,0.0,0.0,0.0,0.0,0.0,0.0,0.0,0.0,0.0,0.0,0.0,0.0,0.0,0.0,0.0,0.0,0.0,0.0,0.0,0.0,0.0,0.0,0.0,0.0,0.0,0.0,0.0,0.0,0.0,0.0,0.0,0.0,0.0,0.0,0.0,0.0,0.0,0.0,0.0,0.0,0.0,0.0,0.0,0.0,0.0,0.0,0.0,0.0,0.0,0.0,0.0,0.0,0.0,0.0,0.0,0.0,0.0,0.0,0.0,0.0,0.0,0.0,0.0,0.0,0.0,0.0,0.0,0.0,0.0,0.0,0.0,0.0,0.0,0.0,0.0,0.0,0.0,0.0,0.0,0.0,0.0,0.0,0.0,0.0,0.0,0.0,0.0,0.0,0.0,0.0,0.0,0.0,0.0,0.0,0.0,0.0,0.0,0.0,0.0,0.0,0.0,0.0,0.0,0.0,0.0,0.0,0.0,0.0,0.0,0.0,0.0,0.0,0.0,0.0,0.0,0.0,0.0,0.0,0.0,0.0,0.0,0.0,0.0,0.0,0.0,0.0,0.0,0.0,0.0,0.0,0.0,0.0,0.0,0.0,0.0,0.0,0.0,0.0,0.0,0.0,0.0,0.0,0.0,0.0,0.0,0.0,0.0,0.0,0.0,0.0,0.0,0.0,0.0,0.0,0.0,0.0,0.0,0.0,0.0,0.0,0.0,0.0,0.0,0.0,0.0,0.0,0.0,0.0,0.0,0.0,0.0,0.0,0.0,0.0,0.0,0.0,0.0,0.0,0.0,0.0,0.0,0.0,0.0,0.0,0.0,0.0,0.0,0.0,0.0,0.0,0.0,0.0,0.0,0.0,0.0,0.0,0.0,0.0,0.0,0.0,0.0,0.0,0.0,0.0,0.0,0.0,0.0,0.0,0.0,0.0,0.0,0.0,0.0,0.0,0.0,0.0,0.0,0.0,0.0,0.0,0.0,0.0,0.0,0.0,0.0,0.0,0.0,0.0,0.0,0.0,0.0,0.0,0.0,0.0,0.0,0.0,0.0,0.0,0.0,0.0,0.0,0.0,0.0,0.0,0.0,0.0,0.0,0.0,0.0,0.0,0.0,0.0,0.0,0.0,0.0,0.0,0.0,0.0,0.0,0.0,0.0,0.0,0.0,0.0,0.0,0.0,0.0,0.0,0.0,0.0,0.0,0.0,0.0,0.0,0.0,0.0,0.0,0.0,0.0,0.0,0.0,0.0,0.0,0.0,0.0,0.0,0.0,0.0,0.0,0.0,0.0,0.0,0.0,0.0,0.0,0.0,0.0,0.0,0.0,0.0,0.0,0.0,0.0,0.0,0.0,0.0,0.0,0.0,0.0,0.0,0.0,0.0,0.0,0.0,0.0,0.0,0.0,0.0,0.0,0.0,0.0,0.0,0.0,0.0,0.0,0.0,0.0,0.0,0.0,0.0,0.0,0.0,0.0,0.0,0.0,0.0,0.0,0.0,0.0,0.0,0.0,0.0,0.0,0.0,0.0,0.0,0.0,0.0,0.0,0.0,0.0,0.0,0.0,0.0,0.0,0.0,0.0,0.0,0.0,0.0,0.0,0.0,0.0,0.0,0.0,0.0,0.0,0.0,0.0,0.0,0.0,0.0,0.0,0.0,0.0,0.0,0.0,0.0,0.0,0.0,0.0,0.0,0.0,0.0,0.0,0.0,0.0,0.0,0.0,0.0,0.0,0.0,0.0,0.0,0.0,0.0,0.0,0.0,0.0,0.0,0.0,0.0,0.0,0.0,0.0,0.0,0.0,0.0,0.0,0.0,0.0,0.0,0.0,0.0,0.0,0.0,0.0,0.0,0.0,0.0,0.0,0.0,0.0,0.0,0.0,0.0,0.0,0.0,0.0,0.0,0.0,0.0,0.0,0.0,0.0,0.0,0.0,0.0,0.0,0.0,0.0,0.0,0.0,0.0,0.0,0.0,-3.7974,0.0,0.0,0.0,0.0,0.0,0.0,0.0,0.0,0.0,0.0,0.0,0.0,0.0,0.0,0.0,0.0,0.0,0.0,0.0,0.0,0.0,0.0,0.0,0.0,0.0,0.0,0.0,0.0,0.0,0.0,0.0,0.0,0.0,0.0,0.0,0.0,0.0,0.0,0.0,0.0,0.0,0.0,0.0,0.0,0.0,0.0,0.0,0.0,0.0,0.0,0.0,0.0,0.0,0.0,0.0,0.0,0.0,0.0,0.0,0.0,0.0,0.0,0.0,0.0,0.0,0.0,0.0,0.0,0.0,0.0,0.0,0.0,0.0,0.0,0.0,0.0,0.0,0.0,0.0,0.0,0.0,0.0,0.0,0.0,0.0,0.0,0.0,0.0,0.0,0.0,0.0,0.0,0.0,0.0,0.0,0.0,0.0,0.0,0.0,0.0,0.0,0.0,0.0,0.0,0.0,0.0,0.0,0.0,0.0,0.0,-3.8684,-3.8409,-3.8145,-3.7974,-3.7974,0.0,0.0,0.0,0.0,0.0,0.0,0.0,0.0,0.0,0.0,0.0,0.0,0.0,0.0,0.0,0.0,0.0,0.0,0.0,0.0,0.0,0.0,0.0,0.0,0.0,0.0,0.0,0.0,0.0,0.0,0.0,0.0,0.0,0.0,0.0,0.0,0.0,0.0,0.0,0.0,0.0,0.0,0.0,0.0,0.0,0.0,0.0,0.0,0.0,0.0,0.0,0.0,0.0,0.0,0.0,0.0,0.0,0.0,0.0,0.0,0.0,0.0,0.0,0.0,0.0,0.0,0.0,0.0,0.0,0.0,0.0,0.0,0.0,0.0,0.0,0.0,0.0,0.0,0.0,0.0,0.0,0.0,0.0,0.0,0.0,0.0,0.0,0.0,0.0,0.0,0.0,0.0,0.0,0.0,0.0,0.0,0.0,0.0,0.0,0.0,0.0,0.0,0.0,0.0,0.0,0.0,0.0,0.0,0.0,0.0,0.0,0.0,-3.808,-3.7974,-3.7974,0.0,0.0,0.0,0.0,0.0,0.0,0.0,0.0,0.0,0.0,0.0,0.0,0.0,0.0,0.0,0.0,0.0,0.0,0.0,0.0,0.0,0.0,0.0,0.0,0.0,0.0,0.0,0.0,0.0,0.0,0.0,0.0,0.0,0.0,0.0,0.0,0.0,0.0,0.0,0.0,0.0,0.0,0.0,0.0,0.0,0.0,0.0,0.0,0.0,0.0,0.0,0.0,0.0,0.0,0.0,0.0,0.0,0.0,0.0,0.0,0.0,0.0,0.0,0.0,0.0,0.0,0.0,0.0,0.0,0.0,0.0,0.0,0.0,0.0,0.0,0.0,0.0,0.0,0.0,0.0,0.0,0.0,0.0,0.0,0.0,0.0,0.0,0.0,0.0,0.0,0.0,0.0,0.0,0.0,0.0,0.0,0.0,0.0,0.0,0.0,0.0,0.0,0.0,0.0,0.0,0.0,0.0,0.0,0.0,0.0,-3.8303,-3.8039,-3.8039,0.0,-3.7974,0.0,0.0,0.0,0.0,0.0,0.0,0.0,0.0,0.0,0.0,0.0,0.0,0.0,0.0,0.0,0.0,0.0,0.0,0.0,0.0,0.0,0.0,0.0,0.0,0.0,0.0,0.0,0.0,0.0,0.0,0.0,0.0,0.0,0.0,0.0,0.0,0.0,0.0,0.0,0.0,0.0,0.0,0.0,0.0,0.0,0.0,0.0,0.0,0.0,0.0,0.0,0.0,0.0,0.0,0.0,0.0,0.0,0.0,0.0,0.0,0.0,0.0,0.0,0.0,0.0,0.0,0.0,0.0,0.0,0.0,0.0,0.0,0.0,0.0,0.0,0.0,0.0,0.0,0.0,0.0,0.0,0.0,0.0,0.0,0.0,0.0,0.0,0.0,0.0,0.0,0.0,0.0,0.0,0.0,0.0,0.0,0.0,0.0,0.0,0.0,0.0,0.0,0.0,0.0,0.0,0.0,0.0,0.0,0.0,0.0,-3.825,-3.8027,-3.7974,-3.7974,0.0,0.0,0.0,0.0,0.0,0.0,0.0,0.0,0.0,0.0,0.0,0.0,0.0,0.0,0.0,0.0,0.0,0.0,0.0,0.0,0.0,0.0,0.0,0.0,0.0,0.0,0.0,0.0,0.0,0.0,0.0,0.0,0.0,0.0,0.0,0.0,0.0,0.0,0.0,0.0,0.0,0.0,0.0,0.0,0.0,0.0,0.0,0.0,0.0,0.0,0.0,0.0,0.0,0.0,0.0,0.0,0.0,0.0,0.0,0.0,0.0,0.0,0.0,0.0,0.0,0.0,0.0,0.0,0.0,0.0,0.0,0.0,0.0,0.0,0.0,0.0,0.0,0.0,0.0,0.0,0.0,0.0,0.0,0.0,0.0,0.0,0.0,0.0,0.0,0.0,0.0,0.0,0.0,0.0,0.0,0.0,0.0,0.0,0.0,0.0,0.0,0.0,0.0,0.0,0.0,0.0,0.0,0.0,0.0,0.0,-3.8473,-3.8198,-3.8039,-3.7974,-3.7974,-3.7974,0.0,0.0,0.0,0.0,0.0,0.0,0.0,0.0,0.0,0.0,0.0,0.0,0.0,0.0,0.0,0.0,0.0,0.0,0.0,0.0,0.0,0.0,0.0,0.0,0.0,0.0,0.0,0.0,0.0,0.0,0.0,0.0,0.0,0.0,0.0,0.0,0.0,0.0,0.0,0.0,0.0,0.0,0.0,0.0,0.0,0.0,0.0,0.0,0.0,0.0,0.0,0.0,0.0,0.0,0.0,0.0,0.0,0.0,0.0,0.0,0.0,0.0,0.0,0.0,0.0,0.0,0.0,0.0,0.0,0.0,0.0,0.0,0.0,0.0,0.0,0.0,0.0,0.0,0.0,0.0,0.0,0.0,0.0,0.0,0.0,0.0,0.0,0.0,0.0,0.0,0.0,0.0,0.0,0.0,0.0,0.0,0.0,0.0,0.0,0.0,0.0,0.0,0.0,0.0,0.0,0.0,0.0,0.0,-3.8788,-3.8303,-3.8027,-3.7974,-3.7974,-3.7974,0.0,0.0,0.0,0.0,0.0,0.0,0.0,0.0,0.0,0.0,0.0,0.0,0.0,0.0,0.0,0.0,0.0,0.0,0.0,0.0,0.0,0.0,0.0,0.0,0.0,0.0,0.0,0.0,0.0,0.0,0.0,0.0,0.0,0.0,0.0,0.0,0.0,0.0,0.0,0.0,0.0,0.0,0.0,0.0,0.0,0.0,0.0,0.0,0.0,0.0,0.0,0.0,0.0,0.0,0.0,0.0,0.0,0.0,0.0,0.0,0.0,0.0,0.0,0.0,0.0,0.0,0.0,0.0,0.0,0.0,0.0,0.0,0.0,0.0,0.0,0.0,0.0,0.0,0.0,0.0,0.0,0.0,0.0,0.0,0.0,0.0,0.0,0.0,0.0,0.0,0.0,0.0,0.0,0.0,0.0,0.0,0.0,0.0,0.0,0.0,0.0,0.0,0.0,0.0,0.0,0.0,0.0,0.0,0.0,-3.8788,-3.825,-3.7974,-3.7974,-3.7974,-3.7974,0.0,0.0,0.0,0.0,0.0,0.0,0.0,0.0,0.0,0.0,0.0,0.0,0.0,0.0,0.0,0.0,0.0,0.0,0.0,0.0,0.0,0.0,0.0,0.0,0.0,0.0,0.0,0.0,0.0,0.0,0.0,0.0,0.0,0.0,0.0,0.0,0.0,0.0,0.0,0.0,0.0,0.0,0.0,0.0,0.0,0.0,0.0,0.0,0.0,0.0,0.0,0.0,0.0,0.0,0.0,0.0,0.0,0.0,0.0,0.0,0.0,0.0,0.0,0.0,0.0,0.0,0.0,0.0,0.0,0.0,0.0,0.0,0.0,0.0,0.0,0.0,0.0,0.0,0.0,0.0,0.0,0.0,0.0,0.0,0.0,0.0,0.0,0.0,0.0,0.0,0.0,0.0,0.0,0.0,0.0,0.0,0.0,0.0,0.0,0.0,0.0,0.0,0.0,0.0,0.0,0.0,0.0,0.0,0.0,-3.8514,0.0,-3.7974,-3.7974,-3.7974,-3.7974,0.0,0.0,0.0,0.0,0.0,0.0,0.0,0.0,0.0,0.0,0.0,0.0,0.0,0.0,0.0,0.0,0.0,0.0,0.0,0.0,0.0,0.0,0.0,0.0,0.0,0.0,0.0,0.0,0.0,0.0,0.0,0.0,0.0,0.0,0.0,0.0,0.0,0.0,0.0,0.0,0.0,0.0,0.0,0.0,0.0,0.0,0.0,0.0,0.0,0.0,0.0,0.0,0.0,0.0,0.0,0.0,0.0,0.0,0.0,0.0,0.0,0.0,0.0,0.0,0.0,0.0,0.0,0.0,0.0,0.0,0.0,0.0,0.0,0.0,0.0,0.0,0.0,0.0,0.0,0.0,0.0,0.0,0.0,0.0,0.0,0.0,0.0,0.0,0.0,0.0,0.0,0.0,0.0,0.0,0.0,0.0,0.0,0.0,0.0,0.0,0.0,0.0,0.0,0.0,0.0,0.0,0.0,0.0,-3.8526,-3.8051,-3.801,-3.8022,-3.7986,-3.801,-3.7998,0.0,0.0,0.0,0.0,0.0,0.0,0.0,0.0,0.0,0.0,0.0,0.0,0.0,0.0,0.0,0.0,0.0,0.0,0.0,0.0,0.0,0.0,0.0,0.0,0.0,0.0,0.0,0.0,0.0,0.0,0.0,0.0,0.0,0.0,0.0,0.0,0.0,0.0,0.0,0.0,0.0,0.0,0.0,0.0,0.0,0.0,0.0,0.0,0.0,0.0,0.0,0.0,0.0,0.0,0.0,0.0,0.0,0.0,0.0,0.0,0.0,0.0,0.0,0.0,0.0,0.0,0.0,0.0,0.0,0.0,0.0,0.0,0.0,0.0,0.0,0.0,0.0,0.0,0.0,0.0,0.0,0.0,0.0,0.0,0.0,0.0,0.0,0.0,0.0,0.0,0.0,0.0,0.0,0.0,0.0,0.0,0.0,0.0,0.0,0.0,0.0,0.0,0.0,0.0,0.0,0.0,0.0,0.0,0.0,-3.8563,-3.8563,-3.8563,-3.8563,-3.8551,-3.8383,0.0,0.0,0.0,0.0,0.0,0.0,0.0,0.0,0.0,0.0,0.0,0.0,0.0,0.0,0.0,0.0,0.0,0.0,0.0,0.0,0.0,0.0,0.0,0.0,0.0,0.0,0.0,0.0,0.0,0.0,0.0,0.0,0.0,0.0,0.0,0.0,0.0,0.0,0.0,0.0,0.0,0.0,0.0,0.0,0.0,0.0,0.0,0.0,0.0,0.0,0.0,0.0,0.0,0.0,0.0,0.0,0.0,0.0,0.0,0.0,0.0,0.0,0.0,0.0,0.0,0.0,0.0,0.0,0.0,0.0,0.0,0.0,0.0,0.0,0.0,0.0,0.0,0.0,0.0,0.0,0.0,0.0,0.0,0.0,0.0,0.0,0.0,0.0,0.0,0.0,0.0,0.0,0.0,0.0,0.0,0.0,0.0,0.0,0.0,0.0,0.0,0.0,0.0,0.0,0.0,0.0,0.0,0.0,0.0,-3.9381,-3.9224,-3.9116,-3.9116,-3.8924,-3.8647,-3.831,0.0,0.0,0.0,0.0,0.0,0.0,0.0,0.0,0.0,0.0,0.0,0.0,0.0,0.0,0.0,0.0,0.0,0.0,0.0,0.0,0.0,0.0,0.0,0.0,0.0,0.0,0.0,0.0,0.0,0.0,0.0,0.0,0.0,0.0,0.0,0.0,0.0,0.0,0.0,0.0,0.0,0.0,0.0,0.0,0.0,0.0,0.0,0.0,0.0,0.0,0.0,0.0,0.0,0.0,0.0,0.0,0.0,0.0,0.0,0.0,0.0,0.0,0.0,0.0,0.0,0.0,0.0,0.0,0.0,0.0,0.0,0.0,0.0,0.0,0.0,0.0,0.0,0.0,0.0,0.0,0.0,0.0,0.0,0.0,0.0,0.0,0.0,0.0,0.0,0.0,0.0,0.0,0.0,0.0,0.0,0.0,0.0,0.0,0.0,0.0,0.0,0.0,0.0,0.0,0.0,0.0,0.0,0.0,-4.0427,-3.9982,-3.9717,-3.9645,-3.9176,-3.8876,0.0,0.0,0.0,0.0,0.0,0.0,0.0,0.0,0.0,0.0,0.0,0.0,0.0,0.0,0.0,0.0,0.0,0.0,0.0,0.0,0.0,0.0,0.0,0.0,0.0,0.0,0.0,0.0,0.0,0.0,0.0,0.0,0.0,0.0,0.0,0.0,0.0,0.0,0.0,0.0,0.0,0.0,0.0,0.0,0.0,0.0,0.0,0.0,0.0,0.0,0.0,0.0,0.0,0.0,0.0,0.0,0.0,0.0,0.0,0.0,0.0,0.0,0.0,0.0,0.0,0.0,0.0,0.0,0.0,0.0,0.0,0.0,0.0,0.0,0.0,0.0,0.0,0.0,0.0,0.0,0.0,0.0,0.0,0.0,0.0,0.0,0.0,0.0,0.0,0.0,0.0,0.0,0.0,0.0,0.0,0.0,0.0,0.0,0.0,0.0,0.0,0.0,0.0,0.0,0.0,0.0,0.0,0.0,0.0,-4.092,-4.122,-4.0968,-4.0222,-4.0042,-3.9621,0.0,0.0,0.0,0.0,0.0,0.0,0.0,0.0,0.0,0.0,0.0,0.0,0.0,0.0,0.0,0.0,0.0,0.0,0.0,0.0,0.0,0.0,0.0,0.0,0.0,0.0,0.0,0.0,0.0,0.0,0.0,0.0,0.0,0.0,0.0,0.0,0.0,0.0,0.0,0.0,0.0,0.0,0.0,0.0,0.0,0.0,0.0,0.0,0.0,0.0,0.0,0.0,0.0,0.0,0.0,0.0,0.0,0.0,0.0,0.0,0.0,0.0,0.0,0.0,0.0,0.0,0.0,0.0,0.0,0.0,0.0,0.0,0.0,0.0,0.0,0.0,0.0,0.0,0.0,0.0,0.0,0.0,0.0,0.0,0.0,0.0,0.0,0.0,0.0,0.0,0.0,0.0,0.0,0.0,0.0,0.0,0.0,0.0,0.0,0.0,0.0,0.0,0.0,0.0,0.0,0.0,0.0,0.0,-4.0983,-4.1555,-4.2038,-4.1964,-4.1088,-4.0848,-4.0234,0.0,0.0,0.0,0.0,0.0,0.0,0.0,0.0,0.0,0.0,0.0,0.0,0.0,0.0,0.0,0.0,0.0,0.0,0.0,0.0,0.0,0.0,0.0,0.0,0.0,0.0,0.0,0.0,0.0,0.0,0.0,0.0,0.0,0.0,0.0,0.0,0.0,0.0,0.0,0.0,0.0,0.0,0.0,0.0,0.0,0.0,0.0,0.0,0.0,0.0,0.0,0.0,0.0,0.0,0.0,0.0,0.0,0.0,0.0,0.0,0.0,0.0,0.0,0.0,0.0,0.0,0.0,0.0,0.0,0.0,0.0,0.0,0.0,0.0,0.0,0.0,0.0,0.0,0.0,0.0,0.0,0.0,0.0,0.0,0.0,0.0,0.0,0.0,0.0,0.0,0.0,0.0,0.0,0.0,0.0,0.0,0.0,0.0,0.0,0.0,0.0,0.0,0.0,0.0,0.0,0.0,0.0,0.0,-4.1783,-4.2109,-4.2627,-4.2663,-4.2134,-4.1569,-4.0739,0.0,0.0,0.0,0.0,0.0,0.0,0.0,0.0,0.0,0.0,0.0,0.0,0.0,0.0,0.0,0.0,0.0,0.0,0.0,0.0,0.0,0.0,0.0,0.0,0.0,0.0,0.0,0.0,0.0,0.0,0.0,0.0,0.0,0.0,0.0,0.0,0.0,0.0,0.0,0.0,0.0,0.0,0.0,0.0,0.0,0.0,0.0,0.0,0.0,0.0,0.0,0.0,0.0,0.0,0.0,0.0,0.0,0.0,0.0,0.0,0.0,0.0,0.0,0.0,0.0,0.0,0.0,0.0,0.0,0.0,0.0,0.0,0.0,0.0,0.0,0.0,0.0,0.0,0.0,0.0,0.0,0.0,0.0,0.0,0.0,0.0,0.0,0.0,0.0,0.0,0.0,0.0,0.0,0.0,0.0,0.0,0.0,0.0,0.0,0.0,0.0,0.0,0.0,0.0,0.0,0.0,0.0,0.0,-4.2253,-4.2935,-4.3204,-4.3289,-4.318,-4.2291,-4.1124,0.0,0.0,0.0,0.0,0.0,0.0,0.0,0.0,0.0,0.0,0.0,0.0,0.0,0.0,0.0,0.0,0.0,0.0,0.0,0.0,0.0,0.0,0.0,0.0,0.0,0.0,0.0,0.0,0.0,0.0,0.0,0.0,0.0,0.0,0.0,0.0,0.0,0.0,0.0,0.0,0.0,0.0,0.0,0.0,0.0,0.0,0.0,0.0,-3.0269,0.0,0.0,0.0,0.0,0.0,0.0,0.0,0.0,0.0,0.0,0.0,0.0,0.0,0.0,0.0,0.0,0.0,0.0,0.0,0.0,0.0,0.0,0.0,0.0,0.0,0.0,0.0,0.0,0.0,0.0,0.0,0.0,0.0,0.0,0.0,0.0,0.0,0.0,0.0,0.0,0.0,0.0,0.0,0.0,0.0,0.0,0.0,0.0,0.0,0.0,0.0,0.0,0.0,0.0,0.0,0.0,0.0,0.0,0.0,-4.3072,-4.3188,-4.3808,-4.3783,-4.3156,-4.2627,-4.1605,0.0,0.0,0.0,0.0,0.0,0.0,0.0,0.0,0.0,0.0,0.0,0.0,0.0,0.0,0.0,0.0,0.0,0.0,0.0,0.0,0.0,0.0,0.0,0.0,0.0,0.0,0.0,0.0,0.0,0.0,0.0,0.0,0.0,0.0,0.0,0.0,0.0,0.0,0.0,0.0,0.0,0.0,0.0,0.0,0.0,0.0,0.0,0.0,0.0,0.0,0.0,0.0,0.0,0.0,0.0,0.0,0.0,0.0,0.0,0.0,0.0,0.0,0.0,0.0,0.0,0.0,0.0,0.0,0.0,0.0,0.0,0.0,0.0,0.0,0.0,0.0,0.0,0.0,0.0,0.0,0.0,0.0,0.0,0.0,0.0,0.0,0.0,0.0,0.0,0.0,0.0,0.0,0.0,0.0,0.0,0.0,0.0,0.0,0.0,0.0,0.0,0.0,0.0,0.0,0.0,0.0,0.0,-4.3299,-4.3943,-4.3343,-4.4293,-4.4171,-4.2976,-4.2855,-4.2026,-4.0463,0.0,0.0,0.0,0.0,0.0,0.0,0.0,0.0,0.0,0.0,0.0,0.0,0.0,0.0,0.0,0.0,0.0,0.0,0.0,0.0,0.0,0.0,0.0,0.0,0.0,0.0,0.0,0.0,0.0,0.0,0.0,0.0,0.0,0.0,0.0,0.0,0.0,0.0,-3.7747,-3.5972,0.0,0.0,0.0,0.0,0.0,0.0,0.0,0.0,-2.7716,0.0,0.0,0.0,0.0,0.0,0.0,0.0,0.0,0.0,0.0,0.0,0.0,0.0,0.0,0.0,0.0,0.0,0.0,0.0,0.0,0.0,0.0,0.0,0.0,0.0,0.0,0.0,0.0,0.0,0.0,0.0,0.0,0.0,0.0,0.0,0.0,0.0,0.0,0.0,0.0,0.0,0.0,0.0,0.0,0.0,0.0,0.0,0.0,0.0,0.0,0.0,0.0,0.0,0.0,0.0,0.0,-4.2341,-4.3771,-4.4236,-4.3674,-4.4402,-4.4353,-4.3409,-4.2976,-4.2014,-4.0487,0.0,0.0,0.0,0.0,0.0,0.0,0.0,0.0,0.0,0.0,0.0,0.0,0.0,0.0,0.0,0.0,0.0,0.0,0.0,0.0,0.0,0.0,0.0,0.0,0.0,0.0,0.0,0.0,0.0,0.0,0.0,0.0,0.0,0.0,0.0,0.0,0.0,0.0,0.0,-3.5232,-3.4037,0.0,0.0,0.0,0.0,0.0,0.0,0.0,0.0,-2.6308,0.0,0.0,0.0,0.0,0.0,0.0,0.0,0.0,0.0,0.0,0.0,0.0,0.0,0.0,0.0,0.0,0.0,0.0,0.0,0.0,0.0,0.0,0.0,0.0,0.0,0.0,0.0,0.0,0.0,0.0,0.0,0.0,0.0,0.0,0.0,0.0,0.0,0.0,0.0,0.0,0.0,0.0,0.0,0.0,0.0,0.0,0.0,0.0,0.0,0.0,0.0,0.0,0.0,0.0,0.0,-4.2866,-4.412,-4.4631,-4.419,-4.4765,-4.45,-4.3373,-4.2734,-4.1663,0.0,0.0,0.0,0.0,0.0,0.0,0.0,0.0,0.0,0.0,0.0,0.0,0.0,0.0,0.0,0.0,0.0,0.0,0.0,0.0,0.0,0.0,0.0,0.0,0.0,0.0,0.0,0.0,0.0,0.0,0.0,0.0,0.0,0.0,0.0,0.0,0.0,0.0,0.0,0.0,-3.409,-3.2956,-3.1754,0.0,0.0,0.0,0.0,0.0,0.0,-2.5442,-2.4827,0.0,0.0,0.0,0.0,0.0,0.0,0.0,0.0,0.0,0.0,0.0,0.0,0.0,0.0,0.0,0.0,0.0,0.0,0.0,0.0,0.0,0.0,0.0,0.0,0.0,0.0,0.0,0.0,0.0,0.0,0.0,0.0,0.0,0.0,0.0,0.0,0.0,0.0,0.0,0.0,0.0,0.0,0.0,0.0,0.0,0.0,0.0,0.0,0.0,0.0,0.0,0.0,0.0,0.0,0.0,-4.314,-4.4622,-4.5093,-4.4669,-4.5062,-4.4631,-4.3223,-4.2369,-4.117,0.0,0.0,0.0,0.0,0.0,0.0,0.0,0.0,0.0,0.0,0.0,0.0,0.0,0.0,0.0,0.0,0.0,0.0,0.0,0.0,0.0,0.0,0.0,0.0,0.0,0.0,0.0,0.0,0.0,0.0,0.0,0.0,0.0,0.0,0.0,0.0,0.0,0.0,0.0,0.0,0.0,-3.1873,-3.0732,-2.943,0.0,0.0,0.0,0.0,-2.4895,-2.4081,0.0,0.0,0.0,0.0,0.0,0.0,0.0,0.0,0.0,0.0,0.0,0.0,0.0,0.0,0.0,0.0,0.0,0.0,0.0,0.0,0.0,0.0,0.0,0.0,0.0,0.0,0.0,0.0,0.0,0.0,0.0,0.0,0.0,0.0,0.0,0.0,0.0,0.0,0.0,0.0,0.0,0.0,0.0,0.0,0.0,0.0,0.0,0.0,0.0,0.0,0.0,0.0,0.0,0.0,0.0,0.0,-4.3466,-4.5271,-4.5698,-4.4702,-4.5187,-4.4739,-4.3258,-4.2168,-4.1011,0.0,0.0,0.0,0.0,0.0,0.0,0.0,0.0,0.0,0.0,0.0,0.0,0.0,0.0,0.0,0.0,0.0,0.0,0.0,0.0,0.0,0.0,0.0,0.0,0.0,0.0,0.0,0.0,0.0,0.0,0.0,0.0,0.0,0.0,0.0,0.0,0.0,0.0,0.0,0.0,0.0,-3.135,-2.9731,-2.8559,-2.7443,0.0,0.0,-2.4523,-2.4067,-2.2894,0.0,0.0,0.0,0.0,0.0,0.0,0.0,0.0,0.0,0.0,0.0,0.0,0.0,0.0,0.0,0.0,0.0,0.0,0.0,0.0,0.0,0.0,0.0,0.0,0.0,0.0,0.0,0.0,0.0,0.0,0.0,0.0,0.0,0.0,0.0,0.0,0.0,0.0,0.0,0.0,0.0,0.0,0.0,0.0,0.0,0.0,0.0,0.0,0.0,0.0,0.0,0.0,0.0,0.0,0.0,-4.4449,-4.4109,-4.535,-4.5641,-4.4921,-4.4938,-4.444,-4.3312,-4.1887,-4.0736,0.0,0.0,0.0,0.0,0.0,0.0,0.0,0.0,0.0,0.0,0.0,0.0,0.0,0.0,0.0,0.0,0.0,0.0,0.0,0.0,0.0,0.0,0.0,0.0,0.0,0.0,0.0,0.0,0.0,0.0,0.0,0.0,0.0,0.0,0.0,0.0,0.0,0.0,0.0,0.0,0.0,0.0,-2.8854,-2.7567,0.0,0.0,0.0,-2.3154,-2.2771,0.0,0.0,0.0,0.0,0.0,0.0,0.0,0.0,0.0,0.0,0.0,0.0,0.0,0.0,0.0,0.0,0.0,0.0,0.0,0.0,0.0,0.0,0.0,0.0,0.0,0.0,0.0,0.0,0.0,0.0,0.0,0.0,0.0,0.0,0.0,0.0,0.0,0.0,0.0,0.0,0.0,0.0,0.0,0.0,0.0,0.0,0.0,0.0,0.0,0.0,0.0,0.0,0.0,0.0,0.0,0.0,0.0,-4.4577,-4.5289,-4.5467,-4.5222,-4.4833,-4.4287,-4.3485,-4.1761,0.0,0.0,0.0,0.0,0.0,0.0,0.0,0.0,0.0,0.0,0.0,0.0,0.0,0.0,0.0,0.0,0.0,0.0,0.0,0.0,0.0,0.0,0.0,0.0,0.0,0.0,0.0,-3.8773,0.0,0.0,0.0,0.0,0.0,0.0,0.0,0.0,0.0,0.0,0.0,0.0,0.0,0.0,-2.8884,-2.7736,-2.6447,-2.53,0.0,0.0,-2.1688,-2.1239,-1.9722,-1.8631,0.0,0.0,0.0,0.0,0.0,0.0,0.0,0.0,0.0,0.0,0.0,0.0,0.0,0.0,0.0,0.0,0.0,0.0,0.0,0.0,0.0,0.0,0.0,0.0,0.0,0.0,0.0,0.0,0.0,0.0,0.0,0.0,0.0,0.0,0.0,0.0,0.0,0.0,0.0,0.0,0.0,0.0,0.0,0.0,0.0,0.0,0.0,0.0,0.0,0.0,0.0,0.0,0.0,0.0,-4.4541,-4.4627,-4.5246,-4.5605,-4.5542,-4.5025,-4.4395,-4.3777,-4.1903,-4.0772,0.0,0.0,0.0,0.0,0.0,0.0,0.0,0.0,0.0,0.0,0.0,0.0,0.0,0.0,0.0,0.0,0.0,0.0,0.0,0.0,0.0,0.0,0.0,0.0,0.0,0.0,0.0,0.0,0.0,0.0,0.0,0.0,0.0,0.0,0.0,0.0,0.0,0.0,0.0,0.0,0.0,-2.7676,-2.6021,-2.5108,-2.4088,0.0,-2.1489,-2.04,-1.9478,-1.8137,-1.7037,-1.6655,0.0,0.0,0.0,0.0,0.0,0.0,0.0,0.0,0.0,0.0,0.0,0.0,0.0,0.0,0.0,0.0,0.0,0.0,0.0,0.0,0.0,0.0,0.0,0.0,0.0,0.0,0.0,0.0,0.0,0.0,0.0,0.0,0.0,0.0,0.0,0.0,0.0,0.0,0.0,0.0,0.0,0.0,0.0,0.0,0.0,0.0,0.0,0.0,0.0,0.0,0.0,0.0,0.0,-4.447,-4.5089,-4.5362,-4.5501,-4.5334,-4.4898,-4.4335,-4.3556,-4.202,-4.106,0.0,0.0,0.0,0.0,0.0,0.0,0.0,0.0,0.0,0.0,0.0,0.0,0.0,0.0,0.0,0.0,0.0,0.0,0.0,0.0,0.0,0.0,0.0,0.0,0.0,0.0,0.0,0.0,-3.8137,-3.7902,-3.7189,0.0,0.0,0.0,0.0,0.0,0.0,0.0,0.0,0.0,0.0,-2.6136,-2.4855,-2.3749,0.0,0.0,-1.9714,-1.8596,-1.7789,-1.6298,-1.5238,-1.5095,-1.4325,0.0,0.0,0.0,0.0,0.0,0.0,0.0,0.0,0.0,0.0,0.0,0.0,0.0,0.0,0.0,0.0,0.0,0.0,0.0,0.0,0.0,0.0,0.0,0.0,0.0,0.0,0.0,0.0,0.0,0.0,0.0,0.0,0.0,0.0,0.0,0.0,0.0,0.0,0.0,0.0,0.0,0.0,0.0,0.0,0.0,0.0,0.0,0.0,0.0,0.0,0.0,0.0,-4.4296,-4.5487,-4.5325,-4.5344,-4.5529,-4.4992,-4.4396,-4.381,-4.2506,-4.1559,0.0,0.0,0.0,0.0,0.0,0.0,0.0,0.0,0.0,0.0,0.0,0.0,0.0,0.0,0.0,0.0,0.0,0.0,0.0,0.0,0.0,0.0,0.0,0.0,0.0,0.0,0.0,0.0,-3.7186,-3.6598,-3.5668,0.0,0.0,0.0,0.0,0.0,0.0,0.0,0.0,0.0,0.0,-2.4672,-2.3479,-2.2232,-2.0914,-1.9444,-1.8154,-1.699,-1.6063,-1.4787,-1.3773,-1.3527,0.0,0.0,0.0,0.0,0.0,0.0,0.0,0.0,0.0,0.0,0.0,0.0,0.0,0.0,0.0,0.0,0.0,0.0,0.0,0.0,0.0,0.0,0.0,0.0,0.0,0.0,0.0,-4.0542,0.0,0.0,-4.0427,0.0,0.0,0.0,0.0,0.0,0.0,0.0,0.0,0.0,0.0,0.0,0.0,0.0,0.0,0.0,0.0,0.0,0.0,0.0,0.0,0.0,0.0,-4.3988,-4.5769,-4.503,-4.5197,-4.6282,-4.5315,-4.4735,-4.46,-4.331,-4.2328,-4.1783,0.0,0.0,0.0,0.0,0.0,0.0,0.0,0.0,0.0,0.0,0.0,0.0,0.0,0.0,0.0,0.0,0.0,0.0,0.0,0.0,0.0,0.0,0.0,0.0,0.0,0.0,-3.712,-3.6228,-3.5191,0.0,0.0,0.0,0.0,0.0,0.0,0.0,0.0,0.0,-2.5843,-2.4766,-2.3517,-2.1774,-2.0657,-1.9427,-1.8021,-1.6897,-1.5787,-1.4437,-1.3631,-1.2794,0.0,0.0,0.0,0.0,0.0,0.0,0.0,0.0,0.0,0.0,0.0,0.0,0.0,0.0,0.0,0.0,0.0,0.0,0.0,0.0,0.0,0.0,0.0,0.0,0.0,0.0,0.0,-4.0351,-4.0516,0.0,0.0,0.0,0.0,0.0,0.0,0.0,0.0,0.0,0.0,0.0,-4.36,-4.3709,0.0,0.0,0.0,0.0,0.0,0.0,0.0,0.0,0.0,0.0,0.0,0.0,-4.3757,-4.5671,-4.555,-4.5742,-4.6387,-4.6007,-4.5462,-4.4709,-4.3905,-4.274,-4.1225,0.0,0.0,0.0,0.0,0.0,0.0,0.0,0.0,0.0,0.0,0.0,0.0,0.0,0.0,0.0,0.0,0.0,0.0,0.0,0.0,0.0,0.0,0.0,0.0,0.0,-3.696,0.0,0.0,0.0,0.0,0.0,0.0,0.0,0.0,0.0,0.0,0.0,-2.6185,-2.5085,-2.3693,-2.2131,-2.047,-1.933,-1.8083,0.0,0.0,0.0,0.0,0.0,0.0,0.0,0.0,0.0,0.0,0.0,0.0,0.0,0.0,-0.7563,-0.7704,-0.7608,-0.7323,-0.6877,0.0,0.0,0.0,0.0,0.0,0.0,0.0,0.0,0.0,0.0,0.0,0.0,0.0,0.0,-4.0236,0.0,-4.0644,0.0,0.0,0.0,0.0,0.0,0.0,0.0,0.0,-4.345,-4.3511,-4.3813,-4.3896,-4.3994,0.0,-4.3843,-4.3463,0.0,0.0,0.0,0.0,0.0,0.0,0.0,0.0,-4.368,-4.5525,-4.5748,-4.6034,-4.6504,-4.6424,-4.606,-4.5301,-4.4176,-4.2838,-4.1237,-3.9992,-3.8968,0.0,0.0,0.0,0.0,0.0,0.0,0.0,0.0,0.0,0.0,0.0,0.0,0.0,0.0,0.0,0.0,0.0,0.0,0.0,0.0,0.0,0.0,0.0,-3.5962,0.0,0.0,0.0,0.0,0.0,0.0,0.0,0.0,0.0,-2.7302,-2.6201,-2.4967,-2.4024,-2.2598,-2.0963,-1.9252,0.0,0.0,0.0,0.0,0.0,0.0,0.0,-1.025,-0.9383,-0.8848,-0.8197,-0.7161,-0.6568,-0.6009,-0.5527,0.0,0.0,-0.6442,-0.6262,-0.5959,-0.5778,-0.5307,-0.4905,-0.4572,-0.3662,-0.289,0.0,0.0,0.0,0.0,0.0,0.0,0.0,0.0,-4.0056,-4.0326,0.0,-4.1062,0.0,0.0,0.0,0.0,-4.2066,-4.238,0.0,0.0,-4.3162,-4.3469,-4.4168,-4.4422,-4.4466,-4.4258,-4.465,-4.4266,-4.3171,-4.2437,0.0,0.0,0.0,0.0,0.0,0.0,-4.3684,-4.5296,-4.5609,-4.6138,-4.6757,-4.6531,-4.6401,-4.6348,-4.4215,-4.2631,-4.1839,-4.0718,-3.9472,-3.8167,-3.7576,0.0,0.0,0.0,0.0,0.0,0.0,0.0,0.0,0.0,0.0,0.0,0.0,0.0,0.0,0.0,0.0,0.0,0.0,0.0,0.0,-3.5522,0.0,0.0,0.0,0.0,0.0,0.0,0.0,0.0,0.0,0.0,-2.5651,-2.4709,-2.3592,-2.2652,0.0,0.0,0.0,0.0,-1.5443,-1.4071,-1.3223,-1.2239,-1.085,-1.0379,-0.9779,-0.8717,0.0,0.0,-0.6094,-0.5696,-0.5259,-0.4556,-0.4465,-0.4699,-0.5424,-0.5207,-0.5014,-0.5,-0.4413,-0.3879,-0.3481,-0.2766,-0.2037,-4.1367,0.0,0.0,0.0,0.0,-4.0865,-4.0865,-4.0865,-4.0905,-4.1117,-4.1343,-4.1324,0.0,0.0,0.0,0.0,0.0,0.0,-4.3352,-4.3648,-4.3624,-4.3806,-4.4208,-4.4259,-4.4482,-4.4833,-4.4676,-4.4519,-4.4369,-4.3508,-4.2826,-4.2281,0.0,0.0,0.0,0.0,-4.3956,-4.5496,-4.5698,-4.6062,-4.6779,-4.6722,-4.659,-4.6401,-4.4215,-4.2775,-4.2368,-4.0926,-3.9751,-3.8983,-3.7887,0.0,0.0,0.0,0.0,0.0,0.0,0.0,0.0,0.0,0.0,0.0,0.0,0.0,0.0,0.0,0.0,0.0,0.0,0.0,-3.5367,-3.4924,-3.4227,0.0,0.0,0.0,0.0,0.0,0.0,0.0,0.0,0.0,-2.3503,-2.3127,-2.2562,0.0,0.0,-1.8914,-1.7184,-1.5959,-1.4721,-1.3354,-1.2305,0.0,-1.018,-0.9452,-0.8584,-0.7321,-0.63,-0.548,-0.4931,-0.465,-0.4267,-0.3768,-0.3738,-0.3848,-0.4018,-0.4022,-0.3953,-0.3897,-0.3342,-0.2773,-0.2332,-0.1435,-0.0454,-4.2283,-4.1944,-4.1476,-4.1275,-4.1275,-4.1275,-4.1275,-4.1275,-4.1275,-4.1436,-4.1719,-4.1666,-4.1892,-4.2306,-4.2325,0.0,0.0,0.0,-4.3675,-4.4158,-4.4041,-4.4265,-4.4738,-4.4855,-4.5043,-4.5284,-4.528,-4.5072,-4.4733,-4.4391,-4.3825,-4.3052,0.0,0.0,-4.3977,-4.386,-4.4355,-4.5419,-4.5732,-4.6039,-4.6336,-4.6405,-4.6183,-4.5682,-4.4022,-4.2915,-4.2437,-4.1017,-3.9879,-3.9141,-3.7939,-3.707,0.0,0.0,0.0,0.0,0.0,0.0,0.0,0.0,0.0,0.0,0.0,-3.4211,-3.3977,0.0,0.0,0.0,-3.499,-3.4966,-3.4647,-3.4121,0.0,0.0,0.0,0.0,0.0,0.0,0.0,-2.5427,-2.4319,-2.324,-2.2281,-2.1795,-2.1257,-2.0423,-1.9234,-1.7888,-1.6278,0.0,-1.4002,-1.2634,-1.1644,-1.0585,-0.9449,-0.8692,-0.766,-0.6145,-0.5255,-0.4612,-0.4301,-0.4,-0.3675,-0.3318,-0.3264,-0.3148,-0.2892,-0.2836,-0.2921,-0.2996,-0.2345,-0.1601,-0.1144,-0.023,0.0768,-4.2986,-4.2886,-4.1894,-4.1426,-4.1413,-4.1413,-4.1413,-4.1413,-4.1413,-4.1575,-4.1872,-4.214,-4.2432,-4.2722,-4.3218,0.0,-4.4224,-4.3763,-4.4029,-4.4744,-4.452,-4.4838,-4.5649,-4.5901,-4.5909,-4.5706,-4.6177,-4.581,-4.4746,-4.5078,-4.4983,-4.4352,-4.3768,-4.3844,-4.4583,-4.4598,-4.478,-4.5124,-4.577,-4.5944,-4.5732,-4.5783,-4.5451,-4.4701,-4.3895,-4.3085,-4.2262,-4.1104,-3.9994,-3.8906,-3.7829,-3.6886,-3.6038,0.0,0.0,0.0,0.0,0.0,0.0,0.0,0.0,0.0,0.0,0.0,0.0,0.0,0.0,-3.4313,-3.4361,0.0,-3.3899,-3.314,0.0,0.0,0.0,-2.9116,-2.7827,-2.6548,-2.5453,-2.4598,0.0,0.0,-2.165,-2.0598,-1.9691,-1.898,-1.8045,-1.6861,-1.5504,-1.4417,-1.3309,-1.1943,-1.1084,-1.0155,-0.8842,-0.797,-0.6829,-0.5315,-0.468,-0.4356,-0.394,-0.3686,-0.3279,-0.2914,-0.2843,-0.2635,-0.1927,-0.1801,-0.1818,-0.2123,-0.1302,-0.0463,0.0077,0.0778,0.1646,-4.2986,-4.2961,-4.2698,-4.2597,-4.2585,-4.2585,-4.2585,-4.2585,-4.2585,-4.2738,-4.2975,-4.2882,-4.2965,-4.3309,-4.358,-4.4012,-4.4594,-4.4659,-4.4927,-4.5382,-4.5329,-4.5515,-4.5914,-4.5954,-4.6216,-4.655,-4.6472,-4.6353,-4.622,-4.5594,-4.5421,-4.5577,-4.4995,-4.4735,-4.482,-4.4849,-4.5035,-4.5398,-4.5571,-4.5656,-4.5704,-4.5976,-4.5874,-4.528,-4.4244,-4.3322,-4.2541,-4.103,-3.9899,-3.9158,-3.7531,-3.6505,-3.6333,-3.5369,0.0,0.0,0.0,0.0,0.0,0.0,0.0,0.0,0.0,-3.4136,-3.3679,0.0,-3.4324,0.0,-3.3975,-3.3582,-3.3073,-3.241,0.0,0.0,-2.9683,-2.8687,-2.7668,-2.6405,-2.525,-2.4292,-2.3282,-2.2151,-2.0824,-1.9697,-1.8538,-1.7401,-1.6702,-1.5839,-1.4464,-1.3477,-1.2429,-1.1301,-1.037,-0.948,-0.8512,-0.7087,-0.5742,-0.4755,-0.4353,-0.3875,-0.326,-0.3127,-0.2917,-0.2552,-0.2406,-0.2272,-0.1853,-0.1276,-0.0759,-0.0613,-0.031,0.0235,0.125,0.1881,0.2671,-4.2986,-4.2986,-4.2986,-4.2986,-4.2986,-4.2986,-4.2986,-4.3042,-4.3129,-4.3295,-4.3424,-4.3637,-4.3934,-4.4283,-4.4466,-4.4835,-4.5286,-4.5313,-4.55,-4.5742,-4.5755,-4.5901,-4.6165,-4.6337,-4.6665,-4.7081,-4.7007,-4.692,-4.6765,-4.616,-4.594,-4.6095,-4.5545,-4.5317,-4.5343,-4.5329,-4.5473,-4.5685,-4.5549,-4.5479,-4.5466,-4.5539,-4.5214,-4.447,-4.3595,-4.2749,-4.1799,-4.0432,-3.9416,-3.8732,-3.7244,-3.6321,-3.6027,-3.5247,-3.4775,0.0,0.0,0.0,0.0,0.0,0.0,0.0,0.0,0.0,0.0,0.0,-3.4513,-3.4153,-3.3423,-3.2815,-3.2397,-3.1651,-3.0906,-3.0143,-2.9289,-2.8315,-2.7227,-2.6056,-2.4991,-2.3981,-2.2728,-2.16,-2.0501,-1.9235,-1.8048,-1.6772,-1.5816,-1.4863,-1.3804,-1.2883,-1.1923,-1.0701,-0.9805,-0.8761,-0.761,-0.6146,-0.497,-0.4384,-0.3894,-0.3328,-0.2986,-0.277,-0.2552,-0.2333,-0.2187,-0.1976,-0.1556,-0.0822,-0.0075,0.0691,0.1008,0.1326,0.2039,0.2905,0.3925,-4.2986,-4.2986,-4.2986,-4.3042,-4.3085,-4.3017,-4.303,-4.3073,-4.3283,-4.3449,-4.3615,-4.4396,-4.4964,-4.5341,-4.5609,-4.5861,-4.6126,-4.5914,-4.5914,-4.6179,-4.6179,-4.6284,-4.6533,-4.6807,-4.7081,-4.7353,-4.761,-4.7485,-4.7005,-4.682,-4.6585,-4.6271,-4.5873,-4.5727,-4.588,-4.588,-4.588,-4.588,-4.5685,-4.5398,-4.5124,-4.4837,-4.4231,-4.3143,-4.2582,-4.1813,-4.0737,-3.9698,-3.8768,-3.8031,-3.6907,-3.6088,-3.5707,-3.5223,-3.4919,0.0,-3.5473,0.0,0.0,0.0,0.0,0.0,0.0,0.0,0.0,-3.4631,-3.4625,-3.3963,-3.2815,-3.2039,-3.188,-3.0974,-3.0148,-2.9546,-2.878,-2.7836,-2.6647,-2.5566,-2.4533,-2.3478,-2.2202,-2.111,-2.0178,-1.8923,-1.7662,-1.6538,-1.5229,-1.4117,-1.3291,-1.2517,-1.1535,-1.0149,-0.9196,-0.8001,-0.643,-0.523,-0.4457,-0.4068,-0.3422,-0.2917,-0.277,-0.2552,-0.226,-0.2187,-0.1968,-0.161,-0.1183,-0.0371,0.0524,0.1679,0.2384,0.279,0.2974,0.3925,0.5021,-4.2986,-4.2986,-4.2986,-4.3141,-4.3338,-4.3351,-4.3351,-4.3338,-4.3381,-4.378,-4.445,-4.4897,-4.5381,-4.5861,-4.6112,-4.6428,-4.6717,-4.6873,-4.6977,-4.7029,-4.7029,-4.7081,-4.7133,-4.7198,-4.7353,-4.761,-4.7661,-4.7847,-4.8147,-4.7638,-4.7321,-4.7152,-4.6566,-4.6189,-4.5909,0.0,0.0,0.0,-4.5835,-4.5595,-4.511,-4.4578,-4.3916,-4.3115,-4.2339,0.0,-4.0696,-3.9493,-3.8558,-3.798,-3.6593,0.0,0.0,0.0,0.0,0.0,0.0,0.0,0.0,0.0,0.0,0.0,-3.5546,-3.5278,-3.4614,-3.3965,-3.3544,-3.3434,-3.2321,-3.1622,-3.1619,-3.0479,-2.951,-2.8833,-2.7718,-2.6647,-2.5831,-2.4864,-2.3804,-2.2693,-2.1852,-2.0785,-1.951,-1.8222,-1.7082,-1.5957,-1.4713,-1.3582,-1.2578,-1.1906,-1.1064,-0.9936,-0.8375,-0.6937,-0.5589,-0.5008,-0.4356,-0.379,-0.3209,-0.277,-0.2479,-0.2406,-0.2187,-0.1968,-0.1822,-0.1458,-0.0439,0.0443,0.1264,0.217,0.3421,0.4485,0.4539,0.4786,0.5334,-4.3073,-4.3197,-4.3184,-4.3364,0.0,-4.3653,-4.3793,-4.4068,-4.3903,-4.4245,-4.4964,-4.5435,-4.5808,-4.6218,-4.6494,-4.6821,-4.7095,-4.725,-4.7301,-4.7301,-4.7301,-4.7353,-4.7507,-4.7507,-4.7699,-4.8092,-4.8092,-4.8294,-4.8667,-4.8217,-4.7783,-4.7386,-4.6879,-4.6396,-4.5909,-4.588,-4.588,-4.588,-4.588,-4.5654,-4.511,-4.481,-4.4035,-4.288,-4.2227,0.0,0.0,0.0,0.0,0.0,0.0,0.0,0.0,-3.6119,0.0,-3.6386,-3.6651,-3.6538,-3.6043,-3.6473,-3.6435,-3.5694,-3.5545,-3.5335,-3.4913,-3.4076,-3.3461,-3.3168,-3.2047,-3.1264,-3.1099,-2.9959,-2.8965,-2.8434,-2.7507,-2.6464,-2.5414,-2.4481,-2.3543,-2.2485,-2.1393,-2.0254,-1.9214,-1.7842,-1.6579,-1.5456,-1.4324,-1.3182,-1.2101,-1.1327,-1.0355,-0.8635,-0.7312,-0.6043,-0.5176,-0.4448,-0.3937,-0.3282,-0.2844,-0.2552,-0.2333,-0.226,-0.2187,-0.1822,-0.153,-0.0948,-0.0146,0.0953,0.1991,0.2894,0.3976,0.5101,0.5651,0.5936,0.6196,-4.324,-4.3517,-4.3462,-4.3696,-4.4064,-4.4064,-4.4367,-4.4884,0.0,0.0,0.0,-4.5861,-4.6284,-4.6585,-4.6873,-4.7146,-4.7353,-4.7442,-4.7494,-4.7494,-4.7545,-4.7712,-4.7903,-4.7917,-4.8142,-4.8531,-4.8595,-4.8695,-4.893,-4.8531,-4.8024,-4.7466,-4.7018,-4.6459,-4.5924,-4.5835,-4.5835,-4.5835,-4.5835,-4.5549,-4.5078,-4.4918,-4.4194,-4.2812,-4.2175,-4.1182,-3.9658,-3.8686,-3.7891,-3.7403,-3.6857,-3.6604,-3.6665,-3.6618,-3.6591,-3.6699,-3.7084,-3.7087,-3.6585,-3.699,-3.6874,-3.6057,-3.5631,-3.5291,-3.51,-3.4305,-3.3605,-3.3085,-3.1809,-3.0931,-3.0628,-2.948,-2.8519,-2.8089,-2.74,-2.6383,-2.5105,-2.4224,-2.3304,-2.2173,-2.0849,-1.9686,-1.8837,-1.7429,-1.6094,-1.503,-1.3825,-1.2534,-1.1387,-1.0518,-0.9363,-0.7412,-0.6404,-0.5535,-0.4736,-0.401,-0.3355,-0.299,-0.2552,-0.2333,-0.226,-0.226,-0.2114,-0.175,-0.102,-0.0365,0.0219,0.1459,0.2706,0.3619,0.4449,0.5306,0.6398,0.6966,0.7191,-4.3517,-4.3844,-4.3844,-4.4148,-4.4572,-4.4572,-4.5059,-4.5795,-4.5542,-4.5702,-4.6218,-4.6323,-4.6637,-4.7184,-4.7442,-4.761,-4.7661,-4.8092,-4.8344,-4.8344,-4.8545,-4.8695,-4.8745,-4.876,-4.876,-4.8845,-4.8845,-4.9009,-4.9135,-4.8594,-4.8105,-4.772,-4.7097,-4.6519,-4.5938,-4.5685,-4.5549,-4.5549,-4.5549,-4.5336,-4.4862,-4.4276,-4.38,-4.3357,-4.2369,-4.1521,-4.0884,-3.9866,-3.912,-3.8543,-3.7605,-3.7317,-3.7721,-3.7345,-3.7276,-3.7709,-3.7829,-3.7601,-3.7037,-3.7508,-3.7504,-3.678,-3.6312,-3.5575,-3.465,-3.3772,-3.3075,-3.275,-3.1549,-3.0647,-3.0312,-2.9392,-2.8378,-2.7451,-2.6465,-2.5457,-2.4638,-2.3679,-2.2654,-2.1559,-2.0306,-1.9192,-1.8142,-1.6729,-1.5536,-1.4541,-1.3182,-1.1603,-0.9807,-0.9016,-0.829,-0.6841,-0.6117,-0.5389,-0.4371,-0.3791,-0.3354,-0.299,-0.2552,-0.226,-0.226,-0.2041,-0.175,-0.1313,-0.0584,0.0219,0.124,0.2187,0.3211,0.4247,0.5157,0.5948,0.6582,0.7305,0.7903,-4.3929,-4.4313,-4.4313,-4.4681,-4.5221,-4.5475,-4.5954,-4.6442,-4.6508,-4.656,-4.6651,-4.6807,-4.7133,-4.7507,-4.7661,-4.7852,-4.8156,-4.8395,-4.8595,-4.8745,-4.8845,-4.8895,-4.8895,-4.8895,-4.9009,-4.9079,-4.8735,-4.8724,-4.8924,-4.8331,-4.7742,-4.7259,-4.6497,-4.5929,-4.5669,-4.5413,-4.523,-4.5106,-4.523,-4.5138,-4.483,-4.45,-4.4005,-4.3314,-4.2639,-4.1873,-4.0896,-4.0037,-3.9368,-3.8835,-3.8042,-3.7733,-3.7966,-3.7782,-3.7721,-3.795,-3.7974,-3.7893,-3.7585,-3.7428,-3.7269,-3.7016,-3.6296,-3.554,-3.4797,-3.3993,-3.3344,-3.2855,-3.1612,-3.059,-3.0048,-2.8954,-2.7849,-2.6992,-2.5921,-2.4977,-2.4231,-2.327,-2.2242,-2.1283,-2.0023,-1.8837,-1.7715,-1.6452,-1.5106,-1.3967,-1.2248,-1.0383,-0.8871,-0.8148,-0.7421,-0.6261,-0.5609,-0.4808,-0.3936,-0.3427,-0.3063,-0.2625,-0.2406,-0.226,-0.2114,-0.1895,-0.1458,-0.073,-0.0073,0.0729,0.1822,0.2842,0.3862,0.4736,0.5632,0.633,0.7049,0.7942,0.8643,-4.4422,-4.4897,-4.4992,-4.5328,-4.5914,-4.6389,-4.6807,-4.7095,-4.7339,-4.7391,-4.7288,-4.7339,-4.7559,-4.7852,-4.7852,-4.8156,-4.8545,-4.8645,-4.871,-4.873,-4.8829,-4.8757,-4.8677,-4.8677,-4.8775,-4.8879,-4.8451,-4.8316,-4.8435,-4.7869,-4.7184,-4.6543,-4.584,-4.5458,-4.5413,-4.517,-4.4954,-4.4844,-4.4908,-4.4862,-4.469,-4.4705,-4.4218,-4.338,-4.3091,-4.2389,-4.114,-4.0433,-3.9806,-3.9184,-3.8642,-3.8265,-3.8187,-3.8073,-3.7974,-3.7974,-3.7974,-3.8,-3.786,-3.7155,-3.6773,-3.689,-3.6097,-3.5279,-3.4626,-3.3945,-3.3285,-3.2619,-3.1497,-3.0408,-2.9617,-2.8493,-2.7376,-2.6599,-2.5584,-2.4638,-2.3891,-2.2853,-2.1897,-2.1006,-1.975,-1.8417,-1.7288,-1.6164,-1.4822,-1.3035,-1.1172,-0.9663,-0.8654,-0.7568,-0.6624,-0.5899,-0.5173,-0.4445,-0.3647,-0.3209,-0.277,-0.2333,-0.226,-0.2041,-0.1822,-0.1677,-0.1166,-0.0219,0.051,0.1239,0.226,0.3425,0.4371,0.517,0.5906,0.666,0.7625,0.8414,0.9193,-4.5005,-4.5529,-4.5755,-4.6231,-4.6783,-4.7095,-4.7339,-4.7633,-4.7925,-4.8128,-4.8173,-4.7852,-4.7925,-4.8395,-4.8417,-4.8524,-4.8788,-4.9093,-4.8862,-4.8393,-4.8606,-4.8412,-4.7963,-4.7891,-4.7923,-4.7952,-4.7865,-4.7822,-4.7825,-4.7216,-4.6454,-4.5708,-4.5518,-4.5367,-4.5124,-4.4908,-4.483,-4.4797,-4.4612,-4.4457,-4.4472,-4.4411,-4.4242,-4.3951,-4.3673,-4.3136,-4.2269,-4.1798,-4.1128,-4.0401,-3.9585,-3.9015,-3.8715,-3.8279,-3.7974,-3.7974,-3.7986,-3.7959,-3.7848,-3.6835,-3.6272,-3.636,-3.5622,-3.47,-3.3808,-3.2833,-3.2227,-3.184,-3.1046,-2.9974,-2.9036,-2.8131,-2.7246,-2.6172,-2.5181,-2.4299,-2.3522,-2.2516,-2.1421,-2.0324,-1.9256,-1.8056,-1.6941,-1.5678,-1.4185,-1.2176,-1.074,-0.9446,-0.8295,-0.7204,-0.6261,-0.5752,-0.5173,-0.4373,-0.3647,-0.3136,-0.2698,-0.2333,-0.2041,-0.1822,-0.1603,-0.1167,-0.0511,0.0073,0.0948,0.1822,0.277,0.3789,0.4809,0.5535,0.6123,0.68,0.7904,0.8629,0.9102,-4.5688,-4.6126,-4.6389,-4.6873,-4.7405,-4.7647,-4.7743,-4.7686,-4.7879,-4.7878,-4.7614,-4.7369,-4.7603,-4.8147,-4.7757,-4.7746,-4.8003,-4.81,-4.8101,-4.8031,-4.8126,-4.8029,-4.7796,-4.7782,-4.7782,-4.7738,-4.7404,-4.7216,-4.7068,-4.6379,-4.584,-4.5487,-4.523,-4.5014,-4.4922,-4.469,-4.4565,-4.4565,-4.4472,-4.4425,-4.4425,-4.4425,-4.4209,-4.3804,-4.3662,-4.3232,-4.2547,-4.1993,-4.1398,-4.0744,-3.9993,-3.9322,-3.8841,-3.8473,-3.8198,-3.7998,-3.7953,-3.7944,-3.7895,-3.7075,-3.6495,-3.6418,-3.5535,-3.4595,-3.3645,-3.2684,-3.1886,-3.1224,-3.0302,-2.9287,-2.8263,-2.7481,-2.663,-2.56,-2.454,-2.3676,-2.3119,-2.2124,-2.1152,-2.0184,-1.9105,-1.7845,-1.6452,-1.4826,-1.3111,-1.1459,-1.0236,-0.9085,-0.8003,-0.6841,-0.5898,-0.5173,-0.4519,-0.3937,-0.3501,-0.2917,-0.2479,-0.2114,-0.1895,-0.175,-0.1094,-0.0657,-0.0073,0.0584,0.1458,0.2333,0.3136,0.4155,0.5174,0.5827,0.6843,0.7586,0.8132,0.8778,0.9332,-4.6403,-4.6703,-4.7081,-4.741,-4.7665,-4.7925,-4.7787,-4.7488,-4.7646,-4.7534,-4.7134,-4.7009,-4.72,-4.753,-4.7234,-4.7229,-4.7481,-4.7528,-4.7507,-4.7535,-4.7506,-4.7433,-4.7288,-4.7259,-4.7259,-4.7187,-4.678,-4.6531,-4.6367,-4.584,-4.5458,-4.5276,-4.4968,-4.4751,-4.469,-4.4504,-4.4425,-4.4425,-4.4425,-4.4425,-4.4425,-4.4425,-4.4162,-4.3662,-4.3614,-4.3232,-4.2547,-4.2043,-4.1534,-4.0997,-4.0236,-3.9581,-3.9062,-3.8631,-3.825,-3.801,-3.7917,-3.775,-3.7696,-3.6994,-3.6419,-3.6031,-3.5147,-3.4206,-3.3266,-3.2316,-3.1366,-3.0396,-2.9426,-2.849,-2.779,-2.7038,-2.6208,-2.5187,-2.4136,-2.333,-2.2665,-2.1696,-2.0712,-1.9886,-1.8827,-1.7508,-1.5872,-1.3967,-1.2248,-1.1172,-0.9951,-0.8799,-0.7711,-0.6624,-0.5536,-0.4809,-0.401,-0.3501,-0.3282,-0.277,-0.2187,-0.1895,-0.175,-0.1313,-0.0584,-0.0073,0.0511,0.124,0.2042,0.2842,0.3717,0.4738,0.561,0.619,0.7133,0.8008,0.8092,0.8881,0.9402,-4.7043,-4.7325,-4.7824,-4.7841,-4.761,-4.7799,-4.7575,-4.7033,-4.732,-4.7386,-4.7261,-4.6943,-4.6804,-4.6891,-4.7135,-4.7485,-4.7691,-4.768,-4.7329,-4.6911,-4.6821,-4.6548,-4.5996,-4.5967,-4.5996,-4.6142,-4.6084,-4.5906,-4.5621,-4.5533,-4.5276,-4.4844,-4.4783,-4.4644,-4.4472,-4.4425,-4.4425,-4.4425,-4.4425,-4.4425,-4.4425,-4.4425,-4.4162,-4.3709,-4.3614,-4.328,-4.2595,-4.2239,-4.1845,-4.1311,-4.0491,-3.9929,-3.9633,-3.8841,-3.8303,-3.8039,-3.7768,-3.7483,-3.7136,-3.6435,-3.5701,-3.5091,-3.4372,-3.3313,-3.2526,-3.1541,-3.0604,-2.9574,-2.8712,-2.7992,-2.7659,-2.6961,-2.6104,-2.5111,-2.41,-2.3131,-2.2123,-2.1145,-2.0166,-1.9298,-1.8188,-1.6738,-1.4875,-1.3182,-1.2033,-1.0956,-0.9663,-0.8437,-0.7638,-0.6551,-0.5535,-0.4736,-0.401,-0.3355,-0.299,-0.2552,-0.2114,-0.175,-0.1313,-0.0949,-0.0292,0.0365,0.1167,0.1896,0.2552,0.3352,0.4373,0.5245,0.6045,0.6698,0.7425,0.8008,0.8225,0.8799,0.931,-4.7687,-4.7687,-4.7872,-4.7665,-4.7264,-4.7463,-4.7186,-4.6659,-4.6893,-4.6816,-4.6454,-4.627,-4.6229,-4.6243,-4.637,-4.6485,-4.6577,-4.6563,-4.6446,-4.6229,-4.6229,-4.6098,-4.5909,-4.588,-4.588,-4.588,-4.588,-4.5745,-4.5504,-4.5198,-4.4968,-4.4783,-4.4597,-4.4504,-4.4411,-4.4425,-4.4425,-4.4425,-4.4425,-4.4425,-4.4425,-4.4425,-4.4209,-4.3865,-4.3695,-4.3437,-4.3032,-4.2422,-4.1931,-4.156,-4.0795,-4.0147,-3.9685,-3.8893,-3.8303,-3.8039,-3.7744,-3.7489,-3.7078,-3.6472,-3.5895,-3.5246,-3.4423,-3.3501,-3.2571,-3.1469,-3.048,-2.9726,-2.8668,-2.7946,-2.746,-2.6834,-2.578,-2.4663,-2.3725,-2.2858,-2.178,-2.079,-1.9868,-1.8892,-1.7533,-1.5775,-1.4394,-1.2968,-1.1818,-1.0812,-0.9518,-0.8365,-0.7351,-0.6408,-0.5391,-0.4301,-0.3718,-0.3282,-0.2552,-0.2187,-0.1822,-0.1386,-0.0876,-0.0292,0.0292,0.1167,0.1969,0.2406,0.2989,0.3862,0.4809,0.561,0.6408,0.7131,0.786,0.8152,0.844,0.8943,0.9292,-4.7964,-4.7861,-4.7772,-4.7377,-4.6895,-4.7055,-4.6835,-4.6273,-4.6428,-4.6287,-4.5924,-4.588,-4.588,-4.588,-4.588,-4.588,-4.588,-4.5895,-4.588,-4.588,-4.588,-4.588,-4.588,-4.588,-4.588,-4.588,-4.579,-4.5595,-4.529,-4.4968,-4.4737,-4.4658,-4.4457,-4.4425,-4.4425,-4.4425,-4.4425,-4.4425,-4.4425,-4.4425,-4.4425,-4.4425,-4.4317,-4.4115,-4.3865,-4.358,-4.3321,-4.2582,-4.2079,-4.1782,-4.1161,-4.0453,-3.9736,-3.8933,-3.8421,-3.8157,-3.7892,-3.753,-3.7131,-3.6712,-3.6114,-3.5412,-3.4579,-3.3681,-3.2742,-3.1642,-3.0723,-2.9853,-2.8847,-2.8011,-2.7461,-2.6684,-2.5578,-2.4417,-2.3549,-2.2622,-2.1491,-2.0367,-1.9226,-1.8034,-1.6649,-1.5176,-1.3994,-1.2783,-1.1671,-1.0596,-0.9374,-0.8148,-0.7133,-0.6263,-0.5245,-0.3865,-0.3574,-0.3136,-0.2479,-0.1969,-0.1604,-0.1167,-0.0511,0.0146,0.0948,0.1823,0.2478,0.2915,0.3571,0.4373,0.5245,0.6047,0.6773,0.7496,0.7858,0.8222,0.8584,0.9016,0.9278,-4.7909,-4.7786,-4.7521,-4.703,-4.6483,-4.6686,-4.643,-4.6011,-4.5938,-4.5938,-4.588,-4.588,-4.588,-4.588,-4.588,-4.588,-4.588,-4.588,-4.588,-4.588,-4.588,-4.588,-4.588,-4.588,-4.5835,-4.579,-4.5595,-4.5244,-4.4876,-4.4797,-4.4658,-4.4457,-4.4425,-4.4425,-4.4425,-4.4425,-4.4425,-4.4425,-4.4425,-4.4411,-4.4411,-4.4411,-4.4411,-4.4364,-4.4129,-4.3798,-4.3369,-4.279,-4.24,-4.2092,-4.1547,-4.0808,-3.98,-3.9114,-3.8671,-3.8409,-3.8145,-3.772,-3.7185,-3.6862,-3.6332,-3.5467,-3.4579,-3.3738,-3.2753,-3.1845,-3.0859,-2.9981,-2.9016,-2.8233,-2.7521,-2.6675,-2.57,-2.4734,-2.3673,-2.2572,-2.1256,-1.9851,-1.8406,-1.6782,-1.5773,-1.4835,-1.3726,-1.251,-1.1384,-1.0455,-0.916,-0.7933,-0.7133,-0.6335,-0.5173,-0.401,-0.3501,-0.3136,-0.2479,-0.175,-0.1386,-0.1022,-0.0292,0.0438,0.1386,0.226,0.2915,0.3425,0.4226,0.5027,0.5683,0.6484,0.699,0.7568,0.7933,0.8295,0.8726,0.916,0.9232,-4.776,-4.7138,-4.703,-4.6628,-4.6078,-4.614,-4.604,-4.5895,-4.588,-4.588,-4.588,-4.588,-4.588,-4.588,-4.588,-4.588,-4.588,-4.588,-4.588,-4.588,-4.588,-4.588,-4.588,-4.57,-4.5504,-4.5367,-4.5152,-4.4968,-4.4797,-4.4612,-4.4457,-4.4411,-4.4425,-4.4425,-4.4425,-4.4425,-4.4425,-4.4425,-4.4425,-4.4457,-4.4644,-4.4504,-4.4504,-4.4612,-4.4223,-4.3926,-4.3737,-4.3128,-4.2693,-4.24,-4.171,-4.0808,-3.9839,-3.9322,-3.8881,-3.8461,-3.8145,-3.7708,-3.7185,-3.697,-3.6495,-3.5522,-3.4736,-3.3875,-3.2799,-3.1845,-3.0918,-2.9981,-2.9085,-2.8301,-2.7771,-2.6796,-2.5709,-2.4734,-2.3736,-2.255,-2.1039,-1.9252,-1.7646,-1.6486,-1.5542,-1.4642,-1.3686,-1.2428,-1.1302,-1.0452,-0.9088,-0.786,-0.7061,-0.6263,-0.5245,-0.3865,-0.3574,-0.3136,-0.226,-0.1531,-0.1095,-0.0584,0.0146,0.0949,0.1823,0.2552,0.328,0.4153,0.4882,0.5609,0.6266,0.6775,0.7208,0.7643,0.8008,0.844,0.8943,0.916,0.9304,-4.7362,-4.6792,-4.6577,-4.6258,-4.5895,-4.588,-4.588,-4.588,-4.588,-4.588,-4.588,-4.588,-4.588,-4.588,-4.588,-4.588,-4.588,-4.588,-4.588,-4.588,-4.588,-4.5835,-4.5745,-4.5504,-4.523,-4.5,-4.4876,-4.4737,-4.4644,-4.4518,-4.4425,-4.4425,-4.4425,-4.4425,-4.4425,-4.4425,-4.4425,-4.4411,-4.4504,-4.4612,-4.4751,-4.4723,-4.4676,-4.4737,-4.4457,-4.4209,-4.3988,-4.3451,-4.3018,-4.2547,-4.1809,-4.0858,-4.0044,-3.9633,-3.9154,-3.8619,-3.825,-3.7826,-3.7239,-3.7078,-3.6603,-3.5566,-3.4825,-3.3976,-3.2856,-3.1903,-3.1092,-2.9981,-2.9153,-2.848,-2.7951,-2.6857,-2.577,-2.4857,-2.3798,-2.2355,-2.0589,-1.8553,-1.7125,-1.6181,-1.5309,-1.4356,-1.3506,-1.234,-1.1188,-1.029,-0.9016,-0.7715,-0.6988,-0.619,-0.5027,-0.4083,-0.3574,-0.2917,-0.2041,-0.1386,-0.0803,-0.0073,0.0657,0.1459,0.2261,0.2917,0.3573,0.4664,0.5538,0.6045,0.6629,0.6845,0.7135,0.7643,0.8152,0.8512,0.8943,0.9232,0.9304,-4.6778,-4.6662,-4.6142,-4.5924,-4.588,-4.588,-4.588,-4.588,-4.588,-4.588,-4.588,-4.588,-4.588,-4.588,-4.588,-4.588,-4.588,-4.588,-4.588,-4.5835,-4.5835,-4.57,-4.5413,-4.517,-4.5,-4.4783,-4.4737,-4.4658,-4.4472,-4.4425,-4.4425,-4.4425,-4.4425,-4.4425,-4.4425,-4.4425,-4.4425,-4.4518,-4.4644,-4.4783,-4.4876,-4.5,-4.5046,-4.489,-4.4783,-4.4551,-4.4129,-4.3723,-4.3341,-4.2838,-4.1908,-4.1161,-4.0555,-4.0057,-3.9478,-3.8945,-3.8579,-3.7986,-3.7346,-3.7131,-3.6603,-3.5522,-3.4825,-3.3966,-3.2856,-3.2065,-3.1208,-3.0039,-2.9331,-2.8737,-2.7951,-2.6926,-2.5831,-2.4919,-2.3542,-2.1783,-1.9456,-1.791,-1.6834,-1.6025,-1.4983,-1.3983,-1.3372,-1.215,-1.1025,-0.9988,-0.8874,-0.7713,-0.6769,-0.597,-0.51,-0.4301,-0.3574,-0.2771,-0.1896,-0.1459,-0.0803,0.0365,0.1094,0.1896,0.2771,0.3428,0.4083,0.5174,0.5974,0.6482,0.6773,0.6918,0.728,0.7863,0.8225,0.8512,0.8874,0.916,0.9304,-4.6548,-4.6113,-4.5953,-4.588,-4.588,-4.588,-4.588,-4.588,-4.588,-4.588,-4.588,-4.588,-4.588,-4.588,-4.588,-4.588,-4.588,-4.588,-4.579,-4.5654,-4.5609,-4.5367,-4.506,-4.4922,-4.4723,-4.4551,-4.4518,-4.4472,-4.4425,-4.4425,-4.4425,-4.4425,-4.4425,-4.4425,-4.4425,-4.4425,-4.4518,-4.4644,-4.4737,-4.4968,-4.5244,-4.517,-4.517,-4.529,-4.4982,-4.4751,-4.4504,-4.396,-4.328,-4.2644,-4.219,-4.1647,-4.106,-4.0389,-3.9826,-3.9426,-3.8788,-3.8157,-3.7572,-3.7239,-3.6603,-3.5522,-3.4836,-3.3976,-3.2799,-3.2123,-3.1199,-3.0147,-2.9499,-2.8897,-2.8071,-2.7047,-2.5709,-2.3852,-2.2606,-2.1096,-1.9386,-1.7846,-1.6748,-1.5994,-1.4983,-1.4033,-1.3207,-1.2117,-1.0938,-0.9985,-0.8871,-0.7643,-0.6624,-0.597,-0.5245,-0.4155,-0.3355,-0.2553,-0.1897,-0.1459,-0.0657,0.0657,0.1532,0.2187,0.3209,0.4157,0.481,0.5682,0.6119,0.6627,0.6845,0.699,0.7498,0.7935,0.8152,0.837,0.8943,0.9304,0.9304,-4.6214,-4.588,-4.588,-4.588,-4.588,-4.588,-4.588,-4.588,-4.588,-4.588,-4.588,-4.588,-4.588,-4.588,-4.588,-4.5835,-4.5745,-4.5745,-4.5609,-4.5353,-4.523,-4.506,-4.483,-4.469,-4.4551,-4.4411,-4.4425,-4.4425,-4.4425,-4.4425,-4.4425,-4.4425,-4.4425,-4.4425,-4.4425,-4.4425,-4.4551,-4.4737,-4.4876,-4.5138,-4.5473,-4.5458,-4.5458,-4.5473,-4.5106,-4.483,-4.4443,-4.3899,-4.328,-4.2728,-4.2387,-4.1993,-4.1361,-4.0909,-4.0338,-3.98,-3.9114,-3.8473,-3.7838,-3.7346,-3.6634,-3.5653,-3.4925,-3.4043,-3.3027,-3.2238,-3.1267,-3.0265,-2.9717,-2.8957,-2.8011,-2.6813,-2.5157,-2.3417,-2.2041,-2.0786,-1.9456,-1.8098,-1.7001,-1.6135,-1.4974,-1.3897,-1.3323,-1.2077,-1.0895,-0.9824,-0.8799,-0.7568,-0.6406,-0.5972,-0.5318,-0.4155,-0.3355,-0.2699,-0.1897,-0.1314,-0.0438,0.0875,0.2115,0.2698,0.3572,0.4666,0.5247,0.5827,0.6337,0.6702,0.6845,0.7063,0.7425,0.7788,0.7935,0.837,0.8943,0.9304,0.9304,-4.588,-4.588,-4.588,-4.588,-4.588,-4.588,-4.588,-4.588,-4.588,-4.588,-4.588,-4.588,-4.588,-4.588,-4.579,-4.5685,-4.5458,-4.5458,-4.5321,-4.5092,-4.4922,-4.4751,-4.469,-4.4551,-4.4457,-4.4425,-4.4425,-4.4425,-4.4425,-4.4425,-4.4425,-4.4425,-4.4425,-4.4425,-4.4425,-4.4472,-4.4612,-4.483,-4.5046,-4.5261,-4.5549,-4.573,-4.5745,-4.5564,-4.5216,-4.4769,-4.4256,-4.377,-4.3375,-4.3018,-4.2706,-4.2155,-4.1511,-4.1361,-4.0808,-3.9993,-3.9478,-3.8945,-3.8145,-3.7507,-3.6742,-3.5861,-3.498,-3.4145,-3.3264,-3.2363,-3.1383,-3.0441,-2.9844,-2.9016,-2.7771,-2.6197,-2.4726,-2.3293,-2.2237,-2.1102,-1.9769,-1.8413,-1.7254,-1.6499,-1.4996,-1.3931,-1.3094,-1.2015,-1.0642,-0.9623,-0.8582,-0.7421,-0.6408,-0.5756,-0.4956,-0.3792,-0.3209,-0.2845,-0.2043,-0.1241,-0.0073,0.1094,0.248,0.3354,0.4009,0.4882,0.5463,0.5972,0.641,0.67,0.6918,0.7208,0.7423,0.7788,0.8152,0.8584,0.909,0.9232,0.9304,-4.588,-4.588,-4.588,-4.588,-4.588,-4.588,-4.588,-4.588,-4.588,-4.588,-4.588,-4.588,-4.5745,-4.5595,-4.5549,-4.5444,-4.5216,-4.517,-4.5092,-4.483,-4.4597,-4.4518,-4.4504,-4.4411,-4.4411,-4.4425,-4.4425,-4.4425,-4.4425,-4.4425,-4.4425,-4.4425,-4.4425,-4.4425,-4.4425,-4.4597,-4.4815,-4.5046,-4.5261,-4.5549,-4.5745,-4.588,-4.5895,-4.57,-4.5307,-4.4862,-4.435,-4.3851,-4.3553,-4.3314,-4.2873,-4.2351,-4.1944,-4.156,-4.1023,-4.0453,-3.9839,-3.9206,-3.8409,-3.7785,-3.697,-3.5916,-3.5035,-3.4155,-3.3264,-3.2363,-3.1441,-3.0567,-2.9981,-2.9016,-2.7409,-2.5961,-2.4548,-2.3362,-2.2425,-2.1418,-2.0094,-1.8746,-1.7582,-1.6494,-1.5202,-1.4024,-1.3303,-1.1982,-1.0665,-0.9463,-0.8362,-0.7204,-0.6335,-0.561,-0.4665,-0.3647,-0.3282,-0.2845,-0.1751,-0.0803,0.0292,0.1386,0.2625,0.372,0.4445,0.5027,0.5607,0.6045,0.648,0.6771,0.699,0.7278,0.7568,0.8005,0.837,0.8729,0.909,0.9232,0.9304,-4.588,-4.588,-4.588,-4.588,-4.588,-4.588,-4.588,-4.588,-4.588,-4.5835,-4.5745,-4.57,-4.5549,-4.5307,-4.5307,-4.5184,-4.4954,-4.4801,-4.4723,-4.4597,-4.4472,-4.4425,-4.4425,-4.4425,-4.4425,-4.4425,-4.4425,-4.4425,-4.4425,-4.4425,-4.4425,-4.4425,-4.4425,-4.4504,-4.4565,-4.4737,-4.4968,-4.5276,-4.5549,-4.5776,-4.6001,-4.606,-4.5776,-4.5609,-4.5216,-4.4847,-4.4411,-4.4021,-4.3757,-4.3519,-4.3163,-4.2693,-4.2289,-4.1895,-4.1411,-4.0909,-4.0236,-3.962,-3.8881,-3.801,-3.7155,-3.6091,-3.5091,-3.4201,-3.3378,-3.242,-3.1488,-3.0723,-3.003,-2.9085,-2.7237,-2.5839,-2.4541,-2.3362,-2.2487,-2.1544,-2.0284,-1.9002,-1.784,-1.6748,-1.5388,-1.4223,-1.3142,-1.1971,-1.0684,-0.9474,-0.8288,-0.7204,-0.6116,-0.5318,-0.4519,-0.3792,-0.3354,-0.2698,-0.1459,-0.0365,0.0802,0.1824,0.2844,0.3791,0.4519,0.5173,0.5752,0.6117,0.6408,0.6771,0.7061,0.7351,0.7713,0.8005,0.8367,0.8801,0.909,0.9232,0.9304,-4.588,-4.588,-4.588,-4.588,-4.588,-4.588,-4.588,-4.5835,-4.585,-4.564,-4.5458,-4.5458,-4.5321,-4.5078,-4.5046,-4.4908,-4.4723,-4.4551,-4.4472,-4.4425,-4.4425,-4.4425,-4.4425,-4.4425,-4.4425,-4.4425,-4.4425,-4.4425,-4.4425,-4.4425,-4.4425,-4.4425,-4.4425,-4.4504,-4.4751,-4.489,-4.5106,-4.5504,-4.5821,-4.606,-4.6225,-4.6225,-4.5851,-4.5307,-4.5124,-4.4847,-4.4457,-4.4129,-4.3865,-4.36,-4.3437,-4.308,-4.2644,-4.2253,-4.1845,-4.1311,-4.0542,-3.9878,-3.9154,-3.8275,-3.7304,-3.6363,-3.5201,-3.4256,-3.3491,-3.2534,-3.1536,-3.0713,-2.9952,-2.8788,-2.7168,-2.5839,-2.4548,-2.3362,-2.2487,-2.1551,-2.0291,-1.9194,-1.8226,-1.7012,-1.5657,-1.441,-1.3254,-1.2037,-1.0745,-0.9454,-0.8266,-0.7131,-0.6116,-0.5098,-0.4301,-0.372,-0.3281,-0.2626,-0.1459,-0.0073,0.1094,0.1896,0.2844,0.3791,0.4592,0.5245,0.5827,0.597,0.6335,0.6771,0.7135,0.7498,0.7788,0.8078,0.8512,0.9018,0.9232,0.9304,0.9304,-4.588,-4.588,-4.588,-4.588,-4.588,-4.588,-4.579,-4.5595,-4.5609,-4.5413,-4.517,-4.517,-4.5046,-4.4876,-4.4844,-4.469,-4.4504,-4.4411,-4.4425,-4.4425,-4.4425,-4.4425,-4.4425,-4.4425,-4.4425,-4.4425,-4.4425,-4.4425,-4.4425,-4.4425,-4.4425,-4.4425,-4.4425,-4.4551,-4.4783,-4.5,-4.5321,-4.5776,-4.609,-4.6314,-4.6447,-4.6314,-4.5837,-4.5216,-4.5124,-4.4862,-4.4457,-4.4129,-4.3879,-4.3614,-4.3403,-4.3163,-4.279,-4.2387,-4.1895,-4.1348,-4.0757,-4.0083,-3.9374,-3.8473,-3.7453,-3.6363,-3.5212,-3.4267,-3.3501,-3.2477,-3.1546,-3.0538,-2.9303,-2.7951,-2.7108,-2.5839,-2.4548,-2.3417,-2.248,-2.1544,-2.0354,-1.9328,-1.8355,-1.7071,-1.5792,-1.458,-1.3351,-1.2084,-1.077,-0.9383,-0.8059,-0.6986,-0.597,-0.4953,-0.4081,-0.3573,-0.3209,-0.2335,-0.1387,0.0,0.124,0.1823,0.2698,0.3791,0.4519,0.5318,0.5754,0.6045,0.6408,0.6916,0.728,0.7643,0.7935,0.8225,0.8657,0.916,0.9232,0.9304,0.9304,-4.588,-4.588,-4.588,-4.588,-4.588,-4.573,-4.564,-4.5504,-4.5367,-4.517,-4.5,-4.4908,-4.4815,-4.4644,-4.4597,-4.4518,-4.4425,-4.4425,-4.4425,-4.4425,-4.4425,-4.4425,-4.4425,-4.4425,-4.4425,-4.4425,-4.4425,-4.4425,-4.4425,-4.4425,-4.4425,-4.4425,-4.4411,-4.4597,-4.4908,-4.5184,-4.558,-4.6001,-4.6358,-4.6609,-4.6712,-4.6491,-4.5986,-4.5353,-4.5078,-4.4862,-4.4443,-4.4129,-4.3865,-4.3614,-4.3389,-4.3177,-4.2838,-4.2435,-4.198,-4.1584,-4.0933,-4.0185,-3.9478,-3.8579,-3.7495,-3.6375,-3.5201,-3.4201,-3.3378,-3.242,-3.1383,-3.0265,-2.9076,-2.7719,-2.7056,-2.5839,-2.4541,-2.3355,-2.248,-2.1544,-2.0348,-1.9322,-1.8168,-1.6969,-1.5771,-1.4562,-1.3396,-1.2117,-1.0796,-0.9383,-0.7919,-0.6841,-0.5898,-0.4809,-0.3791,-0.3353,-0.2917,-0.2115,-0.124,-0.0146,0.1094,0.175,0.2624,0.3645,0.4518,0.5245,0.5829,0.6192,0.6627,0.699,0.7425,0.7788,0.8078,0.837,0.8874,0.9232,0.9304,0.9304,0.9304,-4.588,-4.588,-4.588,-4.588,-4.579,-4.5595,-4.5458,-4.5321,-4.5138,-4.4908,-4.4737,-4.469,-4.4597,-4.4457,-4.4425,-4.4425,-4.4425,-4.4425,-4.4425,-4.4425,-4.4425,-4.4425,-4.4425,-4.4425,-4.4425,-4.4425,-4.4425,-4.4425,-4.4425,-4.4425,-4.4425,-4.4411,-4.4457,-4.4676,-4.5092,-4.5413,-4.5821,-4.6254,-4.6653,-4.6873,-4.68,-4.6668,-4.6135,-4.5216,-4.5124,-4.4894,-4.4457,-4.4115,-4.3865,-4.3614,-4.3375,-4.3163,-4.2838,-4.2373,-4.2079,-4.1782,-4.0933,-4.0236,-3.953,-3.8526,-3.74,-3.6375,-3.5212,-3.4201,-3.314,-3.2123,-3.1034,-2.9922,-2.8797,-2.7719,-2.6995,-2.5839,-2.4541,-2.3355,-2.2418,-2.1544,-2.0214,-1.9078,-1.7956,-1.6804,-1.5707,-1.4473,-1.3227,-1.2057,-1.0659,-0.9396,-0.8,-0.6841,-0.5827,-0.4447,-0.35,-0.3062,-0.2479,-0.1896,-0.1094,-0.0365,0.0729,0.1459,0.2406,0.3499,0.4373,0.5245,0.5683,0.6264,0.67,0.7063,0.7496,0.7858,0.815,0.8512,0.9018,0.9232,0.9304,0.9304,0.9304,-4.588,-4.588,-4.588,-4.5745,-4.5549,-4.5504,-4.5244,-4.4936,-4.4876,-4.4705,-4.4457,-4.4457,-4.4457,-4.4411,-4.4425,-4.4425,-4.4425,-4.4425,-4.4425,-4.4425,-4.4425,-4.4425,-4.4425,-4.4425,-4.4425,-4.4425,-4.4425,-4.4425,-4.4425,-4.4425,-4.4425,-4.4411,-4.4597,-4.4876,-4.5138,-4.5609,-4.606,-4.6506,-4.68,-4.6844,-4.6683,-4.6594,-4.6001,-4.5398,-4.5078,-4.4862,-4.4411,-4.4068,-4.3832,-4.3614,-4.3389,-4.308,-4.2595,-4.2275,-4.1832,-4.1348,-4.0643,-3.9942,-3.9258,-3.8315,-3.7251,-3.6266,-3.5146,-3.4145,-3.297,-3.1594,-3.0441,-2.9981,-2.8728,-2.7771,-2.6926,-2.5839,-2.4541,-2.3479,-2.248,-2.1348,-2.0017,-1.8944,-1.7762,-1.6399,-1.5228,-1.4069,-1.2919,-1.1751,-1.0581,-0.9294,-0.8073,-0.6914,-0.5754,-0.4374,-0.3209,-0.277,-0.2406,-0.1824,-0.124,-0.0438,0.0365,0.1167,0.226,0.3353,0.4227,0.51,0.5829,0.6337,0.67,0.7133,0.7496,0.7858,0.8222,0.8657,0.9088,0.9232,0.9304,0.9304,0.9304,-4.588,-4.5895,-4.5745,-4.5595,-4.5458,-4.5244,-4.5014,-4.4783,-4.4658,-4.4504,-4.4425,-4.4425,-4.4425,-4.4425,-4.4425,-4.4425,-4.4425,-4.4425,-4.4425,-4.4425,-4.4425,-4.4425,-4.4425,-4.4425,-4.4425,-4.4425,-4.4425,-4.4425,-4.4425,-4.4425,-4.4425,-4.4472,-4.4705,-4.4876,-4.523,-4.5776,-4.618,-4.6535,-4.6756,-4.68,-4.6594,-4.6328,-4.5866,-4.5138,-4.5,-4.469,-4.4256,-4.3912,-4.3675,-4.3437,-4.3225,-4.2935,-4.2511,-4.2092,-4.1647,-4.1047,-4.0185,-3.9453,-3.8973,-3.8104,-3.7143,-3.6091,-3.5024,-3.3931,-3.2514,-3.1082,-3.0089,-2.9922,-2.8728,-2.7771,-2.6926,-2.5839,-2.4664,-2.3604,-2.2606,-2.1342,-2.0081,-1.881,-1.7596,-1.6125,-1.4738,-1.3715,-1.2739,-1.1655,-1.0584,-0.9368,-0.8073,-0.6771,-0.5609,-0.4447,-0.3353,-0.2479,-0.2187,-0.1896,-0.1313,-0.0657,0.0146,0.1021,0.2187,0.3208,0.408,0.488,0.5609,0.6264,0.67,0.7133,0.7496,0.7858,0.8222,0.8657,0.916,0.916,0.916,0.9232,0.916,-4.5835,-4.579,-4.5609,-4.5458,-4.5367,-4.4968,-4.4751,-4.4658,-4.4504,-4.4411,-4.4425,-4.4425,-4.4425,-4.4425,-4.4425,-4.4425,-4.4425,-4.4425,-4.4425,-4.4425,-4.4425,-4.4425,-4.4425,-4.4425,-4.4425,-4.4425,-4.4425,-4.4425,-4.4425,-4.4411,-4.4411,-4.4504,-4.4783,-4.5046,-4.5413,-4.5956,-4.6491,-4.6815,-4.6887,-4.68,-4.655,-4.6164,-4.564,-4.5184,-4.4876,-4.4565,-4.4068,-4.377,-4.3519,-4.3307,-4.2984,-4.2644,-4.2351,-4.1908,-4.1298,-4.0694,-3.9826,-3.905,-3.8461,-3.7679,-3.6862,-3.5861,-3.458,-3.331,-3.2065,-3.0684,-2.9922,-2.9922,-2.8737,-2.7779,-2.6987,-2.59,-2.4787,-2.3736,-2.2738,-2.1531,-2.0284,-1.901,-1.7604,-1.6141,-1.4801,-1.3669,-1.2677,-1.1664,-1.0512,-0.9371,-0.8073,-0.6698,-0.5463,-0.4301,-0.35,-0.2552,-0.226,-0.2042,-0.1531,-0.0875,-0.0073,0.0802,0.1969,0.2916,0.379,0.4664,0.5391,0.6047,0.6555,0.7061,0.7421,0.7786,0.815,0.844,0.8729,0.8874,0.8946,0.9016,0.8943,-4.5745,-4.5504,-4.5504,-4.5353,-4.5124,-4.4862,-4.4644,-4.4472,-4.4425,-4.4425,-4.4425,-4.4425,-4.4425,-4.4425,-4.4425,-4.4425,-4.4425,-4.4425,-4.4425,-4.4425,-4.4425,-4.4425,-4.4425,-4.4425,-4.4425,-4.4425,-4.4425,-4.4425,-4.4425,-4.4425,-4.4551,-4.4783,-4.494,-4.5367,-4.579,-4.6269,-4.6756,-4.699,-4.6975,-4.6756,-4.6506,-4.6105,-4.5595,-4.517,-4.4876,-4.4565,-4.4021,-4.3723,-4.3485,-4.3259,-4.2838,-4.2484,-4.219,-4.1647,-4.1047,-4.0338,-3.9556,-3.8788,-3.801,-3.7304,-3.6538,-3.5477,-3.4134,-3.2742,-3.1845,-3.0626,-3.0039,-2.9804,-2.8737,-2.7779,-2.6995,-2.6083,-2.498,-2.3922,-2.2856,-2.172,-2.0463,-1.9166,-1.7763,-1.6223,-1.4991,-1.3829,-1.2678,-1.178,-1.0587,-0.9374,-0.7636,-0.6263,-0.5171,-0.4081,-0.3573,-0.2917,-0.2552,-0.2187,-0.1822,-0.1166,-0.0438,0.0438,0.1458,0.2479,0.3354,0.4228,0.5247,0.5683,0.6192,0.6771,0.7276,0.7278,0.7423,0.7935,0.8225,0.844,0.844,0.844,0.8295,-4.5745,-4.5504,-4.5307,-4.5138,-4.4922,-4.4644,-4.4518,-4.4425,-4.4425,-4.4425,-4.4425,-4.4425,-4.4425,-4.4425,-4.4425,-4.4425,-4.4425,-4.4425,-4.4425,-4.4425,-4.4425,-4.4425,-4.4425,-4.4425,-4.4425,-4.4425,-4.4425,-4.4425,-4.4425,-4.4425,-4.469,-4.4908,-4.5078,-4.5413,-4.5911,-4.6506,-4.6931,-4.7077,-4.6931,-4.6594,-4.6254,-4.573,-4.523,-4.4968,-4.4676,-4.4303,-4.3804,-4.3662,-4.3389,-4.3067,-4.2706,-4.24,-4.2029,-4.1448,-4.0744,-4.0083,-3.9297,-3.8421,-3.7702,-3.6928,-3.6157,-3.478,-3.348,-3.2457,-3.1787,-3.0626,-3.0039,-2.9509,-2.8728,-2.7779,-2.7056,-2.6153,-2.5111,-2.4108,-2.3043,-2.1908,-2.0713,-1.9433,-1.8089,-1.6589,-1.533,-1.4168,-1.2999,-1.1879,-1.0668,-0.9374,-0.7564,-0.5898,-0.488,-0.408,-0.3645,-0.3136,-0.277,-0.2333,-0.1968,-0.1386,-0.0876,0.0073,0.1021,0.1969,0.2917,0.4083,0.4956,0.5392,0.5683,0.619,0.6406,0.6478,0.6843,0.7425,0.7863,0.8152,0.808,0.7788,0.7643,-4.5595,-4.5367,-4.5138,-4.4908,-4.4737,-4.4504,-4.4425,-4.4425,-4.4425,-4.4425,-4.4425,-4.4425,-4.4425,-4.4425,-4.4425,-4.4425,-4.4425,-4.4425,-4.4425,-4.4425,-4.4425,-4.4425,-4.4425,-4.4425,-4.4425,-4.4425,-4.4425,-4.4425,-4.4425,-4.4472,-4.4737,-4.5032,-4.5307,-4.5685,-4.6135,-4.6683,-4.7106,-4.7121,-4.6858,-4.655,-4.6254,-4.5535,-4.5092,-4.4815,-4.4537,-4.4101,-4.3709,-4.3519,-4.3307,-4.2922,-4.2595,-4.2239,-4.1782,-4.1235,-4.0529,-3.9762,-3.8985,-3.8157,-3.7465,-3.6603,-3.5609,-3.4177,-3.3264,-3.2477,-3.1672,-3.0675,-2.9981,-2.9804,-2.8797,-2.7779,-2.7116,-2.6327,-2.541,-2.4348,-2.3362,-2.2313,-2.1087,-1.9809,-1.8401,-1.702,-1.5829,-1.4551,-1.2951,-1.1743,-1.0164,-0.9013,-0.7638,-0.619,-0.5174,-0.4447,-0.3936,-0.3427,-0.299,-0.2552,-0.2041,-0.1604,-0.1167,-0.0438,0.051,0.1458,0.2479,0.3572,0.4519,0.4956,0.532,0.5536,0.5754,0.6045,0.6553,0.7063,0.728,0.728,0.7135,0.6843,0.6843,-4.5367,-4.5092,-4.4922,-4.4797,-4.4751,-4.4504,-4.4425,-4.4425,-4.4425,-4.4425,-4.4425,-4.4425,-4.4425,-4.4425,-4.4425,-4.4425,-4.4425,-4.4425,-4.4425,-4.4425,-4.4425,-4.4425,-4.4425,-4.4425,-4.4425,-4.4425,-4.4425,-4.4425,-4.4425,-4.4612,-4.4876,-4.523,-4.5595,-4.6105,-4.658,-4.7033,-4.7266,-4.7222,-4.6815,-4.6594,-4.6314,-4.558,-4.5124,-4.4862,-4.4397,-4.3926,-4.3662,-4.3437,-4.3225,-4.2838,-4.2387,-4.2029,-4.1647,-4.0946,-4.0185,-3.9413,-3.8724,-3.7933,-3.7078,-3.6059,-3.4958,-3.384,-3.3037,-3.2467,-3.173,-3.0743,-2.9922,-2.9804,-2.8737,-2.7951,-2.728,-2.6614,-2.5639,-2.4595,-2.3604,-2.2524,-2.1288,-2.0117,-1.8764,-1.7512,-1.6245,-1.4955,-1.3167,-1.1456,-0.9732,-0.8435,-0.7494,-0.648,-0.5539,-0.4885,-0.4374,-0.3864,-0.3354,-0.2844,-0.2406,-0.1968,-0.1458,-0.0802,0.0,0.0948,0.175,0.2624,0.3499,0.4374,0.4665,0.481,0.5245,0.5682,0.5827,0.5827,0.6043,0.6043,0.5972,0.5899,0.5898,-4.5353,-4.5078,-4.4876,-4.4705,-4.4565,-4.4457,-4.4425,-4.4425,-4.4425,-4.4425,-4.4425,-4.4425,-4.4425,-4.4425,-4.4425,-4.4425,-4.4425,-4.4425,-4.4425,-4.4425,-4.4425,-4.4425,-4.4425,-4.4425,-4.4425,-4.4425,-4.4425,-4.4425,-4.4425,-4.4705,-4.4922,-4.523,-4.5956,-4.6506,-4.68,-4.7121,-4.7309,-4.7207,-4.6858,-4.6506,-4.6269,-4.558,-4.5032,-4.4908,-4.4317,-4.3865,-4.36,-4.3403,-4.308,-4.2706,-4.2289,-4.1881,-4.1398,-4.0707,-3.9981,-3.9206,-3.8473,-3.7251,-3.6332,-3.5412,-3.4858,-3.384,-3.3037,-3.2457,-3.1787,-3.0616,-3.0098,-2.9627,-2.8737,-2.7951,-2.7401,-2.6614,-2.5639,-2.4664,-2.3649,-2.2658,-2.147,-2.0382,-1.9119,-1.7934,-1.6723,-1.4853,-1.3035,-1.189,-1.0305,-0.9013,-0.8145,-0.7278,-0.6337,-0.5465,-0.481,-0.4374,-0.3864,-0.3281,-0.277,-0.2333,-0.1896,-0.124,-0.0438,0.051,0.1167,0.1823,0.2551,0.3499,0.3718,0.4011,0.4374,0.4665,0.4374,0.4301,0.4589,0.5026,0.51,0.5029,0.4955,-4.5261,-4.5078,-4.4783,-4.4565,-4.4425,-4.4425,-4.4425,-4.4425,-4.4425,-4.4425,-4.4425,-4.4425,-4.4425,-4.4425,-4.4425,-4.4425,-4.4425,-4.4425,-4.4425,-4.4425,-4.4425,-4.4425,-4.4425,-4.4425,-4.4425,-4.4411,-4.4411,-4.4425,-4.4551,-4.4783,-4.5244,-4.5776,-4.6403,-4.6887,-4.7149,-4.7294,-4.7352,-4.7251,-4.6975,-4.6624,-4.6225,-4.5716,-4.5138,-4.4815,-4.4289,-4.3757,-4.3566,-4.3293,-4.2984,-4.2547,-4.219,-4.1782,-4.1147,-4.0491,-3.9814,-3.905,-3.8051,-3.682,-3.5797,-3.5467,-3.4802,-3.3738,-3.3037,-3.2467,-3.173,-3.0626,-3.0098,-2.9568,-2.8677,-2.814,-2.759,-2.6736,-2.5778,-2.4734,-2.3901,-2.2843,-2.18,-2.0715,-1.9484,-1.828,-1.6942,-1.4978,-1.3178,-1.2173,-1.1025,-0.9948,-0.8868,-0.8,-0.7208,-0.6264,-0.5392,-0.4883,-0.4374,-0.3791,-0.3209,-0.2698,-0.2187,-0.1678,-0.0948,-0.0146,0.0511,0.1094,0.1823,0.2479,0.2843,0.3209,0.3428,0.3501,0.3354,0.328,0.3351,0.3789,0.4155,0.4155,0.4083,-4.5092,-4.5032,-4.4597,-4.4411,-4.4425,-4.4425,-4.4425,-4.4425,-4.4425,-4.4425,-4.4425,-4.4425,-4.4425,-4.4425,-4.4425,-4.4425,-4.4425,-4.4425,-4.4425,-4.4425,-4.4425,-4.4425,-4.4425,-4.4425,-4.4425,-4.4411,-4.4457,-4.4612,-4.4783,-4.5106,-4.5685,-4.6403,-4.6946,-4.7322,-4.7452,-4.7495,-4.751,-4.7409,-4.7149,-4.68,-4.6403,-4.5866,-4.5398,-4.4894,-4.4322,-4.3851,-4.3519,-4.3245,-4.2838,-4.2484,-4.2226,-4.1647,-4.1047,-4.0389,-3.9608,-3.8724,-3.7601,-3.6592,-3.5632,-3.5423,-3.4758,-3.3738,-3.3037,-3.2467,-3.1662,-3.0684,-3.0098,-2.9509,-2.8797,-2.8319,-2.7831,-2.6813,-2.5864,-2.5006,-2.424,-2.3235,-2.22,-2.1082,-1.9831,-1.8619,-1.7303,-1.5664,-1.3963,-1.2749,-1.189,-1.0953,-0.9876,-0.8941,-0.8073,-0.7063,-0.619,-0.5391,-0.4882,-0.4301,-0.3791,-0.3208,-0.2552,-0.2042,-0.1678,-0.0948,-0.0292,0.0438,0.1094,0.1677,0.2115,0.2406,0.2553,0.2626,0.2625,0.2552,0.2405,0.2551,0.299,0.3136,0.3063,-4.5032,-4.4862,-4.4551,-4.4425,-4.4425,-4.4425,-4.4425,-4.4425,-4.4425,-4.4425,-4.4425,-4.4425,-4.4425,-4.4425,-4.4425,-4.4425,-4.4425,-4.4425,-4.4425,-4.4425,-4.4425,-4.4425,-4.4425,-4.4425,-4.4425,-4.4457,-4.4597,-4.4751,-4.4968,-4.5336,-4.6194,-4.699,-4.7294,-4.7624,-4.7837,-4.788,-4.7767,-4.7596,-4.7322,-4.7033,-4.6594,-4.606,-4.5595,-4.5032,-4.4476,-4.4007,-4.3566,-4.3341,-4.2922,-4.2289,-4.2177,-4.1634,-4.0656,-4.0032,-3.931,-3.7773,-3.7131,-3.6592,-3.5632,-3.5423,-3.4858,-3.3794,-3.3037,-3.2467,-3.1662,-3.0801,-2.9981,-2.9509,-2.8797,-2.8191,-2.7746,-2.6986,-2.6162,-2.5538,-2.4682,-2.3788,-2.2734,-2.1632,-2.0367,-1.8819,-1.7499,-1.6028,-1.4395,-1.3611,-1.2824,-1.189,-1.0956,-0.9948,-0.9013,-0.8,-0.6918,-0.6117,-0.5463,-0.4955,-0.4374,-0.3791,-0.3062,-0.2406,-0.2042,-0.1605,-0.0802,-0.0146,0.0438,0.0949,0.1459,0.1605,0.1678,0.1751,0.1824,0.1678,0.1605,0.1678,0.1751,0.2042,0.2189,-4.4908,-4.4783,-4.4504,-4.4425,-4.4425,-4.4425,-4.4425,-4.4425,-4.4425,-4.4425,-4.4425,-4.4425,-4.4425,-4.4425,-4.4425,-4.4425,-4.4425,-4.4425,-4.4425,-4.4425,-4.4425,-4.4425,-4.4425,-4.4504,-4.4551,-4.4644,-4.4815,-4.5046,-4.5367,-4.6046,-4.6858,-4.7207,-4.7467,-4.788,-4.816,-4.8218,-4.8118,-4.788,-4.7581,-4.7251,-4.6815,-4.6328,-4.5776,-4.5276,-4.4723,-4.4148,-4.3648,-4.3389,-4.2873,-4.2226,-4.2079,-4.1584,-4.0542,-3.9775,-3.8776,-3.7453,-3.7131,-3.6495,-3.5632,-3.5423,-3.4691,-3.384,-3.3037,-3.2467,-3.1604,-3.0743,-3.0216,-2.9686,-2.8728,-2.79,-2.7539,-2.7184,-2.6635,-2.608,-2.5254,-2.4405,-2.3336,-2.2229,-2.0741,-1.9136,-1.764,-1.6169,-1.5039,-1.4399,-1.3686,-1.2896,-1.2033,-1.1028,-1.0092,-0.9085,-0.7856,-0.6771,-0.619,-0.5682,-0.51,-0.4519,-0.3936,-0.3207,-0.2478,-0.1969,-0.1313,-0.0802,-0.0292,0.0292,0.0876,0.1022,0.1095,0.1022,0.1095,0.0876,0.0803,0.0803,0.0949,0.1313,0.1386,-4.4783,-4.4751,-4.4504,-4.4425,-4.4425,-4.4425,-4.4425,-4.4425,-4.4425,-4.4425,-4.4425,-4.4425,-4.4425,-4.4425,-4.4425,-4.4425,-4.4425,-4.4425,-4.4425,-4.4425,-4.4425,-4.4425,-4.4551,-4.4644,-4.4737,-4.4876,-4.5138,-4.5549,-4.615,-4.6727,-4.7121,-4.7381,-4.7922,-4.8244,-4.8328,-4.8453,-4.8412,-4.8202,-4.788,-4.7538,-4.7121,-4.658,-4.6001,-4.5458,-4.4862,-4.4256,-4.3757,-4.3341,-4.297,-4.2373,-4.1931,-4.1484,-4.0377,-3.9349,-3.825,-3.7507,-3.7078,-3.6386,-3.5742,-3.5423,-3.4691,-3.3896,-3.3094,-3.2467,-3.1662,-3.0626,-3.0039,-2.9686,-2.8856,-2.8199,-2.7754,-2.7443,-2.6926,-2.6457,-2.5759,-2.5028,-2.425,-2.2801,-2.0908,-1.9401,-1.8066,-1.6669,-1.5753,-1.5044,-1.4403,-1.3682,-1.2964,-1.2105,-1.11,-1.0092,-0.901,-0.7711,-0.699,-0.6482,-0.5972,-0.5391,-0.4882,-0.4226,-0.3352,-0.2624,-0.2115,-0.1532,-0.0949,-0.0438,0.0073,0.0511,0.0657,0.0438,0.0219,0.0146,0.0073,-0.0073,0.0146,0.0438,0.0584,-4.4705,-4.4504,-4.4411,-4.4425,-4.4425,-4.4425,-4.4425,-4.4425,-4.4425,-4.4425,-4.4425,-4.4425,-4.4425,-4.4425,-4.4425,-4.4425,-4.4425,-4.4425,-4.4425,-4.4425,-4.4425,-4.4565,-4.4705,-4.483,-4.4922,-4.5152,-4.5549,-4.6135,-4.6771,-4.7207,-4.7581,-4.8007,-4.8328,-4.837,-4.848,-4.8604,-4.8521,-4.8453,-4.8202,-4.7794,-4.7337,-4.68,-4.6225,-4.564,-4.5032,-4.4429,-4.3946,-4.3553,-4.2943,-4.2324,-4.1931,-4.1034,-3.9672,-3.8881,-3.8092,-3.7292,-3.6916,-3.6277,-3.5742,-3.5312,-3.4747,-3.3963,-3.3218,-3.2581,-3.172,-3.0558,-2.9863,-2.9577,-2.9103,-2.8498,-2.8023,-2.7703,-2.7331,-2.6845,-2.6333,-2.5731,-2.5025,-2.3059,-2.1151,-1.9761,-1.8498,-1.7444,-1.6532,-1.5758,-1.5044,-1.4399,-1.39,-1.3111,-1.2033,-1.11,-1.0308,-0.9082,-0.7863,-0.7283,-0.6773,-0.6335,-0.5827,-0.5173,-0.4371,-0.3644,-0.2916,-0.2115,-0.1459,-0.1167,-0.0803,-0.0365,-0.0219,-0.0584,-0.073,-0.0584,-0.0584,-0.0657,-0.0803,-0.0584,-0.0438,-4.4551,-4.4425,-4.4425,-4.4425,-4.4425,-4.4425,-4.4425,-4.4425,-4.4425,-4.4425,-4.4425,-4.4425,-4.4425,-4.4425,-4.4425,-4.4425,-4.4425,-4.4425,-4.4425,-4.4425,-4.4565,-4.4658,-4.4844,-4.5106,-4.5336,-4.5609,-4.6225,-4.6858,-4.7337,-4.7709,-4.8034,-4.8286,-4.837,-4.8495,-4.8604,-4.8604,-4.8604,-4.8563,-4.8412,-4.8049,-4.7538,-4.7019,-4.6491,-4.5896,-4.5293,-4.4648,-4.4087,-4.3648,-4.2991,-4.2177,-4.1534,-4.063,-3.9517,-3.8776,-3.7986,-3.7292,-3.6808,-3.6332,-3.5687,-3.5257,-3.4858,-3.4019,-3.3388,-3.2753,-3.1893,-3.085,-3.0206,-2.9863,-2.8984,-2.8337,-2.8401,-2.8157,-2.7957,-2.7605,-2.7011,-2.639,-2.4822,-2.2826,-2.1421,-2.0388,-1.9128,-1.8077,-1.7168,-1.6325,-1.5683,-1.5257,-1.4755,-1.3971,-1.2968,-1.2108,-1.1315,-1.0452,-0.9304,-0.837,-0.7858,-0.7278,-0.6698,-0.6045,-0.5389,-0.4517,-0.3716,-0.2624,-0.1895,-0.1751,-0.1459,-0.1095,-0.1095,-0.1387,-0.1241,-0.0949,-0.1022,-0.1168,-0.1386,-0.1678,-0.1605,-4.4411,-4.4425,-4.4425,-4.4425,-4.4425,-4.4425,-4.4425,-4.4425,-4.4425,-4.4425,-4.4425,-4.4425,-4.4425,-4.4425,-4.4425,-4.4425,-4.4425,-4.4425,-4.4425,-4.4565,-4.4705,-4.4936,-4.5244,-4.5518,-4.5835,-4.6284,-4.6902,-4.7207,-4.7538,-4.7907,-4.8202,-4.8328,-4.8453,-4.8604,-4.8604,-4.8604,-4.8604,-4.8578,-4.8427,-4.8244,-4.7794,-4.7322,-4.6741,-4.6121,-4.552,-4.4769,-4.4195,-4.3614,-4.3039,-4.2164,-4.1134,-4.0173,-3.9362,-3.8619,-3.7933,-3.7239,-3.6766,-3.6168,-3.5632,-3.5368,-3.4691,-3.3952,-3.3491,-3.2867,-3.2018,-3.1394,-3.0752,-3.0094,-2.9273,-2.876,-2.8763,-2.8782,-2.8582,-2.8168,-2.7556,-2.6745,-2.4805,-2.2928,-2.1966,-2.1012,-1.9895,-1.8848,-1.7872,-1.7026,-1.6532,-1.6108,-1.5399,-1.4613,-1.3829,-1.3111,-1.2395,-1.1674,-1.0743,-0.9879,-0.9016,-0.8362,-0.7711,-0.6986,-0.6332,-0.5388,-0.4443,-0.3571,-0.2915,-0.2406,-0.2115,-0.1969,-0.1824,-0.197,-0.1751,-0.1605,-0.1897,-0.2116,-0.2188,-0.2407,-0.2698,-4.4425,-4.4425,-4.4425,-4.4425,-4.4425,-4.4425,-4.4425,-4.4425,-4.4425,-4.4425,-4.4425,-4.4425,-4.4425,-4.4425,-4.4425,-4.4411,-4.4411,-4.4411,-4.4565,-4.4751,-4.489,-4.5198,-4.5609,-4.597,-4.6373,-4.6902,-4.7424,-4.7709,-4.788,-4.8175,-4.837,-4.8521,-4.8521,-4.8604,-4.8604,-4.8604,-4.8563,-4.8578,-4.8537,-4.837,-4.7964,-4.7452,-4.6887,-4.6299,-4.5716,-4.4894,-4.4195,-4.3757,-4.3026,-4.2115,-4.1084,-4.0032,-3.9206,-3.8473,-3.7826,-3.7239,-3.6766,-3.6168,-3.5687,-3.5478,-3.4802,-3.4132,-3.3681,-3.325,-3.2611,-3.2091,-3.1564,-3.1109,-3.036,-2.9613,-2.9514,-2.9529,-2.9331,-2.857,-2.7826,-2.6632,-2.5097,-2.3945,-2.2996,-2.1904,-2.0873,-1.9756,-1.8573,-1.7872,-1.7379,-1.688,-1.6245,-1.5465,-1.4617,-1.3971,-1.3396,-1.2753,-1.2036,-1.1031,-0.9951,-0.9443,-0.8794,-0.8071,-0.7202,-0.6116,-0.5317,-0.4736,-0.4081,-0.3498,-0.3208,-0.3063,-0.2917,-0.2772,-0.2918,-0.2917,-0.3064,-0.3209,-0.3209,-0.328,-0.3571]}]]